Date StartTime U_cm/s V_cm/s W_cm/s Ustd_cm/s Vstd_cm/s Wstd_cm/s Uvar_(cm/s)^2 Vvar_(cm/s)^2 Wvar_(cm/s)^2 KE_(m/s)^2 TurbulentKE_(m/s)^2 HorizWindSpeed_cm/s FrictionSpeec_cm/s DragCoef SpeedOfSound_m/s SonicTemperature_C Pressure_mb 
01/15/2014  00:00:00      -94.600      -52.399        2.070       33.597       28.528       17.929     1128.736      813.821      321.433        0.698        0.113      108.143       17.403        0.026      331.943        0.283      877.252
01/15/2014  00:01:00      -44.094      -42.718        9.676       44.735       37.491       25.507     2001.217     1405.608      650.611        0.396        0.203       61.393       22.607        0.136      332.101        0.545      877.247
01/15/2014  00:02:00      -97.788      -72.922        3.488       39.884       33.153       23.566     1590.718     1099.113      555.359        0.907        0.162      121.984       21.058        0.030      332.176        0.667      877.249
01/15/2014  00:03:00      -64.159      -39.726        9.205       39.718       30.862       22.953     1577.502      952.434      526.823        0.442        0.153       75.462       24.583        0.106      332.207        0.720      877.266
01/15/2014  00:04:00      -65.442      -42.263        9.321       38.513       38.875       22.742     1483.223     1511.304      517.207        0.483        0.176       77.902       23.087        0.088      332.259        0.806      877.281
01/15/2014  00:05:00     -106.239      -52.049       -4.116       26.893       22.812       16.008      723.215      520.401      256.272        0.776        0.075      118.304        9.056        0.006      332.170        0.659      877.281
01/15/2014  00:06:00      -91.882      -59.145        0.200       40.681       26.909       24.118     1654.980      724.091      581.672        0.745        0.148      109.272       23.547        0.046      332.064        0.484      877.280
01/15/2014  00:07:00      -87.452      -66.916        4.602       37.057       31.229       23.170     1373.225      975.232      536.832        0.752        0.144      110.117       18.402        0.028      331.982        0.349      877.283
01/15/2014  00:08:00     -102.984      -58.609        5.214       42.375       28.725       20.315     1795.639      825.136      412.710        0.855        0.152      118.493       21.864        0.034      331.991        0.362      877.285
01/15/2014  00:09:00     -105.660      -64.122        4.651       32.112       30.595       22.713     1031.153      936.062      515.864        0.889        0.124      123.594       20.811        0.028      331.952        0.299      877.295
01/15/2014  00:10:00     -130.883      -47.472      -12.728       14.956       12.017       11.824      223.683      144.398      139.808        1.003        0.025      139.227        5.897        0.002      332.017        0.405      877.310
01/15/2014  00:11:00     -142.769      -50.109       -8.809       18.020       16.798       12.902      324.708      282.188      166.460        1.187        0.039      151.307        8.838        0.003      332.054        0.467      877.315
01/15/2014  00:12:00     -114.974      -41.804       -0.479       29.970       25.877       13.490      898.214      669.623      181.972        0.836        0.087      122.338       12.596        0.011      331.977        0.340      877.315
01/15/2014  00:13:00     -112.624      -32.247        1.220       30.879       22.356       19.055      953.505      499.772      363.092        0.777        0.091      117.150       18.150        0.024      331.905        0.222      877.315
01/15/2014  00:14:00     -108.617      -26.796       -2.700       31.443       21.681       16.948      988.658      470.068      287.233        0.713        0.087      111.873       15.957        0.020      331.887        0.191      877.323
01/15/2014  00:15:00     -106.347      -24.765       -0.128       30.232       20.286       13.824      913.975      411.509      191.101        0.672        0.076      109.192       13.108        0.014      331.939        0.277      877.332
01/15/2014  00:16:00     -122.659      -20.307       -2.581       25.363       19.795       15.258      643.303      391.829      232.818        0.837        0.063      124.329       15.134        0.015      332.066        0.486      877.330
01/15/2014  00:17:00     -112.336      -14.880       -6.489       23.141       18.894       15.802      535.497      356.995      249.694        0.701        0.057      113.317       14.278        0.016      332.147        0.620      877.327
01/15/2014  00:18:00     -139.683      -10.742      -10.970       18.231       13.254        9.627      332.370      175.676       92.682        1.017        0.030      140.096        8.705        0.004      332.212        0.727      877.320
01/15/2014  00:19:00     -129.370      -24.638       -8.693       26.487       21.524       13.377      701.539      463.261      178.956        0.938        0.067      131.696       13.635        0.011      332.030        0.426      877.303
01/15/2014  00:20:00     -120.722      -26.855       -7.160       31.132       19.392       14.772      969.218      376.056      218.206        0.845        0.078      123.673       16.449        0.018      331.883        0.184      877.281
01/15/2014  00:21:00     -111.745      -47.626       -4.946       18.057       17.425       14.924      326.053      303.629      222.728        0.782        0.043      121.471       10.714        0.008      331.771        0.000      877.264
01/15/2014  00:22:00     -117.622      -42.342      -13.291       18.202       15.112       11.915      331.311      228.365      141.955        0.825        0.035      125.011        7.792        0.004      331.801        0.050      877.253
01/15/2014  00:23:00      -87.892      -25.198       -3.359       33.510       27.208       14.663     1122.934      740.279      214.999        0.522        0.104       91.433       10.772        0.014      331.783        0.021      877.244
01/15/2014  00:24:00      -66.326      -40.243        6.312       25.972       25.735       16.616      674.533      662.310      276.105        0.384        0.081       77.580       11.708        0.023      331.703       -0.110      877.237
01/15/2014  00:25:00      -85.494      -41.150       -5.562       36.532       20.749       14.685     1334.564      430.521      215.657        0.551        0.099       94.882       19.084        0.040      331.656       -0.187      877.227
01/15/2014  00:26:00      -95.412      -55.455       -4.810       18.215       16.686       11.849      331.804      278.427      140.404        0.648        0.038      110.357       10.048        0.008      331.591       -0.293      877.210
01/15/2014  00:27:00     -105.334      -20.517        0.670       40.051       29.361       19.614     1604.063      862.081      384.727        0.718        0.143      107.314       18.752        0.031      331.663       -0.176      877.203
01/15/2014  00:28:00     -100.929      -26.306       -1.934       37.936       29.356       18.319     1439.119      861.785      335.596        0.676        0.132      104.301       16.608        0.025      331.697       -0.121      877.189
01/15/2014  00:29:00      -80.813      -31.287       -4.485       30.485       22.959       17.924      929.324      527.118      321.276        0.465        0.089       86.658       16.946        0.038      331.679       -0.149      877.184
01/15/2014  00:30:00      -86.754      -49.687        1.181       33.989       31.798       18.087     1155.238     1011.132      327.123        0.624        0.125       99.976       13.186        0.017      331.613       -0.261      877.182
01/15/2014  00:31:00      -49.757      -21.077        0.335       44.273       25.064       18.132     1960.081      628.181      328.753        0.292        0.146       54.037       21.677        0.161      331.571       -0.329      877.198
01/15/2014  00:32:00      -16.539      -23.126       -7.379       26.206       14.987       15.004      686.735      224.616      225.115        0.100        0.057       28.432        6.811        0.057      331.681       -0.148      877.209
01/15/2014  00:33:00      -32.359       -7.301       -2.814       29.697       21.912       20.862      881.898      480.151      435.220        0.145        0.090       33.172       15.104        0.207      331.724       -0.075      877.212
01/15/2014  00:34:00      -38.090       -2.179      -12.487       22.848       13.429       11.232      522.046      180.348      126.163        0.122        0.041       38.153       11.163        0.086      331.779        0.014      877.216
01/15/2014  00:35:00      -11.852       -2.451       -9.259       15.907        9.438        9.357      253.019       89.075       87.561        0.033        0.021       12.102       10.333        0.729      331.919        0.245      877.215
01/15/2014  00:36:00       -3.368       -7.725       -3.771       11.267       21.488        7.387      126.942      461.737       54.570        0.036        0.032        8.427        5.993        0.506      331.958        0.309      877.205
01/15/2014  00:37:00       13.438      -35.644       -1.731       12.792       15.759       10.173      163.645      248.348      103.489        0.098        0.026       38.093        4.723        0.015      332.008        0.390      877.191
01/15/2014  00:38:00       -9.242      -13.425        4.339       23.167       14.257       13.895      536.714      203.265      193.076        0.061        0.047       16.298        3.497        0.046      331.834        0.106      877.170
01/15/2014  00:39:00      -66.950      -34.160       -2.890       23.039       18.661       13.388      530.789      348.230      179.233        0.336        0.053       75.161       13.949        0.034      331.633       -0.226      877.163
01/15/2014  00:40:00      -58.439      -28.412       -4.304       22.946       13.162       11.852      526.517      173.245      140.464        0.254        0.042       64.980       11.947        0.034      331.690       -0.130      877.148
01/15/2014  00:41:00      -63.556      -14.907      -10.851        7.883        7.594        7.236       62.137       57.667       52.357        0.228        0.009       65.281        3.389        0.003      331.851        0.133      877.140
01/15/2014  00:42:00      -51.838      -25.683       -6.922        7.062        7.677        6.038       49.870       58.939       36.455        0.177        0.007       57.851        3.061        0.003      331.921        0.249      877.131
01/15/2014  00:43:00      -34.084      -12.500       -1.261       11.006        8.196        7.216      121.139       67.174       52.066        0.078        0.012       36.303        3.484        0.009      331.894        0.202      877.121
01/15/2014  00:44:00      -24.517      -16.376        0.751       13.519        9.672        5.271      182.753       93.546       27.779        0.059        0.015       29.483        4.079        0.019      331.955        0.305      877.106
01/15/2014  00:45:00      -39.981      -37.047       -3.355       16.285       19.941        7.581      265.190      397.643       57.471        0.185        0.036       54.507        6.738        0.015      331.939        0.279      877.096
01/15/2014  00:46:00      -18.173      -12.000        8.897       16.590       12.636        9.438      275.216      159.670       89.074        0.054        0.026       21.777        8.917        0.168      331.847        0.125      877.090
01/15/2014  00:47:00      -16.168      -19.452        2.257       17.038       11.167       11.468      290.277      124.702      131.510        0.060        0.027       25.294        7.522        0.088      331.893        0.203      877.094
01/15/2014  00:48:00      -34.786      -24.149       -1.877       20.536       18.167        9.579      421.718      330.033       91.760        0.132        0.042       42.347       10.140        0.057      331.910        0.228      877.087
01/15/2014  00:49:00      -48.490      -35.683        0.041       14.815       10.626       10.398      219.490      112.905      108.127        0.203        0.022       60.205        7.575        0.016      331.956        0.307      877.095
01/15/2014  00:50:00      -18.636      -21.992       -0.432       19.152       12.398        8.572      366.814      153.711       73.479        0.071        0.030       28.826        9.847        0.117      331.936        0.272      877.108
01/15/2014  00:51:00      -42.290      -25.807        3.209       18.243       11.620       11.223      332.793      135.017      125.950        0.153        0.030       49.542        4.745        0.009      331.809        0.063      877.119
01/15/2014  00:52:00      -75.677      -32.732        3.894       30.655       24.459       13.387      939.739      598.247      179.218        0.427        0.086       82.453       15.496        0.035      331.771        0.002      877.124
01/15/2014  00:53:00      -62.065      -36.001        1.289       23.262       20.631       14.315      541.101      425.629      204.909        0.316        0.059       71.750        9.257        0.017      331.664       -0.174      877.135
01/15/2014  00:54:00      -67.772      -32.518       -4.066       18.125       18.434        9.245      328.523      339.817       85.462        0.321        0.038       75.170        6.043        0.006      331.585       -0.305      877.153
01/15/2014  00:55:00      -93.572      -35.508       -3.637       22.546       17.345       10.216      508.330      300.842      104.361        0.547        0.046      100.082        9.701        0.009      331.616       -0.253      877.161
01/15/2014  00:56:00      -83.462      -17.724        0.897       34.090       19.833       17.194     1162.133      393.350      295.617        0.457        0.093       85.323       19.242        0.051      331.462       -0.509      877.173
01/15/2014  00:57:00     -105.955      -25.800       -7.385       30.801       21.564       16.079      948.686      465.017      258.537        0.681        0.084      109.051       14.763        0.018      331.399       -0.611      877.170
01/15/2014  00:58:00     -106.339       -9.571       -9.429       29.232       26.138       16.566      854.508      683.213      274.444        0.665        0.091      106.769       10.301        0.009      331.351       -0.691      877.166
01/15/2014  00:59:00      -82.611      -10.510        1.966       31.168       29.479       20.115      971.427      869.011      404.603        0.459        0.112       83.277       17.278        0.043      331.346       -0.698      877.164
01/15/2014  01:00:00     -115.394      -19.936       -5.696       22.488       28.496       17.825      505.720      812.000      317.730        0.769        0.082      117.103       14.096        0.014      331.414       -0.587      877.161
01/15/2014  01:01:00     -113.503      -42.339       -6.178       23.680       31.384       15.173      560.732      984.985      230.225        0.824        0.089      121.142       11.911        0.010      331.396       -0.616      877.146
01/15/2014  01:02:00     -137.613      -22.014      -11.780       33.991       16.915       18.238     1155.392      286.133      332.626        1.067        0.089      139.362       20.081        0.021      331.369       -0.662      877.122
01/15/2014  01:03:00     -122.063      -22.123       -5.339       35.531       18.389       17.769     1262.449      338.157      315.721        0.867        0.096      124.052       18.756        0.023      331.367       -0.663      877.108
01/15/2014  01:04:00     -128.112      -36.830       -7.133       13.743       13.687       10.168      188.866      187.324      103.387        0.915        0.024      133.301        5.874        0.002      331.377       -0.647      877.092
01/15/2014  01:05:00     -124.047      -27.175      -12.511       19.390       15.908       13.807      375.972      253.076      190.637        0.855        0.041      126.989        7.040        0.003      331.363       -0.670      877.088
01/15/2014  01:06:00     -137.536      -14.508      -11.996       21.237       15.014       12.296      451.001      225.415      151.184        1.005        0.041      138.300        8.463        0.004      331.393       -0.621      877.076
01/15/2014  01:07:00     -125.529      -19.681      -12.780       27.792       17.271       18.379      772.384      298.291      337.796        0.886        0.070      127.063       17.924        0.020      331.363       -0.669      877.068
01/15/2014  01:08:00     -133.837      -28.512      -17.301       24.581       24.182       16.063      604.216      584.761      258.015        1.024        0.072      136.841       11.853        0.008      331.353       -0.687      877.061
01/15/2014  01:09:00     -115.884      -48.033       -6.738       23.855       32.069       14.843      569.038     1028.423      220.309        0.880        0.091      125.445        8.881        0.005      331.322       -0.738      877.060
01/15/2014  01:10:00     -124.356      -39.749      -12.632       28.595       23.052       18.526      817.700      531.376      343.228        0.945        0.085      130.554       17.212        0.017      331.376       -0.647      877.058
01/15/2014  01:11:00     -108.982      -45.336      -11.103       22.946       22.827       13.298      526.514      521.062      176.844        0.764        0.061      118.036       11.349        0.009      331.365       -0.666      877.063
01/15/2014  01:12:00     -125.157      -26.177      -15.285       26.114       18.812       16.295      681.928      353.896      265.522        0.894        0.065      127.865       14.068        0.012      331.399       -0.611      877.064
01/15/2014  01:13:00     -117.577      -14.701      -15.560       34.998       18.199       17.174     1224.889      331.188      294.932        0.807        0.093      118.492       20.405        0.030      331.406       -0.599      877.065
01/15/2014  01:14:00     -130.135      -22.449      -17.589       10.495       14.603       10.264      110.147      213.262      105.358        0.909        0.021      132.057        6.695        0.003      331.421       -0.575      877.062
01/15/2014  01:15:00     -129.447      -18.556      -13.521       22.062       14.437       12.664      486.728      208.436      160.365        0.907        0.043      130.770       10.152        0.006      331.434       -0.554      877.062
01/15/2014  01:16:00     -114.227      -53.653      -12.617       24.071       21.941       15.351      579.436      481.419      235.656        0.869        0.065      126.200       12.402        0.010      331.377       -0.648      877.060
01/15/2014  01:17:00     -115.791      -59.411      -11.511       25.188       29.676       15.956      634.440      880.681      254.582        0.942        0.088      130.143        9.928        0.006      331.389       -0.627      877.057
01/15/2014  01:18:00     -126.658      -33.765      -11.295       39.086       29.746       19.703     1527.705      884.838      388.201        1.005        0.140      131.081       17.659        0.018      331.346       -0.698      877.055
01/15/2014  01:19:00     -127.785      -36.524       -9.273       34.540       38.027       24.555     1192.983     1446.024      602.971        1.049        0.162      132.902       21.915        0.027      331.275       -0.814      877.061
01/15/2014  01:20:00     -130.231      -26.946      -11.153       32.904       32.382       21.057     1082.700     1048.603      443.399        1.019        0.129      132.990       18.960        0.020      331.279       -0.809      877.068
01/15/2014  01:21:00      -97.732      -14.497       -5.329       30.647       27.689       20.938      939.240      766.664      438.390        0.597        0.107       98.801       10.314        0.011      331.309       -0.759      877.066
01/15/2014  01:22:00      -82.490      -38.203       -8.925       39.761       28.171       18.700     1580.934      793.629      349.709        0.553        0.136       90.907       16.024        0.031      331.349       -0.693      877.049
01/15/2014  01:23:00      -98.273      -14.362       -6.531       43.867       41.921       24.465     1924.334     1757.381      598.537        0.709        0.214       99.317       21.010        0.045      331.368       -0.661      877.036
01/15/2014  01:24:00      -54.081       -9.461       -8.268       39.639       30.624       19.899     1571.285      937.843      395.969        0.299        0.145       54.903       13.434        0.060      331.369       -0.660      877.028
01/15/2014  01:25:00      -58.121      -29.110       -1.942       30.655       30.969       22.584      939.758      959.093      510.042        0.332        0.120       65.003        9.332        0.021      331.397       -0.615      877.029
01/15/2014  01:26:00      -52.123      -28.522       -8.807       29.881       21.692       21.258      892.904      470.564      451.890        0.271        0.091       59.416       15.703        0.070      331.375       -0.651      877.026
01/15/2014  01:27:00      -29.441      -29.307       -6.075       36.491       33.052       22.641     1331.625     1092.435      512.596        0.235        0.147       41.541       15.509        0.139      331.416       -0.584      877.021
01/15/2014  01:28:00      -81.385      -18.568      -14.311       28.936       15.285       17.167      837.319      233.634      294.693        0.427        0.068       83.476       14.162        0.029      331.332       -0.721      877.001
01/15/2014  01:29:00      -61.217      -53.361      -26.656       32.707       35.111       27.093     1069.764     1232.775      734.051        0.517        0.152       81.209       19.763        0.059      331.340       -0.708      877.009
01/15/2014  01:30:00     -114.088      -44.876      -15.321       25.893       25.881       15.653      670.466      669.838      245.017        0.842        0.079      122.597        9.803        0.006      331.258       -0.843      877.010
01/15/2014  01:31:00     -102.966      -56.217      -17.664       26.344       29.547       16.259      694.001      873.025      264.356        0.795        0.092      117.313       15.618        0.018      331.272       -0.818      877.006
01/15/2014  01:32:00     -107.242      -36.796      -19.320       25.693       27.881       14.690      660.125      777.333      215.806        0.744        0.083      113.379        8.991        0.006      331.297       -0.779      877.005
01/15/2014  01:33:00      -92.197      -33.866       -6.492       35.302       25.272       16.215     1246.260      638.663      262.913        0.592        0.107       98.220       15.927        0.026      331.344       -0.700      877.018
01/15/2014  01:34:00     -134.826      -33.179      -13.210       25.071       19.293       16.819      628.550      372.211      282.878        1.037        0.064      138.848       12.773        0.008      331.403       -0.603      877.029
01/15/2014  01:35:00     -135.450      -44.341      -12.079       18.784       21.055       14.441      352.839      443.330      208.541        1.073        0.050      142.523       10.206        0.005      331.411       -0.591      877.033
01/15/2014  01:36:00     -147.506      -39.237      -15.624       23.301       20.654       16.684      542.924      426.581      278.371        1.239        0.062      152.635       14.049        0.008      331.406       -0.600      877.032
01/15/2014  01:37:00     -120.711      -21.232       -9.119       33.920       27.446       20.257     1150.582      753.266      410.344        0.871        0.116      122.564       18.602        0.023      331.361       -0.673      877.016
01/15/2014  01:38:00     -140.270       -1.083      -10.523       30.014       21.602       19.831      900.840      466.635      393.256        1.077        0.088      140.274       16.324        0.014      331.490       -0.461      877.016
01/15/2014  01:39:00     -154.432      -27.616      -15.293       21.710       23.674       16.539      471.329      560.464      273.553        1.308        0.065      156.882       13.627        0.008      331.532       -0.392      877.030
01/15/2014  01:40:00     -138.955      -29.809      -15.208       38.617       25.177       17.916     1491.271      633.880      320.985        1.144        0.122      142.116       17.946        0.016      331.602       -0.278      877.023
01/15/2014  01:41:00     -151.585      -37.715      -12.419       33.072       27.210       16.922     1093.726      740.361      286.355        1.334        0.106      156.207       15.918        0.010      331.518       -0.416      877.021
01/15/2014  01:42:00     -104.895      -30.276       -0.150       49.405       35.677       25.341     2440.822     1272.869      642.191        0.814        0.218      109.177       23.931        0.048      331.451       -0.525      877.019
01/15/2014  01:43:00      -62.416      -34.653       -4.879       38.078       39.731       21.296     1449.946     1578.525      453.509        0.430        0.174       71.390       21.265        0.089      331.459       -0.513      877.010
01/15/2014  01:44:00     -126.286      -46.654      -13.746       30.542       24.616       19.956      932.820      605.936      398.245        1.013        0.097      134.629       14.815        0.012      331.335       -0.718      877.004
01/15/2014  01:45:00     -117.523      -32.087      -13.925       26.164       26.904       17.025      684.568      723.848      289.838        0.837        0.085      121.825        9.875        0.007      331.254       -0.848      877.008
01/15/2014  01:46:00      -98.519      -29.683       -3.856       33.477       21.648       17.921     1120.731      468.632      321.153        0.626        0.096      102.894       18.729        0.033      331.344       -0.701      876.993
01/15/2014  01:47:00     -102.093      -46.065      -16.517       14.587       19.753       12.652      212.780      390.163      160.079        0.679        0.038      112.005       10.009        0.008      331.369       -0.659      876.984
01/15/2014  01:48:00     -102.674      -34.560      -19.626       13.075       17.331       10.213      170.955      300.372      104.305        0.635        0.029      108.335        8.897        0.007      331.282       -0.802      876.975
01/15/2014  01:49:00     -116.694      -28.513      -12.831       18.568       13.658        9.635      344.785      186.529       92.838        0.761        0.031      120.127        7.233        0.004      331.331       -0.722      876.969
01/15/2014  01:50:00     -102.432      -37.527       -8.307       15.187       16.533       10.935      230.650      273.355      119.585        0.630        0.031      109.090        6.584        0.004      331.358       -0.678      876.969
01/15/2014  01:51:00     -124.575      -34.064      -17.451       10.513       11.785        8.599      110.530      138.893       73.944        0.865        0.016      129.148        3.602        0.001      331.299       -0.775      876.968
01/15/2014  01:52:00      -94.999      -20.751      -10.341       31.970       14.960       15.426     1022.103      223.797      237.968        0.552        0.074       97.239       19.021        0.038      331.261       -0.837      876.965
01/15/2014  01:53:00      -85.193      -27.818       -8.750       13.973       14.490        9.834      195.235      209.972       96.699        0.430        0.025       89.620        7.675        0.007      331.266       -0.830      876.965
01/15/2014  01:54:00      -80.427      -19.756       -5.702       25.328       14.866       12.764      641.498      221.003      162.911        0.396        0.051       82.818       11.592        0.020      331.248       -0.858      876.968
01/15/2014  01:55:00      -68.670      -15.713       -6.485       10.863       13.115       10.835      117.996      172.014      117.394        0.271        0.020       70.445        3.086        0.002      331.194       -0.948      876.969
01/15/2014  01:56:00      -58.976      -16.684       -4.095       26.380       17.541       12.163      695.911      307.691      147.930        0.246        0.058       61.291       13.414        0.048      331.180       -0.971      876.970
01/15/2014  01:57:00      -59.418      -26.002       -7.004       28.207       22.106       12.836      795.627      488.654      164.760        0.285        0.072       64.859       13.189        0.041      331.162       -1.002      876.975
01/15/2014  01:58:00      -66.136      -24.260       -0.942       15.061       17.347       11.659      226.819      300.905      135.934        0.281        0.033       70.445        7.839        0.012      331.151       -1.020      876.981
01/15/2014  01:59:00      -38.173       -8.824       -0.026       25.239       15.071        9.996      637.008      227.140       99.911        0.125        0.048       39.180       10.615        0.073      331.225       -0.897      876.996
01/15/2014  02:00:00      -25.550       -8.818        3.168        8.955        8.165        7.347       80.199       66.667       53.972        0.047        0.010       27.029        3.607        0.018      331.218       -0.908      877.015
01/15/2014  02:01:00      -20.814       -3.440        1.503        7.513        7.584        7.793       56.440       57.519       60.735        0.031        0.009       21.096        5.343        0.064      331.271       -0.821      877.036
01/15/2014  02:02:00       -2.092        7.143       10.633        3.817        7.703        7.602       14.571       59.330       57.797        0.015        0.007        7.443        6.444        0.750      331.210       -0.921      877.050
01/15/2014  02:03:00        7.527        9.798       14.682       12.900       10.328        8.772      166.415      106.660       76.951        0.036        0.018       12.356        8.182        0.439      331.277       -0.812      877.065
01/15/2014  02:04:00       10.379        9.142       14.481        9.938        7.443        6.927       98.756       55.398       47.978        0.030        0.010       13.831        4.520        0.107      331.278       -0.808      877.062
01/15/2014  02:05:00       -1.179        0.958       12.203        8.926        7.640        6.098       79.670       58.362       37.190        0.016        0.009        1.519        2.295        2.284      331.388       -0.628      877.062
01/15/2014  02:06:00       -6.128        1.100       15.064        6.664       15.569        5.702       44.408      242.380       32.512        0.029        0.016        6.226        2.041        0.107      331.426       -0.566      877.063
01/15/2014  02:07:00       12.621       18.117       15.287       11.954        9.226        4.807      142.905       85.110       23.110        0.049        0.013       22.080        2.727        0.015      331.432       -0.556      877.064
01/15/2014  02:08:00       17.845       26.600        0.890        4.752        7.365        4.846       22.577       54.242       23.480        0.056        0.005       32.031        4.525        0.020      331.509       -0.429      877.076
01/15/2014  02:09:00        5.948       41.543       -4.291        4.543        3.796        4.006       20.637       14.410       16.047        0.092        0.003       41.967        1.894        0.002      331.577       -0.320      877.084
01/15/2014  02:10:00        4.488       31.402       -0.891        4.191        7.767        3.155       17.563       60.324        9.954        0.055        0.004       31.721        3.709        0.014      331.703       -0.112      877.094
01/15/2014  02:11:00        3.363       17.848        4.986        2.448        4.220        4.745        5.995       17.809       22.512        0.020        0.002       18.162        3.254        0.032      331.685       -0.138      877.097
01/15/2014  02:12:00        1.647       24.093       -0.977        5.619        4.342        2.731       31.572       18.852        7.461        0.032        0.003       24.149        2.767        0.013      331.662       -0.180      877.110
01/15/2014  02:13:00        7.864       23.915       -2.123        3.749        2.805        1.460       14.053        7.870        2.132        0.033        0.001       25.175        1.087        0.002      331.643       -0.211      877.114
01/15/2014  02:14:00       16.994       29.813       -4.768        7.559        8.834        5.427       57.135       78.037       29.453        0.068        0.008       34.316        2.798        0.007      331.603       -0.276      877.119
01/15/2014  02:15:00       18.102       40.990       -6.288        6.566        7.234        4.356       43.112       52.332       18.971        0.108        0.006       44.809        3.302        0.005      331.600       -0.282      877.122
01/15/2014  02:16:00       19.593       31.541       -6.300       14.531       16.883        8.000      211.161      285.024       64.000        0.099        0.028       37.131        3.914        0.011      331.577       -0.318      877.126
01/15/2014  02:17:00       16.152       31.886       -4.992       14.484       18.230        8.232      209.784      332.334       67.766        0.096        0.030       35.744        7.730        0.047      331.525       -0.405      877.117
01/15/2014  02:18:00       11.128       15.458       -1.474       20.562       17.500       14.103      422.801      306.267      198.906        0.065        0.046       19.047       11.459        0.362      331.551       -0.361      877.117
01/15/2014  02:19:00        9.222       18.477       -7.269       15.154       15.484        8.490      229.633      239.746       72.073        0.051        0.027       20.651        8.874        0.185      331.612       -0.261      877.113
01/15/2014  02:20:00        4.795       -2.360        2.932        7.666        8.185        6.895       58.767       67.002       47.537        0.011        0.009        5.344        3.766        0.497      331.610       -0.264      877.104
01/15/2014  02:21:00       11.343        5.456       -2.194        5.512        4.680        5.022       30.380       21.907       25.222        0.012        0.004       12.588        3.272        0.068      331.597       -0.285      877.099
01/15/2014  02:22:00       -4.048       -2.468        5.124        7.362        4.587        5.559       54.199       21.045       30.905        0.008        0.005        4.741        4.248        0.803      331.453       -0.523      877.095
01/15/2014  02:23:00      -25.715       -5.605       -0.351       13.101       10.071        5.102      171.643      101.416       26.029        0.050        0.015       26.318        3.737        0.020      331.316       -0.749      877.085
01/15/2014  02:24:00      -53.089       -5.704       -5.437        9.159       13.833        7.666       83.888      191.365       58.761        0.161        0.017       53.394        4.312        0.007      331.164       -0.998      877.088
01/15/2014  02:25:00      -59.494       -4.142      -12.888        7.372        7.903        6.215       54.340       62.464       38.632        0.194        0.008       59.638        2.642        0.002      331.067       -1.159      877.097
01/15/2014  02:26:00      -58.727       -9.758      -11.667       10.079        8.999        7.203      101.585       80.985       51.889        0.196        0.012       59.532        6.914        0.013      331.124       -1.063      877.111
01/15/2014  02:27:00      -45.589       -8.758       -5.068        9.975        9.298        7.605       99.498       86.447       57.839        0.121        0.012       46.423        4.583        0.010      331.141       -1.036      877.120
01/15/2014  02:28:00      -52.613      -10.779       -7.629       11.230        9.905        7.951      126.109       98.100       63.224        0.161        0.014       53.706        3.948        0.005      331.175       -0.981      877.121
01/15/2014  02:29:00      -75.198       -5.065      -11.579       12.053        7.452        9.275      145.278       55.525       86.018        0.305        0.014       75.369        4.745        0.004      331.157       -1.008      877.128
01/15/2014  02:30:00      -84.755       -4.233      -13.171       17.754       10.911        9.467      315.196      119.056       89.633        0.395        0.026       84.861        7.646        0.008      331.157       -1.010      877.128
01/15/2014  02:31:00      -91.898      -11.800       -9.724       16.088       14.979       11.673      258.837      224.374      136.255        0.465        0.031       92.652        9.293        0.010      331.125       -1.063      877.125
01/15/2014  02:32:00      -81.847      -29.489       -7.904       12.100       15.238       11.565      146.419      232.193      133.740        0.407        0.026       86.998        2.096        0.001      331.041       -1.200      877.112
01/15/2014  02:33:00      -75.349      -46.406      -14.305       16.950       15.897       10.604      287.293      252.701      112.447        0.434        0.033       88.493        7.887        0.008      330.949       -1.350      877.106
01/15/2014  02:34:00     -113.244      -21.258      -12.432       16.363       16.326       10.696      267.752      266.536      114.409        0.704        0.032      115.222        7.462        0.004      330.900       -1.430      877.088
01/15/2014  02:35:00     -119.438      -18.742       -7.494       22.878       12.859       11.463      523.403      165.357      131.404        0.775        0.041      120.899       12.576        0.011      330.971       -1.315      877.074
01/15/2014  02:36:00     -123.782       -6.467      -16.903       16.562       14.524       13.451      274.294      210.961      180.920        0.816        0.033      123.951        9.982        0.006      331.034       -1.212      877.062
01/15/2014  02:37:00      -84.567       -4.307       -8.632       29.576       16.510       15.539      874.766      272.578      241.461        0.432        0.069       84.676       13.855        0.027      331.015       -1.243      877.050
01/15/2014  02:38:00      -30.604       -5.216        4.378       21.636       20.154       16.543      468.118      406.194      273.655        0.107        0.057       31.045       13.389        0.186      330.960       -1.334      877.047
01/15/2014  02:39:00      -62.387      -27.472       -7.847       13.856       21.873       12.073      191.976      478.438      145.768        0.276        0.041       68.168        8.268        0.015      330.907       -1.418      877.037
01/15/2014  02:40:00      -63.648      -44.898       -4.620       14.493       19.191       12.111      210.039      368.297      146.669        0.341        0.036       77.891       10.464        0.018      330.881       -1.460      877.033
01/15/2014  02:41:00      -38.426      -21.829       -0.759       21.981       16.189       14.608      483.168      262.090      213.392        0.146        0.048       44.193       15.006        0.115      330.980       -1.300      877.026
01/15/2014  02:42:00      -36.566      -11.029       -6.340       15.904       18.977       10.637      252.948      360.131      113.147        0.111        0.036       38.193        4.326        0.013      331.033       -1.213      877.012
01/15/2014  02:43:00      -56.354      -24.034      -14.136       15.067       14.471        8.939      227.019      209.396       79.910        0.223        0.026       61.265        3.055        0.002      331.098       -1.107      877.007
01/15/2014  02:44:00      -48.328      -24.686       -6.953       15.757       15.141       11.046      248.299      229.254      122.008        0.180        0.030       54.268        6.968        0.016      331.098       -1.106      877.000
01/15/2014  02:45:00      -70.231      -16.784       -6.923       28.569       15.816       11.483      816.191      250.161      131.861        0.323        0.060       72.209       11.618        0.026      331.089       -1.122      876.994
01/15/2014  02:46:00      -71.162      -22.369       -5.477       19.896       17.109        8.791      395.859      292.722       77.285        0.318        0.038       74.595        7.528        0.010      331.056       -1.176      876.988
01/15/2014  02:47:00      -65.111      -19.360       -2.853       16.122       18.247       10.537      259.923      332.969      111.028        0.266        0.035       67.929        7.381        0.012      331.042       -1.198      876.990
01/15/2014  02:48:00      -45.609       -9.829       -3.507       23.869       20.712       13.717      569.713      428.978      188.165        0.169        0.059       46.656       11.616        0.062      331.034       -1.213      876.989
01/15/2014  02:49:00      -57.404      -20.685       -1.689       24.907       23.313       10.680      620.358      543.485      114.055        0.250        0.064       61.017        5.793        0.009      331.047       -1.191      876.983
01/15/2014  02:50:00      -63.767      -26.554       -4.687       19.076       23.943       15.266      363.888      573.286      233.063        0.298        0.059       69.075       11.230        0.026      331.098       -1.106      876.972
01/15/2014  02:51:00      -75.575        0.602       -6.484       22.177       15.658       14.953      491.816      245.180      223.592        0.336        0.048       75.578       13.617        0.032      331.061       -1.167      876.962
01/15/2014  02:52:00      -76.814       -3.113      -11.229       17.323       13.701       13.770      300.082      187.713      189.608        0.336        0.034       76.877        9.494        0.015      331.151       -1.020      876.949
01/15/2014  02:53:00      -63.034       -9.441      -10.491       10.674       14.148        8.766      113.937      200.176       76.848        0.228        0.020       63.737        5.003        0.006      331.057       -1.174      876.944
01/15/2014  02:54:00      -64.037      -16.982      -10.294       12.638        8.260        7.857      159.723       68.231       61.735        0.239        0.014       66.250        4.943        0.006      330.984       -1.293      876.946
01/15/2014  02:55:00      -52.209      -18.562      -11.493       11.191        9.892        9.234      125.229       97.843       85.272        0.176        0.015       55.410        5.100        0.008      331.032       -1.214      876.943
01/15/2014  02:56:00      -53.693      -21.424       -8.222        7.410        9.570        5.424       54.906       91.576       29.415        0.179        0.009       57.809        3.965        0.005      331.046       -1.192      876.948
01/15/2014  02:57:00      -57.842      -16.647       -9.409        8.943        7.014        5.007       79.980       49.192       25.068        0.193        0.008       60.190        1.826        0.001      330.984       -1.294      876.958
01/15/2014  02:58:00      -76.367      -12.505       -8.875        7.697        8.605        6.472       59.245       74.049       41.893        0.312        0.009       77.384        5.776        0.006      331.032       -1.214      876.960
01/15/2014  02:59:00      -80.823      -13.855      -13.204        8.118        6.996        6.262       65.899       48.942       39.209        0.353        0.008       82.002        4.182        0.003      330.981       -1.297      876.958
01/15/2014  03:00:00      -90.310        1.535      -10.358       22.580       13.725       10.471      509.860      188.378      109.640        0.454        0.040       90.323        7.963        0.008      330.973       -1.311      876.950
01/15/2014  03:01:00     -100.772        2.232      -15.831       15.442       12.169       10.716      238.446      148.094      114.832        0.546        0.025      100.796        7.276        0.005      331.004       -1.261      876.944
01/15/2014  03:02:00      -70.859      -27.246       -4.416       21.502       22.444       16.517      462.343      503.745      272.800        0.351        0.062       75.917       13.634        0.032      330.877       -1.468      876.934
01/15/2014  03:03:00      -81.599      -10.834      -11.664       16.678       19.877       13.789      278.150      395.106      190.135        0.389        0.043       82.315        9.457        0.013      330.774       -1.639      876.915
01/15/2014  03:04:00     -103.052        3.556       -8.124       34.882       29.171       19.388     1216.722      850.949      375.897        0.657        0.122      103.113       17.849        0.030      330.741       -1.692      876.894
01/15/2014  03:05:00      -76.159        1.026       -2.034       38.451       28.121       20.422     1478.459      790.807      417.068        0.425        0.134       76.166       17.281        0.051      330.761       -1.660      876.880
01/15/2014  03:06:00      -77.143       -1.078        0.620       40.605       44.156       27.530     1648.751     1949.733      757.920        0.515        0.218       77.150       24.677        0.102      330.807       -1.583      876.868
01/15/2014  03:07:00      -97.793      -24.506       -4.579       29.882       33.629       19.358      892.913     1130.887      374.732        0.629        0.120      100.817       14.139        0.020      330.824       -1.556      876.850
01/15/2014  03:08:00      -62.534      -23.059        9.359       40.732       35.406       25.269     1659.124     1253.584      638.507        0.404        0.178       66.650       22.720        0.116      330.765       -1.654      876.833
01/15/2014  03:09:00      -49.009        3.771       -1.657       36.402       30.281       19.049     1325.081      916.962      362.847        0.251        0.130       49.154       17.969        0.134      330.721       -1.726      876.824
01/15/2014  03:10:00      -85.492       13.190      -11.850       44.974       40.778       36.289     2022.632     1662.851     1316.866        0.631        0.250       86.504       16.626        0.037      330.708       -1.746      876.822
01/15/2014  03:11:00     -120.158       18.929      -14.195       51.296       38.352       23.785     2631.266     1470.878      565.715        0.983        0.233      121.640       18.011        0.022      330.675       -1.800      876.832
01/15/2014  03:12:00     -123.314        5.994      -18.319       43.858       38.219       19.562     1923.567     1460.692      382.661        0.967        0.188      123.460       17.210        0.019      330.664       -1.819      876.839
01/15/2014  03:13:00     -103.822       -8.638       -9.743       51.777       40.708       27.936     2680.895     1657.178      780.448        0.803        0.256      104.180       27.927        0.072      330.680       -1.792      876.830
01/15/2014  03:14:00      -74.037      -25.639      -11.758       46.367       39.785       21.685     2149.922     1582.875      470.240        0.524        0.210       78.351       23.605        0.091      330.673       -1.804      876.812
01/15/2014  03:15:00      -34.423      -42.704      -12.312       53.113       22.406       27.621     2821.012      502.048      762.918        0.362        0.204       54.851       33.351        0.370      330.743       -1.689      876.782
01/15/2014  03:16:00        3.626      -14.959       10.758       19.351       17.000       17.016      374.447      289.007      289.540        0.065        0.048       15.392        6.384        0.172      330.649       -1.843      876.760
01/15/2014  03:17:00      -55.068      -23.321      -11.087       26.684       19.321       14.062      712.041      373.293      197.750        0.249        0.064       59.802        9.580        0.026      330.641       -1.856      876.757
01/15/2014  03:18:00      -44.953      -41.361      -10.534       23.296       24.693       10.815      542.716      609.728      116.958        0.256        0.063       61.086        5.502        0.008      330.704       -1.752      876.749
01/15/2014  03:19:00      -86.756      -12.306      -20.134       15.475       19.497       14.672      239.483      380.138      215.258        0.446        0.042       87.625       14.587        0.028      330.773       -1.639      876.731
01/15/2014  03:20:00      -89.150       -9.191      -17.518       14.737       20.996       15.562      217.170      440.849      242.187        0.462        0.045       89.622       10.863        0.015      330.878       -1.466      876.717
01/15/2014  03:21:00      -99.264       -1.675       -7.531       21.835       19.686        9.815      476.760      387.545       96.327        0.544        0.048       99.278        8.511        0.007      330.878       -1.467      876.724
01/15/2014  03:22:00      -58.980      -27.803       -2.406       21.241       20.848       14.010      451.162      434.629      196.271        0.267        0.054       65.204       11.811        0.033      330.875       -1.473      876.729
01/15/2014  03:23:00      -36.639      -32.221       -2.410       34.707       13.402       17.207     1204.579      179.609      296.079        0.203        0.084       48.792       17.320        0.126      330.941       -1.364      876.716
01/15/2014  03:24:00      -89.747      -28.590       -5.240       18.814       17.957       11.948      353.955      322.462      142.759        0.486        0.041       94.191        6.590        0.005      330.882       -1.461      876.705
01/15/2014  03:25:00      -96.517      -26.328      -11.824       20.424       15.050       14.500      417.128      226.504      210.249        0.550        0.043      100.043        9.007        0.008      330.861       -1.495      876.702
01/15/2014  03:26:00     -115.406      -26.066      -14.482       13.009       15.258       12.408      169.230      232.794      153.967        0.738        0.028      118.313        9.935        0.007      330.818       -1.566      876.688
01/15/2014  03:27:00     -115.410      -11.060      -15.320       24.973       14.979       12.370      623.658      224.359      153.016        0.734        0.050      115.939       13.015        0.013      330.823       -1.558      876.669
01/15/2014  03:28:00     -125.635      -16.694      -16.187       15.467       13.651       13.060      239.213      186.352      170.558        0.846        0.030      126.739       10.479        0.007      330.820       -1.563      876.656
01/15/2014  03:29:00     -144.075      -16.207      -16.265       19.572       15.603       12.948      383.071      243.469      167.640        1.104        0.040      144.984       11.843        0.007      330.845       -1.521      876.642
01/15/2014  03:30:00     -153.679      -18.893      -19.687       12.812       14.813        9.569      164.143      219.421       91.562        1.242        0.024      154.836        5.558        0.001      330.827       -1.551      876.629
01/15/2014  03:31:00     -130.437      -24.612      -14.244       17.372       17.094       13.961      301.776      292.218      194.913        0.931        0.039      132.739        9.611        0.005      330.790       -1.611      876.635
01/15/2014  03:32:00     -128.164      -27.198      -20.225       24.874       14.317       15.226      618.721      204.980      231.840        0.931        0.053      131.018       14.378        0.012      330.793       -1.605      876.642
01/15/2014  03:33:00     -128.175      -16.811      -21.343       12.791       13.707       13.082      163.609      187.878      171.151        0.884        0.026      129.272        5.616        0.002      330.773       -1.640      876.648
01/15/2014  03:34:00     -105.595      -10.298      -10.473       33.931       22.970       18.972     1151.336      527.628      359.933        0.670        0.102      106.096       16.539        0.024      330.723       -1.723      876.639
01/15/2014  03:35:00     -170.723       -1.721      -16.725       34.505       16.032       17.450     1190.578      257.033      304.511        1.559        0.088      170.731       15.827        0.009      330.736       -1.700      876.633
01/15/2014  03:36:00     -184.065      -24.989      -17.019       28.581       30.657       20.610      816.872      939.878      424.771        1.849        0.109      185.753       15.517        0.007      330.748       -1.680      876.620
01/15/2014  03:37:00     -133.023      -53.069      -13.045       24.513       26.035       16.208      600.883      677.831      262.690        1.111        0.077      143.218       10.648        0.006      330.574       -1.966      876.600
01/15/2014  03:38:00     -118.846      -40.619      -12.905       26.931       34.061       18.581      725.286     1160.136      345.257        0.909        0.112      125.596       18.555        0.022      330.632       -1.870      876.594
01/15/2014  03:39:00     -106.828      -36.879       -6.395       27.489       27.228       15.736      755.640      741.373      247.612        0.728        0.087      113.014       11.121        0.010      330.621       -1.889      876.582
01/15/2014  03:40:00      -93.914      -52.321       -9.555       28.937       31.804       18.738      837.334     1011.476      351.109        0.692        0.110      107.505       18.218        0.029      330.613       -1.901      876.569
01/15/2014  03:41:00      -59.589      -40.323       -0.406       41.238       25.362       24.120     1700.567      643.211      581.769        0.405        0.146       71.950       21.808        0.092      330.633       -1.869      876.558
01/15/2014  03:42:00      -56.421      -40.974       -7.706       38.044       34.552       24.712     1447.370     1193.833      610.685        0.409        0.163       69.730       23.250        0.111      330.670       -1.809      876.542
01/15/2014  03:43:00      -89.165      -69.997       -3.297       38.096       35.416       25.103     1451.321     1254.306      630.163        0.810        0.167      113.358       21.131        0.035      330.632       -1.870      876.523
01/15/2014  03:44:00     -108.519      -16.383       -4.755       33.669       31.034       18.752     1133.607      963.128      351.655        0.726        0.122      109.749       15.446        0.020      330.579       -1.957      876.512
01/15/2014  03:45:00     -114.638      -35.880       -3.604       27.471       28.140       16.746      754.640      791.842      280.430        0.813        0.091      120.121       12.809        0.011      330.594       -1.934      876.503
01/15/2014  03:46:00     -135.064      -17.687      -16.762       34.482       17.297       13.836     1189.001      299.177      191.429        1.026        0.084      136.217        7.609        0.003      330.559       -1.991      876.501
01/15/2014  03:47:00      -72.360      -48.056      -10.768       30.500       26.354       20.471      930.247      694.555      419.053        0.485        0.102       86.864       16.486        0.036      330.608       -1.909      876.514
01/15/2014  03:48:00      -59.344      -30.693       -0.882       34.068       26.782       15.516     1160.614      717.302      240.740        0.329        0.106       66.812       15.754        0.056      330.682       -1.789      876.520
01/15/2014  03:49:00      -22.352      -28.702       -4.123       34.838       20.813       22.299     1213.717      433.187      497.264        0.174        0.107       36.379       14.700        0.163      330.613       -1.901      876.519
01/15/2014  03:50:00      -72.743      -13.426       -7.662       33.685       16.059       16.369     1134.702      257.905      267.945        0.360        0.083       73.972       13.077        0.031      330.625       -1.882      876.525
01/15/2014  03:51:00      -64.086       -9.505       -9.102       31.125       17.344       18.469      968.756      300.817      341.118        0.295        0.081       64.787       18.241        0.079      330.581       -1.954      876.542
01/15/2014  03:52:00      -62.725      -25.620       -9.218       15.537       21.012       14.092      241.403      441.491      198.583        0.278        0.044       67.755       11.200        0.027      330.597       -1.929      876.557
01/15/2014  03:53:00      -85.934      -29.375      -15.359       18.970       23.557       11.574      359.855      554.940      133.966        0.477        0.052       90.816       11.415        0.016      330.616       -1.898      876.575
01/15/2014  03:54:00      -90.613      -28.729       -7.747       14.516       20.646       15.631      210.712      426.255      244.320        0.499        0.044       95.058        5.637        0.004      330.677       -1.798      876.579
01/15/2014  03:55:00      -90.454      -25.072       -4.121       20.729       20.101       14.699      429.706      404.067      216.059        0.494        0.052       93.865       10.182        0.012      330.636       -1.865      876.577
01/15/2014  03:56:00      -61.100      -14.384       -2.336       24.506       16.132       13.958      600.552      260.245      194.818        0.250        0.053       62.770       14.924        0.057      330.620       -1.891      876.572
01/15/2014  03:57:00      -50.524      -30.400       -5.125       19.214       14.080       10.710      369.178      198.258      114.704        0.209        0.034       58.965        8.307        0.020      330.744       -1.686      876.587
01/15/2014  03:58:00      -68.221      -22.570       -3.866       14.395        8.097        7.848      207.222       65.558       61.584        0.276        0.017       71.858        5.186        0.005      330.728       -1.713      876.595
01/15/2014  03:59:00      -74.122      -33.492       -7.421        7.564        8.654        6.265       57.215       74.889       39.249        0.342        0.009       81.337        3.497        0.002      330.746       -1.685      876.590
01/15/2014  04:00:00      -61.272      -26.551       -8.358        8.887        9.071        8.028       78.973       82.290       64.452        0.238        0.011       66.778        4.177        0.004      330.782       -1.625      876.582
01/15/2014  04:01:00      -59.642       -9.308       -4.394       15.350       10.117        7.784      235.607      102.362       60.592        0.203        0.020       60.364        6.397        0.011      330.799       -1.599      876.578
01/15/2014  04:02:00      -81.776        3.075      -10.260       11.261        8.832        6.915      126.805       78.006       47.817        0.353        0.013       81.834        4.069        0.002      330.782       -1.626      876.578
01/15/2014  04:03:00      -91.527       12.867      -11.907       12.779       11.359        9.046      163.313      129.032       81.839        0.453        0.019       92.427        5.056        0.003      330.715       -1.734      876.587
01/15/2014  04:04:00      -92.553        3.982      -13.365       16.766       11.518        9.444      281.103      132.659       89.195        0.463        0.025       92.638        6.658        0.005      330.707       -1.748      876.600
01/15/2014  04:05:00      -56.134       -9.467      -15.173        7.617       12.166        8.063       58.015      148.023       65.018        0.187        0.014       56.926        5.041        0.008      330.661       -1.822      876.606
01/15/2014  04:06:00      -39.998       -9.497       -5.641       10.016       11.334        9.018      100.322      128.454       81.321        0.102        0.016       41.110        8.381        0.042      330.646       -1.847      876.611
01/15/2014  04:07:00      -18.630      -13.847       -3.380        6.205        6.379        4.260       38.505       40.692       18.146        0.032        0.005       23.212        2.905        0.016      330.707       -1.748      876.627
01/15/2014  04:08:00       -6.336       -7.649       -3.099       15.136        8.038        5.083      229.094       64.615       25.841        0.021        0.016        9.932        3.086        0.097      330.768       -1.648      876.643
01/15/2014  04:09:00        9.308       14.524        9.118       20.650       14.012       10.096      426.428      196.329      101.931        0.055        0.036       17.251        6.104        0.125      330.930       -1.381      876.647
01/15/2014  04:10:00       22.885       18.635       -1.119       12.319       16.477        9.642      151.756      271.496       92.975        0.069        0.026       29.512        8.312        0.079      331.028       -1.222      876.653
01/15/2014  04:11:00       23.968       19.851       -0.914        7.960       11.778        7.800       63.366      138.713       60.837        0.062        0.013       31.121        8.099        0.068      330.957       -1.336      876.639
01/15/2014  04:12:00       27.158       23.371        2.116        9.383        9.494        7.590       88.043       90.140       57.612        0.076        0.012       35.830        7.109        0.039      330.886       -1.453      876.646
01/15/2014  04:13:00       31.234       22.308       -1.411        9.715        9.816        8.522       94.387       96.347       72.622        0.087        0.013       38.382        5.806        0.023      330.933       -1.375      876.659
01/15/2014  04:14:00       29.116       26.233       -0.642       12.951       12.613        9.340      167.718      159.088       87.244        0.098        0.021       39.190        9.223        0.055      330.995       -1.275      876.676
01/15/2014  04:15:00       27.535       29.933       -1.786       13.595       12.431        7.335      184.818      154.519       53.800        0.103        0.020       40.671        5.799        0.020      331.017       -1.239      876.689
01/15/2014  04:16:00       25.595       55.308       -6.813        9.348       10.755        8.610       87.386      115.660       74.136        0.202        0.014       60.943        5.382        0.008      331.049       -1.187      876.713
01/15/2014  04:17:00       15.262       51.738       -3.927       13.341       15.881        8.711      177.977      252.202       75.876        0.172        0.025       53.942        4.275        0.006      331.079       -1.138      876.715
01/15/2014  04:18:00       18.653       28.502       -2.978       14.824       12.950        8.207      219.752      167.696       67.360        0.081        0.023       34.063        7.038        0.043      331.124       -1.064      876.700
01/15/2014  04:19:00       33.163       13.579        4.128       13.509       15.390       10.928      182.505      236.864      119.428        0.092        0.027       35.835        6.530        0.033      331.145       -1.029      876.691
01/15/2014  04:20:00        9.157        2.684        4.939       10.913        7.287        7.262      119.093       53.099       52.741        0.017        0.011        9.542        6.120        0.411      331.002       -1.263      876.684
01/15/2014  04:21:00       -8.922        2.229        0.459        5.613        5.205        3.417       31.501       27.095       11.674        0.008        0.004        9.196        1.201        0.017      330.990       -1.283      876.675
01/15/2014  04:22:00      -31.400       -0.576       -4.449        6.569        4.572        4.581       43.148       20.899       20.981        0.055        0.004       31.405        2.068        0.004      330.814       -1.573      876.662
01/15/2014  04:23:00      -46.812       -7.194       -7.804        7.639        6.241        6.707       58.355       38.950       44.990        0.122        0.007       47.361        4.012        0.007      330.590       -1.941      876.647
01/15/2014  04:24:00      -53.566       -7.267       -9.536        6.665        8.595        6.987       44.423       73.879       48.813        0.159        0.008       54.056        5.278        0.010      330.587       -1.944      876.640
01/15/2014  04:25:00      -60.538      -16.196      -10.288       10.548       11.062        8.247      111.263      122.364       68.016        0.217        0.015       62.667        5.003        0.006      330.554       -1.998      876.643
01/15/2014  04:26:00      -73.002      -18.318      -12.570        8.142       10.000        7.407       66.285       99.992       54.859        0.302        0.011       75.266        4.053        0.003      330.632       -1.870      876.649
01/15/2014  04:27:00      -71.054      -29.335      -13.246       16.555        8.356        6.639      274.071       69.819       44.081        0.324        0.019       76.871        6.447        0.007      330.706       -1.749      876.646
01/15/2014  04:28:00      -58.696      -20.307       -8.628        8.573       10.788        7.468       73.499      116.384       55.769        0.209        0.012       62.110        5.841        0.009      330.604       -1.916      876.640
01/15/2014  04:29:00      -72.319       -5.560      -14.935        8.345        9.640        7.505       69.642       92.924       56.318        0.285        0.011       72.533        3.317        0.002      330.591       -1.940      876.631
01/15/2014  04:30:00      -70.654       -6.796      -10.733        8.739        9.633        8.543       76.376       92.787       72.986        0.270        0.012       70.980        5.904        0.007      330.600       -1.922      876.629
01/15/2014  04:31:00      -89.351      -11.736      -14.242       11.163        7.083        6.681      124.621       50.167       44.636        0.427        0.011       90.118        4.272        0.002      330.557       -1.993      876.625
01/15/2014  04:32:00      -89.976      -22.689      -12.725        8.441       11.203        8.054       71.248      125.513       64.867        0.452        0.013       92.793        2.485        0.001      330.501       -2.086      876.627
01/15/2014  04:33:00      -95.928      -24.890       -7.603       11.659       10.178       10.623      135.933      103.600      112.854        0.512        0.018       99.105        7.821        0.006      330.517       -2.059      876.651
01/15/2014  04:34:00      -64.587      -27.821       -2.460       16.150        9.922        7.365      260.835       98.444       54.240        0.268        0.021       70.324        4.280        0.004      330.599       -1.924      876.684
01/15/2014  04:35:00      -16.277      -17.418        5.257        9.908        9.623        7.035       98.164       92.612       49.495        0.042        0.012       23.839        4.873        0.042      330.621       -1.889      876.719
01/15/2014  04:36:00      -27.525      -20.086        5.343       15.985        9.241        9.889      255.512       85.387       97.783        0.081        0.022       34.074       10.058        0.087      330.703       -1.755      876.748
01/15/2014  04:37:00      -59.944      -16.852      -10.381        9.471       14.428        9.616       89.700      208.161       92.461        0.219        0.020       62.268        7.988        0.016      330.760       -1.662      876.758
01/15/2014  04:38:00      -57.170       -9.726      -10.432       11.309        8.670        7.645      127.896       75.161       58.451        0.187        0.013       57.992        4.732        0.007      330.629       -1.877      876.759
01/15/2014  04:39:00      -65.499       -6.131       -9.679       13.884       12.370        9.415      192.774      153.008       88.642        0.243        0.022       65.786        8.687        0.017      330.623       -1.885      876.747
01/15/2014  04:40:00      -78.573       -2.717       -9.215       19.288       14.334       12.324      372.022      205.462      151.892        0.350        0.036       78.620       11.240        0.020      330.692       -1.773      876.735
01/15/2014  04:41:00     -115.900       -8.866      -13.349       23.944       13.309       12.573      573.324      177.136      158.073        0.730        0.045      116.239       11.321        0.009      330.621       -1.888      876.722
01/15/2014  04:42:00     -106.602      -34.173      -12.012       18.483       18.756       11.950      341.623      351.772      142.807        0.676        0.042      111.945        7.550        0.005      330.569       -1.973      876.709
01/15/2014  04:43:00      -74.425      -37.018       -8.656       24.404       16.333       13.553      595.541      266.763      183.681        0.401        0.052       83.123       10.812        0.017      330.300       -2.416      876.705
01/15/2014  04:44:00     -106.813      -28.683       -4.237       20.887       21.022       14.751      436.271      441.939      217.595        0.667        0.055      110.597        4.594        0.002      330.387       -2.274      876.717
01/15/2014  04:45:00      -85.374      -37.821       -9.319       22.396       18.160       13.183      501.596      329.789      173.785        0.491        0.050       93.376        8.180        0.008      330.287       -2.437      876.726
01/15/2014  04:46:00     -101.257      -31.278      -10.509       13.460       13.484        9.706      181.169      181.822       94.208        0.590        0.023      105.978        6.112        0.003      330.223       -2.543      876.737
01/15/2014  04:47:00     -143.056      -18.999      -15.818       16.679       14.725       10.332      278.188      216.834      106.758        1.084        0.030      144.312        6.042        0.002      330.275       -2.456      876.741
01/15/2014  04:48:00     -122.575      -23.956      -10.975       16.797       15.234       12.684      282.154      232.082      160.888        0.820        0.034      124.894        8.572        0.005      330.309       -2.400      876.738
01/15/2014  04:49:00     -124.431      -22.691      -12.840       18.262       13.054       11.289      333.483      170.410      127.433        0.840        0.032      126.483        6.500        0.003      330.312       -2.396      876.725
01/15/2014  04:50:00     -115.959      -21.710      -13.108       20.737       13.595       14.897      430.026      184.825      221.930        0.746        0.042      117.974       10.315        0.008      330.379       -2.287      876.711
01/15/2014  04:51:00      -95.169      -24.667       -3.595       17.742       16.190        9.181      314.788      262.114       84.290        0.517        0.033       98.313        6.640        0.005      330.389       -2.269      876.704
01/15/2014  04:52:00      -89.261      -19.840       -2.518       21.528       17.069       12.840      463.448      291.363      164.877        0.464        0.046       91.439       10.903        0.014      330.325       -2.374      876.703
01/15/2014  04:53:00      -77.879      -16.706       -0.332       22.769       16.158       13.151      518.440      261.070      172.947        0.365        0.048       79.651       11.945        0.022      330.400       -2.251      876.699
01/15/2014  04:54:00      -63.639      -19.494        2.728       23.068       16.351       14.705      532.137      267.366      216.242        0.273        0.051       66.557       10.023        0.023      330.395       -2.261      876.703
01/15/2014  04:55:00      -61.312      -14.771        4.744       27.059       20.840       14.364      732.175      434.317      206.314        0.269        0.069       63.066       13.270        0.044      330.422       -2.215      876.696
01/15/2014  04:56:00      -93.133      -17.505        0.339       32.439       19.259       15.404     1052.272      370.924      237.294        0.532        0.083       94.763       16.049        0.029      330.427       -2.207      876.688
01/15/2014  04:57:00     -108.567      -14.098       -9.819       29.419       17.034       17.354      865.460      290.168      301.165        0.677        0.073      109.478       12.583        0.013      330.445       -2.178      876.674
01/15/2014  04:58:00     -102.088      -15.862       -7.337       24.614       21.478       13.756      605.872      461.309      189.220        0.599        0.063      103.313       11.784        0.013      330.327       -2.372      876.657
01/15/2014  04:59:00     -119.762      -14.111      -13.376       23.762       13.905       13.877      564.650      193.347      192.562        0.784        0.048      120.590       14.435        0.014      330.379       -2.286      876.652
01/15/2014  05:00:00     -103.747      -18.164       -8.282       30.558       25.500       18.619      933.795      650.271      346.679        0.655        0.097      105.325       15.194        0.021      330.277       -2.453      876.647
01/15/2014  05:01:00      -90.717       -6.630       -0.507       34.828       24.975       17.930     1212.956      623.726      321.467        0.522        0.108       90.959       20.177        0.049      330.242       -2.510      876.649
01/15/2014  05:02:00      -65.000       -4.783        0.784       36.247       22.876       19.565     1313.815      523.319      382.787        0.323        0.111       65.175       22.536        0.120      330.232       -2.527      876.662
01/15/2014  05:03:00      -75.519      -30.033       -5.831       21.443       19.122       12.621      459.805      365.637      159.279        0.381        0.049       81.272        9.348        0.013      330.211       -2.561      876.673
01/15/2014  05:04:00      -89.350      -27.846      -13.732       20.739       13.435        9.030      430.090      180.511       81.550        0.482        0.035       93.588        5.716        0.004      330.257       -2.487      876.677
01/15/2014  05:05:00      -90.494      -38.070      -14.191       20.342       13.869       11.190      413.805      192.359      125.224        0.529        0.037       98.176        8.664        0.008      330.304       -2.408      876.684
01/15/2014  05:06:00      -93.571      -52.364      -15.166       14.015       15.448       12.849      196.411      238.647      165.089        0.616        0.030      107.226        7.694        0.005      330.347       -2.339      876.695
01/15/2014  05:07:00      -96.054      -46.884       -8.362       30.409       24.529       14.899      924.682      601.663      221.995        0.662        0.087      106.886        8.990        0.007      330.406       -2.240      876.693
01/15/2014  05:08:00     -101.850      -21.303       -3.666       25.772       19.656       12.126      664.195      386.369      147.036        0.602        0.060      104.054       12.256        0.014      330.495       -2.096      876.695
01/15/2014  05:09:00      -71.327      -42.015       -2.091       26.953       19.958       15.810      726.443      398.314      249.942        0.412        0.069       82.782        9.706        0.014      330.464       -2.148      876.690
01/15/2014  05:10:00      -77.104      -65.402       -0.038       36.171       25.379       20.414     1308.352      644.084      416.712        0.630        0.118      101.107       10.517        0.011      330.469       -2.138      876.691
01/15/2014  05:11:00     -140.174      -83.639       -8.655       41.371       29.992       27.459     1711.539      899.502      754.002        1.504        0.168      163.231       14.110        0.007      330.665       -1.816      876.688
01/15/2014  05:12:00     -117.833      -84.083       -2.732       47.358       37.885       26.636     2242.750     1435.275      709.461        1.267        0.219      144.757       25.812        0.032      330.612       -1.903      876.692
01/15/2014  05:13:00     -125.432     -119.401      -13.237       50.343       38.043       26.842     2534.439     1447.243      720.488        1.743        0.235      173.176       24.974        0.021      330.662       -1.822      876.703
01/15/2014  05:14:00     -125.457     -101.390      -13.469       34.638       36.737       21.454     1199.792     1349.644      460.260        1.460        0.150      161.306       13.251        0.007      330.644       -1.852      876.713
01/15/2014  05:15:00     -108.997      -60.208       -2.834       53.340       30.176       19.277     2845.159      910.605      371.595        0.982        0.206      124.520       15.924        0.016      330.630       -1.874      876.708
01/15/2014  05:16:00     -110.318      -53.934       -6.477       24.715       24.867       17.370      610.853      618.373      301.723        0.833        0.077      122.796       12.761        0.011      330.554       -1.998      876.699
01/15/2014  05:17:00      -82.164      -41.811        1.111       29.357       17.720       15.479      861.815      314.002      239.599        0.496        0.071       92.190       13.721        0.022      330.549       -2.007      876.688
01/15/2014  05:18:00      -66.162      -37.396        2.407       24.014       16.330       13.503      576.685      266.674      182.331        0.340        0.051       75.999       11.164        0.022      330.524       -2.048      876.688
01/15/2014  05:19:00      -76.378      -32.302      -10.090       11.612       10.326        6.638      134.837      106.624       44.057        0.363        0.014       82.927        1.543        0.000      330.524       -2.048      876.704
01/15/2014  05:20:00      -69.312      -18.976       -7.081       16.260       13.720       10.499      264.374      188.242      110.229        0.289        0.028       71.863        8.350        0.014      330.556       -1.995      876.721
01/15/2014  05:21:00      -61.016       -4.688       -2.656       25.337       12.416       10.233      641.969      154.166      104.724        0.233        0.045       61.196       12.135        0.039      330.541       -2.021      876.730
01/15/2014  05:22:00      -44.409      -11.208        2.552       22.224       13.639       11.585      493.915      186.014      134.208        0.146        0.041       45.802       10.850        0.056      330.525       -2.048      876.715
01/15/2014  05:23:00      -46.861       -7.948        2.370       19.218       14.182       13.554      369.345      201.139      183.717        0.151        0.038       47.531       10.848        0.052      330.528       -2.040      876.700
01/15/2014  05:24:00      -57.065      -17.044       -1.909       16.705       16.985        9.845      279.041      288.487       96.918        0.211        0.033       59.556        3.979        0.004      330.615       -1.899      876.690
01/15/2014  05:25:00      -50.746      -30.748       -6.218        9.666       11.826        7.661       93.423      139.849       58.696        0.193        0.015       59.334        3.323        0.003      330.690       -1.775      876.698
01/15/2014  05:26:00      -54.192      -24.237       -3.175        7.815        6.954        4.829       61.074       48.361       23.319        0.183        0.007       59.365        2.595        0.002      330.718       -1.729      876.700
01/15/2014  05:27:00      -44.819       -7.004       -5.834        7.695        8.141        5.249       59.217       66.277       27.553        0.112        0.008       45.363        3.276        0.005      330.680       -1.791      876.709
01/15/2014  05:28:00      -31.146       -2.316       -0.719        8.994        5.961        4.340       80.896       35.535       18.835        0.056        0.007       31.232        3.158        0.010      330.716       -1.732      876.723
01/15/2014  05:29:00      -14.761       -8.840       -0.043        6.105        6.978        2.984       37.274       48.692        8.903        0.020        0.005       17.205        3.060        0.032      330.733       -1.706      876.735
01/15/2014  05:30:00       13.621       15.864        6.302       11.049        9.335       11.599      122.080       87.138      134.543        0.041        0.017       20.909        5.913        0.080      330.752       -1.674      876.747
01/15/2014  05:31:00       30.831       30.051        4.242        7.462       10.852       12.023       55.678      117.774      144.564        0.109        0.016       43.054        7.852        0.033      330.605       -1.913      876.753
01/15/2014  05:32:00       32.938       21.139        0.033       11.762        8.505        7.047      138.335       72.339       49.665        0.090        0.013       39.138        5.240        0.018      330.606       -1.914      876.741
01/15/2014  05:33:00       31.885       24.897       -4.474       11.249       14.127       11.053      126.545      199.562      122.158        0.105        0.022       40.454        8.923        0.049      330.431       -2.200      876.722
01/15/2014  05:34:00       20.931       79.952      -15.392        9.500       21.773        9.066       90.252      474.046       82.195        0.386        0.032       82.647        8.871        0.012      330.383       -2.280      876.699
01/15/2014  05:35:00       18.224       77.571      -13.543       10.409       16.003        5.575      108.357      256.088       31.079        0.346        0.020       79.683        4.075        0.003      330.359       -2.319      876.685
01/15/2014  05:36:00       17.063       35.380       -0.706       13.042       19.271       12.836      170.083      371.385      164.750        0.112        0.035       39.280       13.585        0.120      330.409       -2.239      876.695
01/15/2014  05:37:00       29.386       35.609       -3.782        9.723       13.131       11.835       94.545      172.436      140.061        0.128        0.020       46.169        8.404        0.033      330.407       -2.241      876.703
01/15/2014  05:38:00       36.815       41.066       -4.216       14.167       14.118       10.762      200.707      199.318      115.811        0.179        0.026       55.152        9.110        0.027      330.377       -2.289      876.718
01/15/2014  05:39:00       45.259       27.385        4.947       18.657       14.380       12.795      348.097      206.795      163.703        0.177        0.036       52.899       13.993        0.070      330.345       -2.341      876.729
01/15/2014  05:40:00       37.550       26.860        0.790       13.286       10.464        9.666      176.528      109.494       93.424        0.126        0.019       46.168        7.193        0.024      330.367       -2.307      876.732
01/15/2014  05:41:00       20.276       15.200       -2.268        5.055        8.407        4.560       25.553       70.669       20.795        0.038        0.006       25.340        3.238        0.016      330.413       -2.231      876.742
01/15/2014  05:42:00       13.913       34.201       -3.754        5.592       12.437        6.119       31.266      154.671       37.439        0.080        0.011       36.922        5.383        0.021      330.580       -1.955      876.749
01/15/2014  05:43:00       18.707       38.401       -1.001        7.269       13.960        9.008       52.840      194.887       81.148        0.108        0.016       42.716        9.364        0.048      330.571       -1.969      876.769
01/15/2014  05:44:00       35.166       36.524       11.198       12.210       13.371       14.073      149.091      178.779      198.055        0.161        0.026       50.701        6.341        0.016      330.551       -2.001      876.794
01/15/2014  05:45:00       23.900       34.690       28.533       23.181       14.622       14.348      537.367      213.789      205.873        0.177        0.048       42.126       14.120        0.112      330.472       -2.133      876.809
01/15/2014  05:46:00        3.879       11.351       22.981        8.797       12.130       10.365       77.394      147.136      107.428        0.050        0.017       11.995        5.777        0.232      330.417       -2.224      876.815
01/15/2014  05:47:00       10.916      -34.416        4.464       14.831       13.239       11.739      219.951      175.283      137.798        0.093        0.027       36.105        5.769        0.026      330.755       -1.669      876.804
01/15/2014  05:48:00       -2.980      -39.143       -4.343       17.287       10.428       15.899      298.833      108.733      252.786        0.111        0.033       39.256       10.006        0.065      330.515       -2.065      876.796
01/15/2014  05:49:00      -26.638      -31.774       -9.232       14.546       12.049       11.058      211.582      145.178      122.280        0.114        0.024       41.463       11.385        0.075      330.517       -2.060      876.784
01/15/2014  05:50:00      -39.428      -26.470       -3.481       10.979       18.173        9.305      120.534      330.255       86.592        0.140        0.027       47.489        3.696        0.006      330.448       -2.173      876.772
01/15/2014  05:51:00      -47.242      -16.452       -3.114       17.634       21.778       12.125      310.956      474.292      147.014        0.172        0.047       50.025       10.033        0.040      330.336       -2.355      876.778
01/15/2014  05:52:00      -20.988        5.371       -0.992       25.993       17.894       15.080      675.616      320.209      227.421        0.085        0.061       21.664        9.883        0.208      330.251       -2.495      876.791
01/15/2014  05:53:00        3.142       23.791       -7.950       17.582        8.216       11.556      309.132       67.502      133.551        0.057        0.026       23.997        5.434        0.051      330.447       -2.174      876.795
01/15/2014  05:54:00      -33.961        0.476        0.006       25.863       16.286       11.923      668.875      265.219      142.159        0.111        0.054       33.965        9.220        0.074      330.303       -2.410      876.796
01/15/2014  05:55:00      -35.163      -10.438       -3.569       19.803       21.192       12.335      392.153      449.111      152.143        0.118        0.050       36.679       12.025        0.107      330.254       -2.489      876.805
01/15/2014  05:56:00      -24.524      -29.888       -0.614       21.568       11.793        7.416      465.163      139.072       55.000        0.108        0.033       38.661        6.065        0.025      330.241       -2.511      876.825
01/15/2014  05:57:00      -49.699      -14.792       -5.909       14.722       11.496        7.344      216.748      132.163       53.937        0.156        0.020       51.853        4.979        0.009      330.245       -2.504      876.829
01/15/2014  05:58:00      -71.769      -34.567       -2.837       18.906       18.261       13.973      357.454      333.460      195.248        0.362        0.044       79.660       10.574        0.018      330.217       -2.551      876.824
01/15/2014  05:59:00      -30.868      -17.158       13.482       32.000       20.492       17.271     1023.997      419.908      298.292        0.159        0.087       35.316       14.472        0.168      330.330       -2.366      876.816
01/15/2014  06:00:00      -23.687      -36.531        6.023       27.208       26.249       17.122      740.282      689.029      293.151        0.183        0.086       43.538       16.182        0.138      330.385       -2.277      876.813
01/15/2014  06:01:00      -74.667      -59.830       -0.084       36.967       25.196       18.674     1366.534      634.853      348.721        0.575        0.118       95.680       11.743        0.015      330.449       -2.173      876.810
01/15/2014  06:02:00      -54.154      -52.097        6.201       36.637       26.223       18.903     1342.305      687.647      357.322        0.404        0.119       75.145       14.502        0.037      330.414       -2.229      876.811
01/15/2014  06:03:00      -73.631      -40.708        4.021       33.333       24.543       17.804     1111.115      602.380      316.988        0.456        0.102       84.135       14.708        0.031      330.373       -2.295      876.819
01/15/2014  06:04:00      -20.524      -25.542        8.761       35.936       22.821       17.911     1291.375      520.783      320.790        0.164        0.107       32.767       15.843        0.234      330.389       -2.270      876.840
01/15/2014  06:05:00      -47.077      -34.210        6.045       34.920       24.365       17.536     1219.392      593.661      307.520        0.277        0.106       58.194       17.292        0.088      330.345       -2.342      876.867
01/15/2014  06:06:00      -10.156      -13.307        8.125       21.492       21.549       13.313      461.885      464.351      177.244        0.072        0.055       16.740       13.501        0.650      330.319       -2.385      876.897
01/15/2014  06:07:00      -21.020      -14.246        5.588       16.754       13.474        8.472      280.689      181.555       71.772        0.060        0.027       25.393        5.979        0.055      330.402       -2.249      876.908
01/15/2014  06:08:00      -36.794      -23.926        7.126       24.810       19.399       13.783      615.553      376.336      189.977        0.158        0.059       43.889       10.718        0.060      330.396       -2.259      876.907
01/15/2014  06:09:00      -18.232       -7.840        3.643       27.188       13.869        9.371      739.209      192.361       87.811        0.071        0.051       19.846        6.879        0.120      330.329       -2.368      876.899
01/15/2014  06:10:00      -12.074       -6.342       -0.281        8.777        7.158        7.104       77.029       51.236       50.473        0.018        0.009       13.638        4.295        0.099      330.373       -2.296      876.900
01/15/2014  06:11:00       -4.682        0.960        5.697        8.867        7.507        9.609       78.628       56.355       92.334        0.014        0.011        4.780        2.696        0.318      330.393       -2.264      876.890
01/15/2014  06:12:00      -31.462       -2.443      -12.967       11.482        5.533        7.349      131.828       30.613       54.012        0.069        0.011       31.557        5.723        0.033      330.440       -2.185      876.881
01/15/2014  06:13:00      -26.884        0.212       -0.662        9.909        9.016        5.857       98.179       81.280       34.299        0.047        0.011       26.884        5.435        0.041      330.394       -2.262      876.872
01/15/2014  06:14:00      -18.652       16.952        2.624       15.471       13.758        8.458      239.342      189.278       71.538        0.057        0.025       25.205        5.949        0.056      330.399       -2.253      876.866
01/15/2014  06:15:00      -38.657       39.074       -4.649       14.905       14.728       11.144      222.170      216.913      124.190        0.180        0.028       54.965        9.957        0.033      330.313       -2.393      876.862
01/15/2014  06:16:00      -31.817       47.076       -2.774       12.445       20.163       12.768      154.882      406.558      163.015        0.198        0.036       56.820        9.897        0.030      330.474       -2.131      876.868
01/15/2014  06:17:00      -69.525       61.059      -16.409       13.644       15.311       11.793      186.163      234.422      139.067        0.470        0.028       92.530        8.671        0.009      330.516       -2.063      876.867
01/15/2014  06:18:00      -76.699       78.945      -21.688       12.011       14.732        8.408      144.275      217.021       70.700        0.651        0.022      110.068        4.685        0.002      330.457       -2.160      876.857
01/15/2014  06:19:00      -77.694       59.107      -17.526       13.850       25.811       12.949      191.825      666.184      167.689        0.543        0.051       97.621       14.998        0.024      330.432       -2.199      876.842
01/15/2014  06:20:00      -57.919       14.797       -7.801       12.389       10.782       10.144      153.476      116.251      102.905        0.200        0.019       59.779        5.806        0.009      330.277       -2.452      876.835
01/15/2014  06:21:00      -54.916       -8.671       -9.603        9.629       11.181        7.799       92.720      125.014       60.821        0.173        0.014       55.596        4.227        0.006      330.223       -2.540      876.838
01/15/2014  06:22:00      -70.540      -25.731       -8.934       12.679       13.476       10.091      160.756      181.615      101.833        0.308        0.022       75.087        2.889        0.001      330.147       -2.667      876.857
01/15/2014  06:23:00      -69.898      -12.426      -14.882        9.791        9.771        7.030       95.872       95.478       49.421        0.275        0.012       70.994        2.913        0.002      330.137       -2.685      876.877
01/15/2014  06:24:00      -53.318      -17.680      -11.300       13.717       14.051       10.204      188.167      197.438      104.126        0.189        0.024       56.172        2.364        0.002      330.115       -2.720      876.892
01/15/2014  06:25:00      -57.622       -8.047      -10.893       13.553       15.791        7.760      183.694      249.371       60.219        0.200        0.025       58.182        4.278        0.005      330.244       -2.508      876.902
01/15/2014  06:26:00      -49.202      -21.458      -11.833       15.549       16.301       11.588      241.769      265.707      134.285        0.183        0.032       53.677        7.824        0.021      330.269       -2.467      876.914
01/15/2014  06:27:00      -61.373      -16.037      -14.063       13.885       11.551        8.623      192.793      133.433       74.360        0.231        0.020       63.433        5.413        0.007      330.141       -2.676      876.923
01/15/2014  06:28:00      -64.408      -24.844      -17.098       18.231       17.427       15.828      332.354      303.704      250.516        0.297        0.044       69.034        7.928        0.013      330.075       -2.783      876.936
01/15/2014  06:29:00      -35.287      -20.785       -6.546       26.813       17.603       13.186      718.963      309.856      173.866        0.146        0.060       40.953        8.674        0.045      330.040       -2.842      876.957
01/15/2014  06:30:00      -46.947      -24.026      -15.225       13.193       13.086        9.209      174.062      171.249       84.810        0.172        0.022       52.737        5.441        0.011      330.109       -2.727      876.973
01/15/2014  06:31:00      -45.818      -17.458      -13.960       20.863       12.269        9.643      435.257      150.518       92.981        0.164        0.034       49.031        5.112        0.011      330.110       -2.727      876.988
01/15/2014  06:32:00      -51.373      -24.017      -11.500       17.953       13.876       11.778      322.328      192.538      138.719        0.200        0.033       56.710        5.977        0.011      330.090       -2.759      877.003
01/15/2014  06:33:00      -43.445      -29.430       -8.784       13.950       15.069       10.768      194.604      227.062      115.949        0.168        0.027       52.474        7.750        0.022      330.177       -2.619      877.031
01/15/2014  06:34:00      -48.617      -20.730       -1.771       11.236       20.618       14.258      126.245      425.094      203.296        0.178        0.038       52.852        6.442        0.015      330.233       -2.525      877.058
01/15/2014  06:35:00      -52.033      -18.070       -5.138       15.645       18.346       12.363      244.780      336.583      152.848        0.190        0.037       55.082       10.864        0.039      330.344       -2.344      877.082
01/15/2014  06:36:00      -38.535       -1.904       -4.062       12.332       18.342       11.229      152.073      336.433      126.100        0.106        0.031       38.582        7.125        0.034      330.272       -2.462      877.096
01/15/2014  06:37:00      -33.437        7.487       -6.764       15.109       34.864       17.427      228.276     1215.530      303.709        0.148        0.087       34.265       20.106        0.344      330.409       -2.236      877.099
01/15/2014  06:38:00      -33.790      -15.057       -6.156       17.349       20.903       11.345      301.000      436.925      128.712        0.114        0.043       36.993       11.136        0.091      330.348       -2.336      877.093
01/15/2014  06:39:00      -56.776      -23.833      -10.373       15.009       11.459        7.050      225.278      131.310       49.708        0.215        0.020       61.575        3.929        0.004      330.146       -2.668      877.085
01/15/2014  06:40:00      -79.087      -15.418      -14.045       16.318       16.633       11.997      266.272      276.662      143.928        0.369        0.034       80.576        7.766        0.009      330.055       -2.817      877.079
01/15/2014  06:41:00      -79.123      -17.399      -11.599       17.273       21.424       12.566      298.339      458.991      157.912        0.381        0.046       81.014        9.810        0.015      330.098       -2.747      877.082
01/15/2014  06:42:00      -79.353      -20.383      -13.377       14.486       12.151        8.680      209.854      147.637       75.337        0.366        0.022       81.929        3.894        0.002      330.161       -2.643      877.085
01/15/2014  06:43:00      -75.154      -35.106      -12.742       16.716       15.993        9.317      279.439      255.778       86.799        0.383        0.031       82.949        5.558        0.004      330.187       -2.600      877.072
01/15/2014  06:44:00      -33.673      -22.343        1.349       39.212       21.997       18.810     1537.558      483.854      353.828        0.200        0.119       40.411       20.227        0.251      330.001       -2.905      877.058
01/15/2014  06:45:00      -13.204      -16.505       -6.619       16.896       19.883       20.162      285.464      395.349      406.490        0.079        0.054       21.137       12.765        0.365      329.990       -2.924      877.054
01/15/2014  06:46:00      -26.762      -27.837       -4.045       24.510       28.831       17.115      600.755      831.208      292.927        0.162        0.086       38.615       14.201        0.135      330.064       -2.804      877.070
01/15/2014  06:47:00      -77.361      -41.756       -2.390       28.839       14.925       17.025      831.688      222.768      289.853        0.454        0.067       87.911       16.809        0.037      330.009       -2.890      877.085
01/15/2014  06:48:00      -93.030      -30.515       -7.015       13.600       13.420       11.051      184.955      180.109      122.119        0.506        0.024       97.907        4.834        0.002      330.114       -2.721      877.104
01/15/2014  06:49:00      -60.494      -40.314       -1.134       20.607       19.066       14.025      424.666      363.523      196.687        0.314        0.049       72.696       10.928        0.023      330.185       -2.606      877.125
01/15/2014  06:50:00      -15.896      -16.739        2.460       24.052       18.050       12.852      578.521      325.794      165.167        0.080        0.053       23.085       13.677        0.351      330.216       -2.553      877.143
01/15/2014  06:51:00      -58.699      -39.865       -3.971       28.788       14.625       14.809      828.764      213.881      219.304        0.316        0.063       70.956       15.916        0.050      330.206       -2.572      877.150
01/15/2014  06:52:00      -68.785      -39.344       -6.758       15.042       17.139       10.178      226.267      293.745      103.583        0.347        0.031       79.242        4.896        0.004      330.196       -2.587      877.157
01/15/2014  06:53:00      -52.377      -33.270        6.850       37.545       19.309       14.864     1409.662      372.832      220.943        0.295        0.100       62.050       17.960        0.084      330.175       -2.622      877.169
01/15/2014  06:54:00      -43.770      -34.926       -2.022       18.507       13.519        9.685      342.505      182.772       93.798        0.188        0.031       55.997        7.592        0.018      330.231       -2.529      877.178
01/15/2014  06:55:00      -63.541      -28.233       -7.639       20.057       14.175       11.002      402.290      200.922      121.033        0.281        0.036       69.531        4.892        0.005      330.132       -2.691      877.183
01/15/2014  06:56:00      -58.990      -40.597       -2.700       24.958       20.118       11.987      622.905      404.752      143.682        0.315        0.059       71.610       10.668        0.022      330.104       -2.738      877.187
01/15/2014  06:57:00      -55.916      -39.090       -4.498       19.580       14.006       11.110      383.382      196.162      123.423        0.269        0.035       68.225       10.514        0.024      330.122       -2.707      877.199
01/15/2014  06:58:00      -78.068      -31.553       -9.106       11.879        9.740        6.860      141.101       94.860       47.053        0.373        0.014       84.203        5.009        0.004      330.150       -2.660      877.208
01/15/2014  06:59:00      -76.212      -28.682       -6.036       18.600       20.873        9.794      345.949      435.683       95.920        0.377        0.044       81.430        7.577        0.009      330.166       -2.636      877.208
01/15/2014  07:00:00      -73.566      -30.476       -3.205       21.345       19.180       14.273      455.630      367.877      203.723        0.369        0.051       79.629       13.487        0.029      330.208       -2.568      877.207
01/15/2014  07:01:00      -61.238      -16.644       -0.787       27.785       15.302       12.442      772.028      234.142      154.796        0.259        0.058       63.459       14.359        0.051      330.035       -2.850      877.196
01/15/2014  07:02:00      -83.406      -12.089       -6.150       14.514       10.963       10.987      210.643      120.185      120.716        0.380        0.023       84.278        7.666        0.008      330.098       -2.747      877.183
01/15/2014  07:03:00      -53.097      -22.065       -3.054       18.366       13.141       11.738      337.296      172.682      137.788        0.198        0.032       57.499       11.570        0.040      330.145       -2.670      877.179
01/15/2014  07:04:00      -36.085      -22.514       -1.368       18.847       10.630       12.638      355.220      113.003      159.721        0.122        0.031       42.533       11.055        0.068      330.174       -2.623      877.184
01/15/2014  07:05:00      -16.890      -14.375        5.412       21.998       14.870        9.536      483.916      221.119       90.939        0.066        0.040       22.179        7.427        0.112      330.203       -2.574      877.184
01/15/2014  07:06:00      -32.012      -24.199       -1.593       14.786       11.065       10.830      218.620      122.443      117.280        0.104        0.023       40.129       10.694        0.071      330.246       -2.503      877.181
01/15/2014  07:07:00      -52.462      -25.866       -5.767       12.449        8.099        7.444      154.989       65.591       55.414        0.187        0.014       58.492        3.773        0.004      330.231       -2.529      877.176
01/15/2014  07:08:00      -71.232      -12.591       -8.834       11.025       11.909        8.690      121.543      141.830       75.515        0.282        0.017       72.336        3.559        0.002      330.153       -2.657      877.180
01/15/2014  07:09:00      -73.224      -21.455       -5.974       19.833       13.591       11.054      393.335      184.727      122.193        0.328        0.035       76.302        9.035        0.014      330.176       -2.619      877.189
01/15/2014  07:10:00      -57.768      -22.331        0.989       25.548       21.031       12.697      652.675      442.294      161.222        0.255        0.063       61.934       10.382        0.028      330.167       -2.634      877.213
01/15/2014  07:11:00      -24.136      -24.150        7.880       27.868       22.830       15.437      776.618      521.190      238.296        0.138        0.077       34.143       10.515        0.095      330.124       -2.705      877.243
01/15/2014  07:12:00      -35.857      -20.150        6.616       28.855       23.845       15.388      832.624      568.598      236.785        0.169        0.082       41.131       17.991        0.191      330.166       -2.636      877.268
01/15/2014  07:13:00      -59.675      -26.911       -0.408       14.953       14.494        9.380      223.581      210.077       87.978        0.240        0.026       65.462        6.095        0.009      330.165       -2.638      877.280
01/15/2014  07:14:00      -51.626      -31.093        6.510       45.532       24.357       15.312     2073.176      593.247      234.458        0.329        0.145       60.266       22.686        0.142      330.139       -2.680      877.280
01/15/2014  07:15:00      -36.828      -28.736        5.824       35.506       19.559       16.648     1260.643      382.559      277.155        0.207        0.096       46.713       21.136        0.205      330.152       -2.659      877.274
01/15/2014  07:16:00      -68.257      -42.064        4.371       28.033       18.481       14.437      785.825      341.530      208.431        0.389        0.067       80.177       15.586        0.038      330.154       -2.655      877.277
01/15/2014  07:17:00      -61.855      -35.560        4.287       31.184       16.026       15.619      972.413      256.846      243.946        0.329        0.074       71.348       17.027        0.057      330.252       -2.494      877.271
01/15/2014  07:18:00      -84.881      -43.438       -4.698       18.833       20.998       13.284      354.669      440.907      176.451        0.504        0.049       95.350        6.317        0.004      330.299       -2.416      877.268
01/15/2014  07:19:00      -42.918      -25.149       10.325       47.263       22.669       20.037     2233.774      513.869      401.496        0.286        0.157       49.743       22.640        0.207      330.307       -2.404      877.257
01/15/2014  07:20:00      -83.421      -33.550       -4.989       25.289       27.921       13.153      639.531      779.592      173.012        0.485        0.080       89.914       10.820        0.014      330.252       -2.493      877.244
01/15/2014  07:21:00      -78.161      -20.457       -1.734       27.479       20.185       15.116      755.091      407.454      228.487        0.396        0.070       80.794       14.604        0.033      330.193       -2.590      877.238
01/15/2014  07:22:00      -63.881       -9.643        3.627       37.547       18.045       17.533     1409.794      325.612      307.389        0.311        0.102       64.605       19.662        0.093      330.043       -2.837      877.241
01/15/2014  07:23:00      -68.512      -11.985        0.221       31.831       22.389       17.492     1013.220      501.272      305.971        0.333        0.091       69.552       16.689        0.058      329.949       -2.991      877.245
01/15/2014  07:24:00      -66.768       -7.642        6.457       36.134       30.136       21.173     1305.660      908.204      448.316        0.361        0.133       67.204       16.475        0.060      329.890       -3.087      877.249
01/15/2014  07:25:00      -70.863      -11.215        2.780       43.856       25.107       17.813     1923.348      630.341      317.290        0.401        0.144       71.745       18.709        0.068      329.935       -3.014      877.245
01/15/2014  07:26:00      -86.502      -16.580       -0.946       33.737       30.412       16.449     1138.157      924.907      270.555        0.505        0.117       88.077       14.603        0.027      329.913       -3.050      877.246
01/15/2014  07:27:00      -92.292      -13.213       -5.553       37.158       37.065       20.585     1380.737     1373.786      423.731        0.595        0.159       93.233       18.084        0.038      329.963       -2.968      877.240
01/15/2014  07:28:00      -64.217       -9.735       -1.520       44.827       28.388       19.915     2009.489      805.887      396.600        0.372        0.161       64.951       20.838        0.103      329.931       -3.020      877.237
01/15/2014  07:29:00     -100.346      -49.597       -4.101       21.583       27.192       13.167      465.817      739.403      173.360        0.696        0.069      111.934       10.982        0.010      329.893       -3.084      877.236
01/15/2014  07:30:00      -82.133      -25.105       -4.325       34.894       37.215       19.468     1217.567     1384.971      379.001        0.519        0.149       85.884       20.292        0.056      329.887       -3.092      877.238
01/15/2014  07:31:00      -90.375      -28.604        1.745       33.859       29.383       18.363     1146.424      863.374      337.205        0.567        0.117       94.793       16.963        0.032      329.909       -3.057      877.237
01/15/2014  07:32:00     -101.290      -35.445       -6.044       25.401       29.979       14.433      645.186      898.752      208.324        0.665        0.088      107.312       10.669        0.010      329.884       -3.097      877.231
01/15/2014  07:33:00      -89.781      -25.530        0.717       30.389       23.955       16.574      923.485      573.841      274.706        0.524        0.089       93.340       14.891        0.025      329.846       -3.160      877.224
01/15/2014  07:34:00     -109.010      -35.158       -5.290       19.470       18.877       16.712      379.097      356.329      279.288        0.708        0.051      114.539       12.730        0.012      329.877       -3.109      877.213
01/15/2014  07:35:00      -91.309      -20.194       -2.915       22.417       20.911       16.435      502.522      437.287      270.120        0.498        0.060       93.516       14.213        0.023      329.839       -3.171      877.211
01/15/2014  07:36:00      -84.905      -13.210       -3.054       36.537       30.373       21.231     1334.952      922.502      450.757        0.505        0.135       85.927       22.702        0.070      329.935       -3.014      877.214
01/15/2014  07:37:00      -94.240      -20.822       -7.172       37.796       24.178       22.602     1428.544      584.553      510.828        0.594        0.126       96.513       22.272        0.053      329.942       -3.003      877.220
01/15/2014  07:38:00      -68.429      -10.655        2.361       39.336       30.232       20.268     1547.294      913.981      410.802        0.384        0.144       69.253       20.151        0.085      330.012       -2.888      877.236
01/15/2014  07:39:00      -95.222        8.934       -0.372       49.550       35.492       20.627     2455.170     1259.653      425.462        0.664        0.207       95.640       18.437        0.037      330.060       -2.809      877.253
01/15/2014  07:40:00     -147.255       40.725       -6.055       37.948       24.804       20.562     1440.060      615.243      422.795        1.293        0.124      152.783       15.167        0.010      330.052       -2.822      877.272
01/15/2014  07:41:00     -160.836       17.301       -7.222       32.084       31.682       19.743     1029.382     1003.762      389.803        1.432        0.121      161.764       14.392        0.008      330.076       -2.782      877.285
01/15/2014  07:42:00     -118.533       -5.498       -0.540       52.489       27.611       24.048     2755.080      762.373      578.323        0.909        0.205      118.661       24.899        0.044      330.084       -2.770      877.285
01/15/2014  07:43:00     -115.826      -40.678      -14.424       29.500       23.445       16.784      870.253      549.647      281.712        0.849        0.085      122.762       12.742        0.011      330.028       -2.861      877.274
01/15/2014  07:44:00      -86.668      -14.563       -5.958       15.186       17.886       13.054      230.626      319.904      170.417        0.424        0.036       87.883        6.883        0.006      330.043       -2.837      877.273
01/15/2014  07:45:00      -73.479      -20.006       -2.717       18.472       19.922       13.723      341.228      396.879      188.310        0.337        0.046       76.154       10.166        0.018      330.140       -2.678      877.280
01/15/2014  07:46:00      -75.920      -30.298        0.161       20.519       15.485       13.581      421.049      239.780      184.454        0.376        0.042       81.743       12.376        0.023      330.278       -2.451      877.285
01/15/2014  07:47:00      -74.619      -30.886       -6.349        9.626       10.888        7.972       92.659      118.555       63.555        0.342        0.014       80.758        3.971        0.002      330.274       -2.458      877.292
01/15/2014  07:48:00      -87.140       -3.150       -8.118       18.882       16.260       12.019      356.512      264.402      144.453        0.422        0.038       87.197       10.240        0.014      330.291       -2.430      877.299
01/15/2014  07:49:00     -119.203        5.705      -13.660       13.196       12.406        8.427      174.126      153.912       71.007        0.741        0.020      119.339        5.272        0.002      330.347       -2.338      877.311
01/15/2014  07:50:00      -93.590       -4.153      -11.759       18.815       18.168       14.307      354.015      330.074      204.699        0.490        0.044       93.682        8.502        0.008      330.390       -2.270      877.321
01/15/2014  07:51:00      -68.439       -7.562       -7.066       32.035       24.506       16.875     1026.227      600.530      284.768        0.335        0.096       68.856       16.074        0.054      330.443       -2.183      877.334
01/15/2014  07:52:00      -75.373      -17.169       -5.908       18.689       17.535       14.513      349.281      307.483      210.632        0.344        0.043       77.303       13.171        0.029      330.447       -2.177      877.327
01/15/2014  07:53:00      -49.134      -32.640        1.834       17.123       22.448       11.614      293.213      503.903      134.882        0.221        0.047       58.988        8.482        0.021      330.401       -2.251      877.324
01/15/2014  07:54:00      -76.072      -12.748       -4.163       17.538       13.024        9.998      307.588      169.635       99.969        0.327        0.029       77.133        8.922        0.013      330.471       -2.135      877.331
01/15/2014  07:55:00      -79.938      -11.309       -8.301       14.699       10.009       11.967      216.048      100.178      143.217        0.352        0.023       80.734        9.825        0.015      330.461       -2.152      877.325
01/15/2014  07:56:00      -76.341       -3.264       -7.524        9.197       10.891        8.743       84.583      118.622       76.446        0.309        0.014       76.411        5.563        0.005      330.527       -2.043      877.345
01/15/2014  07:57:00      -69.767       -0.868       -8.365       11.797        9.408        7.035      139.179       88.509       49.484        0.261        0.014       69.772        3.990        0.003      330.600       -1.923      877.365
01/15/2014  07:58:00      -48.209       -1.456       -9.576        8.303        7.914        6.300       68.933       62.629       39.694        0.129        0.009       48.231        2.633        0.003      330.639       -1.860      877.394
01/15/2014  07:59:00      -34.640      -17.116       -3.205       11.375       12.603        7.214      129.385      158.842       52.036        0.092        0.017       38.638        5.773        0.022      330.701       -1.757      877.426
01/15/2014  08:00:00      -25.648      -24.209       -0.522       14.931        8.953       18.292      222.943       80.149      334.590        0.094        0.032       35.269       13.627        0.149      330.736       -1.700      877.453
01/15/2014  08:01:00      -29.146      -25.429       -9.950       19.572       12.712       15.548      383.065      161.591      241.738        0.119        0.039       38.679       11.621        0.090      330.693       -1.770      877.463
01/15/2014  08:02:00      -31.593      -24.260        3.254       20.736       15.206       16.403      429.992      231.208      269.067        0.126        0.047       39.833       14.002        0.124      330.670       -1.808      877.483
01/15/2014  08:03:00      -65.270      -31.058       -8.827       26.212       17.624       14.289      687.046      310.603      204.182        0.325        0.060       72.282       10.508        0.021      330.554       -1.999      877.496
01/15/2014  08:04:00      -72.315      -21.961      -11.131       19.863       13.958       12.086      394.532      194.834      146.066        0.329        0.037       75.576        7.517        0.010      330.583       -1.952      877.513
01/15/2014  08:05:00      -83.353      -32.472      -13.774       16.944       14.993       10.164      287.112      224.798      103.312        0.440        0.031       89.455        5.028        0.003      330.634       -1.866      877.520
01/15/2014  08:06:00      -49.014      -27.905      -10.657       13.331       16.093       10.651      177.721      258.972      113.448        0.192        0.028       56.401        6.674        0.014      330.667       -1.814      877.522
01/15/2014  08:07:00      -49.661      -17.244       -3.287       11.557       16.068        8.981      133.571      258.195       80.655        0.162        0.024       52.570        6.426        0.015      330.712       -1.741      877.526
01/15/2014  08:08:00      -75.366      -14.579       -7.088       19.785       12.453       10.588      391.454      155.086      112.109        0.330        0.033       76.763       10.391        0.018      330.799       -1.596      877.527
01/15/2014  08:09:00      -95.612      -34.822      -10.885        9.509        9.399        8.466       90.414       88.336       71.679        0.536        0.013      101.756        5.906        0.003      330.844       -1.522      877.527
01/15/2014  08:10:00     -107.563      -40.738       -9.771        9.841        9.694        8.412       96.847       93.978       70.755        0.679        0.013      115.019        5.279        0.002      330.888       -1.450      877.539
01/15/2014  08:11:00     -100.866      -30.484        2.314       29.260       17.173       15.439      856.166      294.904      238.365        0.625        0.069      105.372       14.946        0.020      330.944       -1.360      877.530
01/15/2014  08:12:00      -55.187      -32.704        6.669       23.938       24.553       16.918      573.039      602.826      286.204        0.281        0.073       64.150       12.762        0.040      330.951       -1.347      877.520
01/15/2014  08:13:00      -81.692      -65.410       -0.972       23.229       22.918       14.767      539.603      525.229      218.053        0.612        0.064      104.652        9.926        0.009      331.022       -1.231      877.505
01/15/2014  08:14:00      -67.022      -53.340        2.494       27.720       16.674       10.497      768.413      278.020      110.177        0.425        0.058       85.657       10.782        0.016      331.082       -1.132      877.511
01/15/2014  08:15:00      -29.991      -14.161        5.462       19.025       18.851       12.237      361.948      355.365      149.742        0.100        0.043       33.166       10.820        0.106      331.152       -1.016      877.515
01/15/2014  08:16:00      -38.657      -33.095       -4.496       17.287       10.110       10.410      298.842      102.213      108.361        0.156        0.025       50.888        2.659        0.003      331.136       -1.043      877.531
01/15/2014  08:17:00      -44.224      -13.071        0.583       13.832       15.128        7.675      191.325      228.854       58.908        0.130        0.024       46.115        4.728        0.011      331.136       -1.044      877.546
01/15/2014  08:18:00      -41.597      -12.839       -1.176       17.618        9.136        6.626      310.402       83.475       43.910        0.117        0.022       43.534        6.218        0.020      331.193       -0.947      877.559
01/15/2014  08:19:00       -6.859       -3.763        5.238        9.543        7.090        8.347       91.069       50.268       69.669        0.015        0.011        7.823        5.469        0.489      331.485       -0.469      877.570
01/15/2014  08:20:00       -1.344       -8.098        9.825        6.864        7.529        8.049       47.114       56.693       64.783        0.017        0.008        8.209        3.123        0.145      331.699       -0.118      877.581
01/15/2014  08:21:00       -4.583        7.543       30.209        6.527        9.795        6.789       42.605       95.940       46.090        0.059        0.009        8.826        5.915        0.449      332.033        0.434      877.587
01/15/2014  08:22:00       -4.844        8.682       26.345        9.567       11.685       10.078       91.526      136.544      101.561        0.056        0.016        9.942        5.725        0.332      331.977        0.341      877.592
01/15/2014  08:23:00      -13.081       -1.262       13.167       11.025        9.147       10.583      121.553       83.660      112.006        0.033        0.016       13.142        6.701        0.260      331.764       -0.009      877.609
01/15/2014  08:24:00      -16.728       -1.145       12.614       12.500       10.170        9.359      156.259      103.438       87.585        0.039        0.017       16.767        5.237        0.098      331.723       -0.078      877.628
01/15/2014  08:25:00       -9.183       13.839       34.594        9.296       16.542       11.832       86.410      273.626      139.990        0.099        0.025       16.608       11.543        0.483      332.072        0.498      877.645
01/15/2014  08:26:00       -7.537       17.980       40.874       10.322       18.806       15.516      106.538      353.649      240.758        0.138        0.035       19.496        9.794        0.252      332.100        0.542      877.667
01/15/2014  08:27:00        3.209       27.591       44.347       18.871       16.992        9.937      356.115      288.727       98.738        0.174        0.037       27.777       10.116        0.133      331.895        0.205      877.693
01/15/2014  08:28:00       38.246       52.707       32.891       22.692       25.019       22.723      514.907      625.941      516.314        0.349        0.083       65.121       12.474        0.037      331.720       -0.082      877.714
01/15/2014  08:29:00       48.424       50.540       29.403       36.971       39.104       23.644     1366.835     1529.101      559.049        0.461        0.173       69.994       21.116        0.091      331.817        0.077      877.724
01/15/2014  08:30:00       26.373       39.961       53.376       35.808       38.112       20.365     1282.232     1452.532      414.750        0.414        0.157       47.879       10.570        0.049      331.938        0.275      877.740
01/15/2014  08:31:00       17.619       38.679       39.521       24.439       25.971       23.237      597.265      674.467      539.974        0.259        0.091       42.503       18.189        0.183      331.835        0.108      877.750
01/15/2014  08:32:00       51.688       42.950        5.507       28.392       21.269       20.989      806.133      452.380      440.523        0.312        0.085       67.204       12.683        0.036      331.702       -0.112      877.756
01/15/2014  08:33:00       68.947       55.778       20.708       38.086       23.698       21.777     1450.555      561.609      474.245        0.539        0.124       88.684       14.561        0.027      331.678       -0.151      877.759
01/15/2014  08:34:00       51.499       57.548       41.659       49.070       36.334       33.988     2407.907     1320.182     1155.177        0.629        0.244       77.226       33.589        0.189      331.752       -0.030      877.765
01/15/2014  08:35:00       78.133       33.265       13.997       32.329       26.578       26.570     1045.143      706.416      705.962        0.493        0.123       84.919       13.393        0.025      331.621       -0.246      877.774
01/15/2014  08:36:00       39.155       48.173       52.396       40.487       26.845       26.306     1639.208      720.642      691.981        0.482        0.153       62.078       20.556        0.110      331.745       -0.041      877.777
01/15/2014  08:37:00       54.296       66.863       42.786       46.503       34.427       31.719     2162.497     1185.216     1006.123        0.680        0.218       86.131       26.531        0.095      331.680       -0.146      877.784
01/15/2014  08:38:00       44.478      107.657       99.367       40.560       37.642       24.346     1645.153     1416.887      592.722        1.355        0.183      116.484       19.982        0.029      331.756       -0.023      877.789
01/15/2014  08:39:00      102.417       92.788       57.807       32.903       27.208       31.302     1082.605      740.257      979.797        1.262        0.140      138.199       17.230        0.016      331.548       -0.365      877.791
01/15/2014  08:40:00       70.521       71.660       55.808       41.974       33.457       29.342     1761.837     1119.369      860.948        0.848        0.187      100.540       14.973        0.022      331.652       -0.195      877.781
01/15/2014  08:41:00        4.315       39.402       56.182       38.403       34.920       28.799     1474.778     1219.436      829.354        0.412        0.176       39.638       21.518        0.295      331.942        0.283      877.776
01/15/2014  08:42:00       19.499       36.211       65.892       36.104       37.735       19.907     1303.515     1423.946      396.284        0.458        0.156       41.127       19.462        0.224      332.009        0.394      877.772
01/15/2014  08:43:00       12.194       23.232       54.540       26.283       35.387       22.043      690.804     1252.270      485.885        0.305        0.121       26.238       18.005        0.471      332.079        0.507      877.765
01/15/2014  08:44:00       60.265      -78.569       14.236       48.688       62.469       45.038     2370.562     3902.430     2028.445        0.915        0.415       99.019       46.599        0.221      331.862        0.151      877.760
01/15/2014  08:45:00       20.037        0.458       34.507       40.045       57.779       32.305     1603.573     3338.359     1043.607        0.379        0.299       20.043       29.476        2.163      332.012        0.397      877.757
01/15/2014  08:46:00       43.482      -63.460       16.777       43.756       50.050       34.409     1914.573     2504.998     1183.955        0.590        0.280       76.928       30.359        0.156      332.003        0.385      877.754
01/15/2014  08:47:00       42.568      -27.661       27.822       39.232       46.999       41.387     1539.115     2208.875     1712.918        0.440        0.273       50.766       27.562        0.295      332.131        0.595      877.756
01/15/2014  08:48:00       68.362       71.330       56.990       43.407       45.479       41.377     1884.191     2068.349     1712.051        0.934        0.283       98.799       39.444        0.159      331.773        0.005      877.760
01/15/2014  08:49:00       27.291       31.051       54.282       25.351       37.159       18.327      642.668     1380.791      335.873        0.351        0.118       41.339       17.499        0.179      332.119        0.574      877.761
01/15/2014  08:50:00       94.434       72.867       50.742       47.554       36.628       30.445     2261.349     1341.581      926.881        1.067        0.226      119.278       17.930        0.023      331.800        0.049      877.741
01/15/2014  08:51:00      132.561       96.172       54.603       39.153       24.953       36.323     1532.973      622.662     1319.373        1.664        0.174      163.772       14.024        0.007      331.633       -0.228      877.728
01/15/2014  08:52:00       56.131       84.530       69.060       38.345       27.262       30.578     1470.338      743.219      935.045        0.911        0.157      101.470       24.739        0.059      331.842        0.116      877.722
01/15/2014  08:53:00       96.647       61.606       36.518       35.539       47.565       38.361     1263.056     2262.444     1471.542        0.973        0.250      114.612       33.694        0.086      331.783        0.021      877.720
01/15/2014  08:54:00       11.119       53.511       48.756       34.601       28.879       39.992     1197.211      833.981     1599.385        0.450        0.182       54.654       31.119        0.324      332.195        0.700      877.722
01/15/2014  08:55:00       19.722       75.514       89.650       34.303       40.771       21.870     1176.680     1662.237      478.305        0.872        0.166       78.047       25.485        0.107      332.079        0.509      877.725
01/15/2014  08:56:00      101.508       90.313       42.743       34.947       29.831       36.943     1221.308      889.907     1364.754        1.188        0.174      135.868       21.328        0.025      331.885        0.189      877.730
01/15/2014  08:57:00       96.926       85.227       52.385       42.818       26.939       28.268     1833.393      725.728      799.074        1.138        0.168      129.067       19.248        0.022      331.935        0.270      877.736
01/15/2014  08:58:00       59.778       86.045       57.164       28.436       31.002       28.510      808.632      961.099      812.803        0.841        0.129      104.772       10.717        0.010      331.935        0.271      877.752
01/15/2014  08:59:00       39.964       46.369       58.638       45.345       36.247       31.661     2056.168     1313.814     1002.405        0.578        0.219       61.214       26.473        0.187      332.143        0.614      877.756
01/15/2014  09:00:00       24.059       81.018       80.191       37.322       42.794       35.482     1392.945     1831.332     1258.962        0.903        0.224       84.515       30.162        0.127      332.108        0.555      877.765
01/15/2014  09:01:00       50.437       62.030       72.227       43.797       51.554       39.456     1918.206     2657.838     1556.788        0.887        0.307       79.948       41.740        0.273      332.009        0.393      877.767
01/15/2014  09:02:00       84.443       50.823       41.019       49.235       39.922       33.945     2424.054     1593.801     1152.295        0.828        0.259       98.558       31.914        0.105      332.024        0.417      877.764
01/15/2014  09:03:00      113.502       75.779        2.598       29.407       27.123       22.582      864.770      735.677      509.951        1.037        0.106      136.474        5.980        0.002      331.797        0.043      877.762
01/15/2014  09:04:00       78.540       63.757       27.208       39.685       49.146       50.015     1574.892     2415.342     2501.539        0.873        0.325      101.160       38.597        0.146      332.081        0.512      877.762
01/15/2014  09:05:00       35.666       54.853       63.872       56.112       40.559       40.530     3148.535     1645.058     1642.721        0.740        0.322       65.429       35.463        0.294      332.211        0.727      877.768
01/15/2014  09:06:00       68.426       54.087       44.464       30.290       22.745       19.447      917.481      517.336      378.189        0.570        0.091       87.221       10.951        0.016      332.010        0.394      877.776
01/15/2014  09:07:00      110.752       79.898        2.383       53.000       39.476       29.822     2809.049     1558.368      889.332        1.196        0.263      136.564       17.426        0.016      331.930        0.262      877.783
01/15/2014  09:08:00       97.335       65.438       -2.789       44.675       37.709       23.998     1995.852     1421.993      575.919        0.888        0.200      117.287       15.633        0.018      331.960        0.312      877.786
01/15/2014  09:09:00       91.497       58.811       20.930       49.214       31.400       36.260     2421.999      985.942     1314.768        0.849        0.236      108.768       30.150        0.077      332.139        0.608      877.786
01/15/2014  09:10:00      127.570       72.205        1.462       44.706       27.656       20.744     1998.650      764.827      430.311        1.234        0.160      146.587        4.217        0.001      332.088        0.523      877.794
01/15/2014  09:11:00      120.253       65.407        0.855       30.718       26.354       31.272      943.609      694.551      977.954        1.068        0.131      136.890       19.309        0.020      331.912        0.233      877.805
01/15/2014  09:12:00       75.426       42.884        4.560       46.322       32.912       33.907     2145.687     1083.199     1149.675        0.596        0.219       86.765        7.795        0.008      332.204        0.714      877.809
01/15/2014  09:13:00       92.013       64.698        7.219       32.267       38.511       29.493     1041.190     1483.100      869.867        0.805        0.170      112.482       15.733        0.020      332.332        0.927      877.814
01/15/2014  09:14:00       94.206       85.312        2.356       35.995       29.955       26.703     1295.673      897.292      713.055        0.953        0.145      127.094       10.185        0.006      332.141        0.611      877.816
01/15/2014  09:15:00       97.033       80.274       -4.024       27.594       27.369       25.030      761.404      749.077      626.524        0.901        0.107      125.934       18.257        0.021      332.103        0.549      877.805
01/15/2014  09:16:00       60.402       42.322        4.169       29.831       26.696       22.592      889.914      712.681      510.385        0.378        0.106       73.753       14.228        0.037      332.149        0.624      877.805
01/15/2014  09:17:00       69.157       61.291       -0.371       21.584       20.407       20.298      465.861      416.429      412.018        0.492        0.065       92.408        9.738        0.011      332.008        0.391      877.795
01/15/2014  09:18:00       51.979       53.696        8.109       20.982       20.219       28.599      440.234      408.803      817.925        0.366        0.083       74.734       13.044        0.030      332.296        0.866      877.780
01/15/2014  09:19:00       60.367       58.520       12.725       32.346       17.610       37.190     1046.263      310.099     1383.092        0.498        0.137       84.076       23.010        0.075      332.301        0.873      877.771
01/15/2014  09:20:00       77.162       60.577       -3.920       21.377       18.392       17.088      456.974      338.250      292.004        0.536        0.054       98.100        8.206        0.007      332.120        0.576      877.775
01/15/2014  09:21:00        9.248       50.732       -0.335       29.953       32.583       27.308      897.199     1061.620      745.746        0.268        0.135       51.568       21.802        0.179      332.521        1.238      877.772
01/15/2014  09:22:00        5.325       11.903       16.381       25.192       26.841       18.363      634.618      720.418      337.191        0.106        0.085       13.040       16.117        1.528      333.053        2.118      877.773
01/15/2014  09:23:00       34.069       40.310       36.131       37.948       25.583       22.789     1440.045      654.509      519.332        0.335        0.131       52.778       14.623        0.077      332.886        1.842      877.775
01/15/2014  09:24:00       44.913       33.990       20.367       28.583       29.536       24.418      817.005      872.367      596.263        0.294        0.114       56.324       16.280        0.084      332.667        1.479      877.776
01/15/2014  09:25:00       56.599       52.735       -2.378       24.524       17.494       18.653      601.411      306.051      347.940        0.362        0.063       77.359       10.192        0.017      332.666        1.477      877.777
01/15/2014  09:26:00       53.752       44.877        7.171       24.691       25.055       22.015      609.630      627.732      484.656        0.334        0.086       70.023       18.705        0.071      332.894        1.852      877.784
01/15/2014  09:27:00       69.256       58.319       22.990       33.741       20.744       26.737     1138.473      430.302      714.856        0.550        0.114       90.540       22.301        0.061      332.757        1.627      877.781
01/15/2014  09:28:00       45.607       48.621        6.260       30.410       27.066       26.955      924.776      732.570      726.547        0.343        0.119       66.663       14.161        0.045      332.683        1.507      877.775
01/15/2014  09:29:00       42.359       48.363       -3.117       25.713       23.967       19.790      661.162      574.414      391.647        0.288        0.081       64.290       11.362        0.031      332.782        1.669      877.756
01/15/2014  09:30:00       51.119       59.547        0.281       34.890       29.553       36.381     1217.317      873.405     1323.556        0.479        0.171       78.479       21.631        0.076      332.793        1.688      877.750
01/15/2014  09:31:00       68.515       71.045        9.794       32.019       41.164       31.984     1025.215     1694.434     1023.001        0.679        0.187       98.700       23.908        0.059      332.864        1.805      877.753
01/15/2014  09:32:00       70.492       50.883       -5.544       14.389       20.439       21.542      207.054      417.744      464.056        0.434        0.054       86.938       12.552        0.021      332.525        1.245      877.756
01/15/2014  09:33:00       50.827        9.668      -15.640       19.550       11.166       14.123      382.187      124.689      199.461        0.181        0.035       51.738       10.476        0.041      332.542        1.273      877.758
01/15/2014  09:34:00       30.114       31.522        0.386       14.427       20.207       25.096      208.150      408.308      629.809        0.157        0.062       43.595        8.765        0.040      332.837        1.759      877.763
01/15/2014  09:35:00      -15.063       48.448       -6.100       16.954       21.192       18.515      287.432      449.087      342.823        0.185        0.054       50.736       14.385        0.080      332.945        1.939      877.777
01/15/2014  09:36:00      -20.549       68.069       -3.248       15.382       25.456       19.973      236.598      647.992      398.933        0.317        0.064       71.103       14.313        0.041      332.985        2.004      877.778
01/15/2014  09:37:00       -8.700       13.219        2.795       12.510       27.775       20.021      156.512      771.469      400.838        0.079        0.066       15.825       14.935        0.891      333.205        2.367      877.782
01/15/2014  09:38:00      -20.554       -1.621        7.898       14.421       14.685       16.122      207.975      215.663      259.910        0.059        0.034       20.618        5.442        0.070      333.073        2.149      877.786
01/15/2014  09:39:00       47.081       35.148        6.445       34.265       25.520       25.897     1174.124      651.252      670.669        0.299        0.125       58.754       19.704        0.112      333.327        2.568      877.789
01/15/2014  09:40:00       52.551       54.998       -5.848       24.552       21.710       17.833      602.801      471.307      318.012        0.361        0.070       76.069       13.869        0.033      333.070        2.145      877.798
01/15/2014  09:41:00       25.171       31.238       13.925       43.867       27.047       36.975     1924.276      731.567     1367.173        0.291        0.201       40.118       27.020        0.454      333.500        2.856      877.812
01/15/2014  09:42:00       84.390       42.935        8.756       28.576       25.848       29.716      816.565      668.132      883.028        0.570        0.118       94.684        9.700        0.010      333.286        2.502      877.821
01/15/2014  09:43:00       58.743       23.699       18.093       37.855       21.706       23.104     1433.006      471.165      533.781        0.339        0.122       63.343       14.213        0.050      333.258        2.454      877.833
01/15/2014  09:44:00       -0.598       29.182       11.123       26.934       30.187       23.925      725.425      911.272      572.425        0.159        0.110       29.188       16.885        0.335      333.610        3.037      877.843
01/15/2014  09:45:00      -36.251       58.529       -4.496       29.554       27.748       27.296      873.420      769.926      745.071        0.357        0.119       68.846       24.187        0.123      333.392        2.678      877.864
01/15/2014  09:46:00       80.289       45.681       22.201       55.457       23.051       25.345     3075.434      531.344      642.385        0.664        0.212       92.375       27.686        0.090      333.371        2.642      877.868
01/15/2014  09:47:00      105.183       46.364        4.267       32.499       30.902       22.495     1056.177      954.947      506.016        0.787        0.126      114.949       17.067        0.022      332.930        1.914      877.861
01/15/2014  09:48:00       57.160       47.408       -1.992       31.703       17.853       25.713     1005.111      318.720      661.156        0.375        0.099       74.262        8.804        0.014      333.198        2.356      877.838
01/15/2014  09:49:00      -20.576        1.891       13.562       21.653       32.124       30.278      468.858     1031.941      916.783        0.151        0.121       20.662       25.074        1.473      333.793        3.341      877.806
01/15/2014  09:50:00       14.882       15.706       26.224       22.462       17.737       24.867      504.534      314.587      618.367        0.130        0.072       21.637       19.028        0.773      333.635        3.080      877.788
01/15/2014  09:51:00        3.518       20.929        0.420       19.195       15.742       16.046      368.463      247.812      257.476        0.066        0.044       21.223       11.522        0.295      333.549        2.936      877.780
01/15/2014  09:52:00       -6.007       63.616       -3.076       16.224       36.653       21.248      263.206     1343.436      451.459        0.307        0.103       63.899       21.574        0.114      333.586        2.998      877.778
01/15/2014  09:53:00       -3.019       78.787       -3.015       18.465       36.667       27.335      340.950     1344.459      747.178        0.433        0.122       78.845       24.129        0.094      333.635        3.079      877.784
01/15/2014  09:54:00      -11.690       90.459      -15.302       17.293       27.146       14.866      299.039      736.883      221.010        0.491        0.063       91.211        7.205        0.006      333.382        2.659      877.791
01/15/2014  09:55:00       -2.354       21.833        8.555       12.113       26.090       15.558      146.733      680.667      242.065        0.081        0.053       21.959        8.859        0.163      333.894        3.508      877.809
01/15/2014  09:56:00        0.799       67.994      -17.117       22.302       25.932       18.330      497.399      672.470      335.975        0.321        0.075       67.999        8.554        0.016      333.386        2.666      877.809
01/15/2014  09:57:00       -5.401       21.414      -20.762       12.223       16.850        9.444      149.414      283.913       89.181        0.072        0.026       22.085        9.405        0.181      333.465        2.797      877.809
01/15/2014  09:58:00       47.373       35.532        8.072       32.532       22.695       20.377     1058.301      515.042      415.235        0.278        0.099       59.218       12.164        0.042      333.734        3.244      877.795
01/15/2014  09:59:00       20.852       30.194       39.360       36.783       40.385       28.588     1352.983     1630.936      817.285        0.335        0.190       36.694       13.545        0.136      334.320        4.215      877.771
01/15/2014  10:00:00       46.487       61.434       35.758       52.739       35.255       33.920     2781.370     1242.948     1150.561        0.619        0.259       77.040       29.503        0.147      333.915        3.543      877.756
01/15/2014  10:01:00       98.824       78.949       34.279       35.033       24.795       34.373     1227.317      614.795     1181.483        1.010        0.151      126.488       18.700        0.022      333.640        3.088      877.751
01/15/2014  10:02:00       47.243       43.874        1.504       34.163       27.012       26.708     1167.098      729.661      713.295        0.338        0.131       64.474       14.076        0.048      333.674        3.142      877.724
01/15/2014  10:03:00       24.606        9.197       42.445       26.056       12.420       16.858      678.917      154.262      284.183        0.180        0.056       26.268       12.229        0.217      334.303        4.186      877.699
01/15/2014  10:04:00       45.142       -1.369       20.066       25.160       15.031       25.420      633.033      225.939      646.182        0.197        0.075       45.163       17.302        0.147      334.049        3.766      877.692
01/15/2014  10:05:00       28.771       39.755       54.269       21.115       23.428       14.244      445.849      548.850      202.883        0.328        0.060       49.073       15.488        0.100      334.019        3.716      877.681
01/15/2014  10:06:00       71.396       64.549       63.571       19.436       18.689       17.885      377.759      349.296      319.891        0.718        0.052       96.250        4.576        0.002      333.753        3.275      877.668
01/15/2014  10:07:00       59.584       78.360       63.538       51.728       41.837       46.428     2675.743     1750.344     2155.583        1.015        0.329       98.440       34.313        0.122      334.005        3.692      877.667
01/15/2014  10:08:00       35.633       62.197       79.294       49.008       36.499       23.656     2401.744     1332.157      559.612        0.786        0.215       71.681       13.883        0.038      334.203        4.021      877.669
01/15/2014  10:09:00        7.979       20.340       45.098       36.662       47.270       32.028     1344.067     2234.449     1025.814        0.356        0.230       21.849       22.877        1.096      334.388        4.327      877.659
01/15/2014  10:10:00       49.279      -26.887       32.396       42.543       71.629       49.150     1809.865     5130.762     2415.691        0.678        0.468       56.137       55.628        0.982      334.164        3.957      877.654
01/15/2014  10:11:00       47.411      -49.542       11.316       35.315       49.949       34.472     1247.175     2494.903     1188.311        0.488        0.247       68.573       35.247        0.264      334.317        4.210      877.642
01/15/2014  10:12:00       17.771       29.742       54.078       26.982       37.624       24.456      728.050     1415.549      598.086        0.343        0.137       34.647       19.759        0.325      334.544        4.587      877.623
01/15/2014  10:13:00       31.822       28.077       11.553       32.712       24.206       33.294     1070.077      585.909     1108.506        0.235        0.138       42.438       18.785        0.196      334.006        3.694      877.613
01/15/2014  10:14:00       19.236       20.731       30.078       34.049       29.385       28.016     1159.343      863.457      784.922        0.226        0.140       28.281       22.100        0.611      334.454        4.438      877.601
01/15/2014  10:15:00       44.721       54.655       60.772       44.303       39.373       41.154     1962.779     1550.256     1693.670        0.694        0.260       70.620       26.024        0.136      334.200        4.015      877.585
01/15/2014  10:16:00       13.127       13.384       41.463       33.631       45.466       23.261     1131.020     2067.136      541.056        0.290        0.187       18.747       21.133        1.271      334.389        4.329      877.573
01/15/2014  10:17:00       27.593      -84.309        5.401       37.769       65.190       37.183     1426.511     4249.696     1382.558        0.748        0.353       88.710       42.080        0.225      334.521        4.548      877.570
01/15/2014  10:18:00       63.965      -53.230        3.467       61.538       63.004       35.832     3786.906     3969.516     1283.928        0.799        0.452       83.216       45.126        0.294      334.380        4.314      877.566
01/15/2014  10:19:00       19.851       33.291       66.051       39.768       60.112       46.244     1581.516     3613.484     2138.470        0.660        0.367       38.760       49.906        1.658      334.646        4.755      877.564
01/15/2014  10:20:00       21.847       60.790       75.073       31.794       28.637       22.913     1010.840      820.061      525.003        0.608        0.118       64.597       21.623        0.112      334.404        4.354      877.567
01/15/2014  10:21:00       -1.799       16.329       69.586       29.306       68.340       38.029      858.822     4670.398     1446.227        0.604        0.349       16.428       37.452        5.197      334.717        4.874      877.558
01/15/2014  10:22:00       45.760       78.938       75.346       49.400       38.140       39.511     2440.363     1454.634     1561.147        0.973        0.273       91.242       27.937        0.094      334.342        4.252      877.558
01/15/2014  10:23:00       25.064       67.805       74.426       42.883       42.347       32.018     1838.943     1793.238     1025.156        0.771        0.233       72.289       30.038        0.173      334.478        4.477      877.558
01/15/2014  10:24:00       59.359       78.953       69.265       53.588       55.020       42.563     2871.649     3027.167     1811.632        1.113        0.386       98.778       37.347        0.143      334.425        4.389      877.559
01/15/2014  10:25:00       35.594      -87.575       -7.664       51.997       71.844       44.876     2703.680     5161.628     2013.878        0.944        0.494       94.532       37.890        0.161      334.566        4.622      877.566
01/15/2014  10:26:00       10.767        4.740       60.668       28.801       90.471       38.227      829.508     8184.928     1461.321        0.715        0.524       11.764       48.514       17.007      334.755        4.937      877.571
01/15/2014  10:27:00       37.875      -23.399       12.502       49.634       54.019       52.825     2463.540     2918.018     2790.437        0.515        0.409       44.520       51.542        1.340      334.933        5.232      877.568
01/15/2014  10:28:00      -10.239       76.872      103.673       33.482       49.735       34.537     1121.020     2473.545     1192.793        1.077        0.239       77.551       30.093        0.151      334.585        4.655      877.552
01/15/2014  10:29:00       67.359       -0.739       21.730       53.423       41.591       37.990     2853.982     1729.773     1443.230        0.552        0.301       67.363       34.676        0.265      334.561        4.615      877.551
01/15/2014  10:30:00       52.441       44.259       68.277       63.047       49.896       47.607     3974.978     2489.595     2266.386        0.905        0.437       68.621       37.225        0.294      334.623        4.717      877.554
01/15/2014  10:31:00       68.045       49.775       71.892       60.307       61.547       49.217     3636.977     3788.012     2422.324        1.106        0.492       84.307       46.540        0.305      334.517        4.541      877.557
01/15/2014  10:32:00       39.958       85.052       79.166       57.853       50.900       41.855     3346.994     2590.793     1751.831        1.139        0.384       93.971       36.778        0.153      334.588        4.659      877.558
01/15/2014  10:33:00       37.205       24.434       70.842       43.783       51.691       46.575     1916.911     2671.964     2169.206        0.688        0.338       44.511       41.962        0.889      335.021        5.379      877.555
01/15/2014  10:34:00       38.475       44.007       71.489       55.904       47.346       43.479     3125.289     2241.631     1890.466        0.789        0.363       58.455       39.109        0.448      334.802        5.014      877.548
01/15/2014  10:35:00       40.789       33.786       34.619       32.389       31.153       23.945     1049.047      970.493      573.379        0.330        0.130       52.965       13.157        0.062      334.600        4.680      877.546
01/15/2014  10:36:00       65.740      -59.910       -2.104       45.701       66.421       28.410     2088.544     4411.726      807.144        0.761        0.365       88.943       39.993        0.202      334.584        4.652      877.539
01/15/2014  10:37:00      106.615     -100.465       -6.031       46.478       59.290       32.433     2160.164     3515.262     1051.882        1.411        0.336      146.492       31.505        0.046      334.557        4.608      877.525
01/15/2014  10:38:00       41.688       30.092       57.950       45.939       46.871       34.719     2110.421     2196.852     1205.439        0.576        0.276       51.414       37.348        0.528      334.868        5.126      877.516
01/15/2014  10:39:00       37.848       96.958      106.213       52.774       45.501       33.909     2785.050     2070.364     1149.840        1.406        0.300      104.083       27.957        0.072      334.913        5.201      877.486
01/15/2014  10:40:00       29.907       38.119       81.078       38.844       55.860       32.248     1508.884     3120.357     1039.957        0.729        0.283       48.451       36.701        0.574      334.876        5.138      877.481
01/15/2014  10:41:00       99.695     -115.390      -19.610       36.835       36.446       19.256     1356.813     1328.342      370.796        1.335        0.153      152.492       10.434        0.005      334.409        4.362      877.469
01/15/2014  10:42:00       59.048       42.043       49.529       53.632       55.411       43.502     2876.383     3070.346     1892.434        0.777        0.392       72.487       47.707        0.433      334.909        5.194      877.467
01/15/2014  10:43:00        8.868        7.680       50.324       28.257       46.916       22.892      798.475     2201.147      524.048        0.310        0.176       11.731       25.631        4.774      335.320        5.876      877.457
01/15/2014  10:44:00       18.295       31.793       61.281       28.725       25.558       25.942      825.136      653.214      672.992        0.363        0.108       36.681        9.494        0.067      335.492        6.161      877.464
01/15/2014  10:45:00       41.600       52.630       41.634       48.706       38.961       31.839     2372.275     1517.966     1013.701        0.557        0.245       67.086       25.787        0.148      335.098        5.508      877.464
01/15/2014  10:46:00       19.326       44.218       69.003       36.526       36.760       31.878     1334.171     1351.275     1016.188        0.540        0.185       48.257       24.497        0.258      335.389        5.991      877.470
01/15/2014  10:47:00      142.434       98.729       16.366       63.570       44.351       50.325     4041.155     1967.009     2532.633        1.942        0.427      173.306       39.217        0.051      334.965        5.285      877.463
01/15/2014  10:48:00      137.592      101.816       23.675       62.174       41.526       47.436     3865.561     1724.416     2250.145        1.885        0.392      171.166       14.298        0.007      334.847        5.087      877.467
01/15/2014  10:49:00      128.195       87.432       27.831       21.904       24.212       29.482      479.803      586.230      869.182        1.339        0.097      155.172       16.900        0.012      334.417        4.377      877.459
01/15/2014  10:50:00      111.519       98.917        5.443       41.600       34.454       30.864     1730.559     1187.099      952.596        1.306        0.194      149.067       13.831        0.009      334.625        4.721      877.456
01/15/2014  10:51:00      141.646      107.729       13.236       58.116       39.128       45.412     3377.478     1530.976     2062.220        1.941        0.349      177.958       31.739        0.032      334.580        4.645      877.442
01/15/2014  10:52:00       63.199      100.115       28.883       44.946       43.289       38.248     2020.145     1873.956     1462.902        1.010        0.268      118.394       27.653        0.055      334.984        5.317      877.432
01/15/2014  10:53:00        6.710        3.438       54.835       34.819       66.821       40.968     1212.362     4465.025     1678.408        0.521        0.368        7.540       35.903       22.675      335.280        5.811      877.417
01/15/2014  10:54:00        8.190       15.285       58.800       59.240       68.789       37.551     3509.411     4731.926     1410.070        0.670        0.483       17.341       12.679        0.535      335.396        6.003      877.398
01/15/2014  10:55:00       75.373      100.023       93.708       68.065       58.072       47.306     4632.782     3372.303     2237.856        1.735        0.512      125.242       43.465        0.120      335.009        5.359      877.376
01/15/2014  10:56:00       91.094       85.686       52.115       66.016       36.628       47.809     4358.090     1341.602     2285.745        1.317        0.399      125.061       27.932        0.050      334.831        5.062      877.360
01/15/2014  10:57:00       32.559       75.232       97.575       34.725       41.305       19.059     1205.811     1706.075      363.233        0.976        0.164       81.975       20.847        0.065      335.166        5.619      877.325
01/15/2014  10:58:00       46.653       58.937       84.094       66.207       53.245       40.000     4383.418     2835.071     1600.021        1.077        0.441       75.167       45.714        0.370      335.072        5.463      877.306
01/15/2014  10:59:00       75.011       35.429       40.547       33.595       35.517       35.603     1128.617     1261.480     1267.579        0.609        0.183       82.957       27.254        0.108      334.890        5.160      877.286
01/15/2014  11:00:00       29.196      -31.498        9.793       32.937       24.033       24.822     1084.840      577.602      616.141        0.211        0.114       42.948       22.923        0.285      334.948        5.257      877.276
01/15/2014  11:01:00       57.896       91.253       -9.162       44.252       30.762       30.339     1958.229      946.274      920.435        0.779        0.191      108.069       22.188        0.042      334.922        5.212      877.252
01/15/2014  11:02:00       42.414       75.903       -5.647       32.774       48.087       39.811     1074.125     2312.362     1584.948        0.628        0.249       86.949       38.972        0.201      334.992        5.331      877.242
01/15/2014  11:03:00        0.633       17.761      -12.934       32.468       26.685       31.013     1054.194      712.065      961.815        0.161        0.136       17.772       20.981        1.394      335.098        5.507      877.213
01/15/2014  11:04:00       35.921       23.457       29.282       52.322       35.159       25.307     2737.553     1236.144      640.426        0.366        0.231       42.901        6.191        0.021      335.329        5.892      877.207
01/15/2014  11:05:00       33.317       76.974       55.501       36.970       30.990       44.462     1366.763      960.393     1976.846        0.721        0.215       83.875       33.175        0.156      335.324        5.882      877.185
01/15/2014  11:06:00       83.360       80.459       33.174       52.668       38.306       64.336     2773.937     1467.374     4139.184        1.145        0.419      115.855       40.102        0.120      335.096        5.504      877.196
01/15/2014  11:07:00        0.406       45.271       40.824       20.961       49.144       24.278      439.381     2415.112      589.403        0.358        0.172       45.273       11.470        0.064      335.749        6.590      877.178
01/15/2014  11:08:00        6.031       64.685       93.661       33.998       40.899       20.828     1155.898     1672.690      433.787        0.813        0.163       64.966       22.089        0.116      335.453        6.097      877.182
01/15/2014  11:09:00       38.930       93.656       58.442       27.170       21.385       29.332      738.187      457.315      860.389        0.788        0.103      101.425       17.727        0.031      335.045        5.419      877.180
01/15/2014  11:10:00       24.210       47.784       50.169       31.351       40.986       33.316      982.857     1679.871     1109.942        0.458        0.189       53.567       19.106        0.127      335.308        5.855      877.183
01/15/2014  11:11:00       11.190      -15.340        0.339       25.808       22.686       20.645      666.052      514.645      426.202        0.098        0.080       18.987       12.032        0.402      335.150        5.594      877.183
01/15/2014  11:12:00       36.578       31.359       25.368       56.426       36.213       38.887     3183.918     1311.370     1512.198        0.448        0.300       48.180       31.399        0.425      335.371        5.961      877.183
01/15/2014  11:13:00       90.448        2.623       28.994       39.402       56.005       44.782     1552.532     3136.616     2005.400        0.786        0.335       90.486       27.971        0.096      335.321        5.877      877.182
01/15/2014  11:14:00       40.342       26.850       16.209       28.135       25.496       23.533      791.551      650.038      553.787        0.230        0.100       48.460       21.432        0.196      335.282        5.812      877.179
01/15/2014  11:15:00       94.787       75.184       39.409       46.169       39.289       37.856     2131.595     1543.618     1433.045        1.065        0.255      120.984       26.998        0.050      335.349        5.923      877.172
01/15/2014  11:16:00       42.444       45.271      -10.075       57.701       41.028       29.477     3329.459     1683.319      868.918        0.492        0.294       62.056       30.940        0.249      335.152        5.596      877.168
01/15/2014  11:17:00       44.842       66.229        7.804       49.089       36.473       27.300     2409.699     1330.289      745.305        0.547        0.224       79.982       23.257        0.085      335.382        5.980      877.160
01/15/2014  11:18:00       53.826      -46.133       20.114       27.333       51.407       26.065      747.114     2642.686      679.381        0.475        0.203       70.891       28.224        0.159      335.456        6.102      877.160
01/15/2014  11:19:00       16.328       57.345       70.951       33.342       38.291       18.482     1111.718     1466.189      341.600        0.575        0.146       59.624       17.132        0.083      335.859        6.775      877.142
01/15/2014  11:20:00       62.039       81.481       66.225       76.758       47.388       47.720     5891.862     2245.606     2277.178        1.264        0.521      102.411       49.475        0.233      335.779        6.640      877.124
01/15/2014  11:21:00      119.297       77.211       12.499       72.228       58.747       40.705     5216.898     3451.195     1656.890        1.534        0.516      142.103       37.387        0.069      335.466        6.118      877.114
01/15/2014  11:22:00        1.011       16.572       33.976       25.991       79.837       30.949      675.528     6373.970      957.829        0.472        0.400       16.603       41.759        6.326      335.894        6.832      877.099
01/15/2014  11:23:00       -5.225       28.517       16.223       17.953       26.701       21.477      322.296      712.958      461.261        0.130        0.075       28.991       15.825        0.298      336.111        7.194      877.080
01/15/2014  11:24:00       -7.942       16.738       60.019       22.154       48.321       29.603      490.799     2334.944      876.325        0.382        0.185       18.527       30.021        2.626      336.152        7.261      877.052
01/15/2014  11:25:00        3.158       44.698       87.735       33.341       51.524       33.152     1111.598     2654.749     1099.049        0.728        0.243       44.809       29.238        0.426      336.112        7.196      877.016
01/15/2014  11:26:00       37.620       55.444       49.839       38.358       34.073       30.201     1471.339     1160.937      912.095        0.526        0.177       67.002       15.922        0.056      335.886        6.818      876.998
01/15/2014  11:27:00        8.769       18.045       45.060       21.173       21.922       18.747      448.305      480.566      351.439        0.186        0.064       20.063       11.906        0.352      336.165        7.283      876.983
01/15/2014  11:28:00       47.387       49.958       66.212       51.259       50.546       34.869     2627.458     2554.870     1215.870        0.776        0.320       68.858       23.409        0.116      335.760        6.607      876.959
01/15/2014  11:29:00       14.752       55.683       66.268       39.063       44.110       43.531     1525.952     1945.689     1894.957        0.654        0.268       57.604       31.501        0.299      336.128        7.222      876.940
01/15/2014  11:30:00       -4.255       38.542       41.493       42.137       45.153       33.869     1775.485     2038.805     1147.096        0.409        0.248       38.776       13.598        0.123      336.237        7.405      876.921
01/15/2014  11:31:00       21.607        7.351       57.768       39.685       47.536       27.425     1574.897     2259.631      752.149        0.422        0.229       22.824       21.421        0.881      336.205        7.350      876.916
01/15/2014  11:32:00       44.442      -10.682       31.532       56.621       44.690       30.300     3205.885     1997.196      918.098        0.460        0.306       45.708       38.509        0.710      336.143        7.248      876.915
01/15/2014  11:33:00       31.611       51.087       70.861       40.559       53.990       37.424     1645.026     2914.921     1400.551        0.729        0.298       60.076       30.896        0.264      335.985        6.984      876.897
01/15/2014  11:34:00       62.268      114.789      102.982       65.720       43.534       49.983     4319.111     1895.197     2498.293        1.818        0.436      130.590       46.313        0.126      335.677        6.468      876.874
01/15/2014  11:35:00       77.495       55.428       24.315       36.469       26.564       26.654     1329.980      705.623      710.459        0.621        0.137       95.277       12.227        0.016      335.713        6.531      876.872
01/15/2014  11:36:00       15.972       13.393       18.679       28.708       24.528       21.447      824.124      601.640      459.989        0.133        0.094       20.844       16.145        0.600      336.279        7.474      876.850
01/15/2014  11:37:00       88.867       51.632       19.635       32.783       20.832       25.196     1074.722      433.956      634.825        0.655        0.107      102.778        7.871        0.006      335.774        6.632      876.831
01/15/2014  11:38:00       71.004       69.170       76.796       76.677       48.831       46.662     5879.413     2384.474     2177.344        1.308        0.522       99.127       42.533        0.184      335.996        7.003      876.796
01/15/2014  11:39:00       27.883       41.289       77.272       62.324       71.690       46.138     3884.287     5139.468     2128.703        0.980        0.558       49.822       55.152        1.225      336.265        7.451      876.781
01/15/2014  11:40:00       44.580       86.720       89.353       56.561       48.988       34.432     3199.139     2399.802     1185.577        1.214        0.339       97.508       24.530        0.063      336.172        7.295      876.753
01/15/2014  11:41:00        5.803       55.158       63.739       39.742       48.867       36.830     1579.425     2388.024     1356.427        0.623        0.266       55.462       21.595        0.152      336.322        7.545      876.728
01/15/2014  11:42:00       36.819      -32.740       57.492       59.166       95.325       46.543     3500.636     9086.847     2166.290        1.024        0.738       49.270       49.498        1.009      336.253        7.431      876.717
01/15/2014  11:43:00       45.390       41.621       34.655       36.391       24.557       27.019     1324.283      603.022      730.032        0.382        0.133       61.584       21.809        0.125      336.024        7.049      876.695
01/15/2014  11:44:00       73.906       58.726        6.715       34.904       18.922       32.553     1218.280      358.046     1059.728        0.580        0.132       94.397       10.513        0.012      335.776        6.636      876.680
01/15/2014  11:45:00       46.200       79.088       90.365       52.020       41.977       33.230     2706.123     1762.054     1104.246        1.106        0.279       91.594       29.025        0.100      336.108        7.189      876.647
01/15/2014  11:46:00      101.704       86.094       50.545       57.738       40.772       46.387     3333.678     1662.342     2151.738        1.373        0.357      133.251       36.073        0.073      335.900        6.840      876.620
01/15/2014  11:47:00       43.054       53.999        6.804       39.586       26.304       19.304     1567.081      691.898      372.647        0.372        0.132       69.062       12.867        0.035      335.985        6.984      876.587
01/15/2014  11:48:00       32.860       67.708       32.609       53.261       54.981       46.475     2836.682     3022.915     2159.959        0.737        0.401       75.261       36.330        0.233      336.277        7.472      876.550
01/15/2014  11:49:00      106.900       73.085       19.123       51.694       34.923       48.283     2672.277     1219.626     2331.293        1.168        0.311      129.495       36.031        0.077      335.981        6.975      876.539
01/15/2014  11:50:00       73.086      108.498       26.497       42.189       38.735       48.195     1779.884     1500.427     2322.735        1.171        0.280      130.818       35.141        0.072      336.148        7.256      876.510
01/15/2014  11:51:00       44.723       85.459       67.453       54.363       37.214       39.384     2955.319     1384.862     1551.098        0.987        0.295       96.454       36.456        0.143      336.189        7.325      876.494
01/15/2014  11:52:00       10.953       -7.969       32.462       32.751       46.031       22.278     1072.617     2118.869      496.292        0.246        0.184       13.545       16.779        1.534      336.728        8.225      876.483
01/15/2014  11:53:00       -2.080      -14.484        4.905       26.616       37.772       33.489      708.427     1426.759     1121.518        0.175        0.163       14.632       19.265        1.733      336.684        8.151      876.473
01/15/2014  11:54:00        5.171       36.912        9.488       30.071       34.060       27.416      904.242     1160.112      751.634        0.215        0.141       37.272       24.658        0.438      336.696        8.171      876.466
01/15/2014  11:55:00       20.389        4.411       25.966       20.583       31.800       15.608      423.666     1011.270      243.620        0.139        0.084       20.861       10.663        0.261      336.991        8.663      876.446
01/15/2014  11:56:00      -22.945      -16.225       21.474       23.477       26.950       15.134      551.153      726.303      229.038        0.138        0.075       28.102       16.911        0.362      336.733        8.233      876.444
01/15/2014  11:57:00        2.593       -4.151       20.970       20.799       20.925       13.618      432.608      437.867      185.461        0.076        0.053        4.895        7.987        2.663      337.055        8.772      876.428
01/15/2014  11:58:00        4.805       -8.518       14.586       13.064       16.116       15.061      170.660      259.727      226.841        0.048        0.033        9.780       11.597        1.406      337.236        9.075      876.408
01/15/2014  11:59:00      -56.636      -30.471        9.053       34.765       27.383       17.344     1208.638      749.810      300.823        0.324        0.113       64.313       11.136        0.030      336.548        7.924      876.384
01/15/2014  12:00:00      -24.538      -13.602        3.147       23.276       16.911       15.034      541.785      285.968      226.031        0.093        0.053       28.056       12.816        0.209      336.840        8.414      876.364
01/15/2014  12:01:00      -10.301      -31.028        5.287       18.147       32.674       19.864      329.323     1067.562      394.594        0.144        0.090       32.693       19.568        0.358      336.658        8.109      876.352
01/15/2014  12:02:00       38.948       39.036       52.502       39.171       32.249       25.010     1534.371     1040.008      625.477        0.450        0.160       55.143       18.845        0.117      336.737        8.240      876.331
01/15/2014  12:03:00       78.199       73.634       62.811       28.324       33.610       35.480      802.263     1129.612     1258.847        0.934        0.160      107.411        9.428        0.008      336.532        7.896      876.314
01/15/2014  12:04:00       56.686       64.955       69.593       41.303       46.789       30.217     1705.974     2189.249      913.080        0.854        0.240       86.211       27.044        0.098      336.745        8.254      876.280
01/15/2014  12:05:00       42.989       27.091       44.058       43.093       67.509       24.948     1857.014     4557.509      622.426        0.578        0.352       50.813       20.531        0.163      336.781        8.314      876.255
01/15/2014  12:06:00       40.944      -41.992        4.418       34.398       54.629       31.815     1183.215     2984.301     1012.170        0.432        0.259       58.649       31.318        0.285      336.582        7.979      876.230
01/15/2014  12:07:00       67.571       83.815       60.174       43.763       38.430       41.062     1915.234     1476.833     1686.054        1.014        0.254      107.660       10.697        0.010      336.647        8.088      876.185
01/15/2014  12:08:00       64.835       72.228       44.788       56.441       48.447       49.928     3185.616     2347.105     2492.849        0.972        0.401       97.059       42.761        0.194      336.806        8.355      876.135
01/15/2014  12:09:00       81.174       12.449       34.281       44.374       71.790       46.373     1969.078     5153.830     2150.465        0.859        0.464       82.123       46.918        0.326      336.920        8.545      876.111
01/15/2014  12:10:00       35.515       21.922       57.030       44.618       51.145       32.390     1990.800     2615.825     1049.141        0.532        0.283       41.736       32.393        0.602      337.241        9.082      876.077
01/15/2014  12:11:00       56.452       -0.941       35.972       36.309       49.770       36.544     1318.372     2477.078     1335.479        0.481        0.257       56.460       30.292        0.288      336.995        8.670      876.060
01/15/2014  12:12:00       51.387       65.892       81.610       44.138       53.932       34.530     1948.190     2908.673     1192.348        0.984        0.302       83.561       36.033        0.186      336.887        8.490      876.044
01/15/2014  12:13:00       34.700      -50.420        8.858       56.595       71.554       46.765     3202.974     5120.003     2186.955        0.717        0.525       61.207       47.441        0.601      337.117        8.875      876.037
01/15/2014  12:14:00       20.742        6.848       46.110       39.532       69.800       58.504     1562.758     4872.086     3422.763        0.623        0.493       21.843       57.537        6.938      337.183        8.985      876.026
01/15/2014  12:15:00       32.849       82.466       74.927       47.930       33.807       33.687     2297.325     1142.930     1134.845        0.903        0.229       88.767       23.922        0.073      336.855        8.436      876.009
01/15/2014  12:16:00       17.712       11.507       47.599       31.196       32.764       23.353      973.165     1073.455      545.363        0.265        0.130       21.122       20.136        0.909      337.423        9.386      876.000
01/15/2014  12:17:00       -8.174       14.182       41.360       18.320       44.569       18.896      335.611     1986.389      357.041        0.233        0.134       16.369       15.739        0.925      337.531        9.568      875.984
01/15/2014  12:18:00        3.033      -18.962       22.760       17.305       19.870       20.853      299.468      394.805      434.856        0.101        0.056       19.203        8.128        0.179      337.861       10.121      875.985
01/15/2014  12:19:00       69.817      -53.857        9.365       53.546       58.259       35.303     2867.124     3394.055     1246.271        0.768        0.375       88.176       34.184        0.150      337.284        9.155      875.961
01/15/2014  12:20:00        9.624       12.536       33.404       37.219       56.510       40.177     1385.250     3193.361     1614.196        0.378        0.310       15.804       36.739        5.404      337.161        8.949      875.937
01/15/2014  12:21:00       11.731      -48.814        0.818       42.363       44.699       27.033     1794.659     1998.007      730.785        0.352        0.226       50.204       30.264        0.363      337.344        9.256      875.902
01/15/2014  12:22:00      -36.359      -24.848       25.719       42.249       54.062       27.387     1784.939     2922.710      750.060        0.403        0.273       44.039       29.878        0.460      337.123        8.884      875.875
01/15/2014  12:23:00      -55.869      -34.360       -1.113       33.526       42.747       22.207     1124.008     1827.268      493.129        0.387        0.172       65.589       12.820        0.038      336.957        8.606      875.834
01/15/2014  12:24:00      -23.122      -14.789       12.945       30.760       36.711       22.679      946.175     1347.672      514.349        0.186        0.140       27.446       22.405        0.666      337.387        9.326      875.794
01/15/2014  12:25:00      -23.824      -25.221        6.137       48.378       27.691       20.305     2340.413      766.782      412.295        0.238        0.176       34.694       20.192        0.339      337.487        9.496      875.777
01/15/2014  12:26:00       17.460      -22.075        9.502       32.626       32.268       24.771     1064.457     1041.203      613.601        0.180        0.136       28.146       15.547        0.305      337.200        9.014      875.760
01/15/2014  12:27:00       -0.203      -29.769        6.467       34.070       35.166       27.410     1160.776     1236.618      751.306        0.204        0.157       29.769       22.854        0.589      337.352        9.268      875.736
01/15/2014  12:28:00       16.837       33.721       17.314       23.436       23.733       20.232      549.245      563.235      409.340        0.162        0.076       37.690        5.735        0.023      337.353        9.270      875.717
01/15/2014  12:29:00       -5.406       37.038       50.804       36.244       47.333       51.500     1313.621     2240.381     2652.229        0.509        0.310       37.430       43.225        1.334      337.668        9.797      875.701
01/15/2014  12:30:00        6.248       60.542       77.281       45.623       50.440       35.498     2081.414     2544.209     1260.113        0.778        0.294       60.863       32.697        0.289      337.447        9.428      875.697
01/15/2014  12:31:00       11.260       14.457       39.170       35.283       37.454       21.994     1244.881     1402.819      483.731        0.250        0.157       18.325       14.569        0.632      337.756        9.945      875.687
01/15/2014  12:32:00       47.537       66.545       59.063       65.063       49.492       54.850     4233.252     2449.465     3008.490        0.993        0.485       81.780       42.251        0.267      337.482        9.485      875.684
01/15/2014  12:33:00       27.005       21.024        5.136       46.028       32.855       28.171     2118.575     1079.449      793.590        0.259        0.200       34.224       14.736        0.185      337.448        9.429      875.671
01/15/2014  12:34:00      108.259      -86.695      -12.570       74.213       59.237       43.317     5507.515     3508.974     1876.366        1.514        0.545      138.694       43.611        0.099      337.275        9.138      875.656
01/15/2014  12:35:00       43.365      -44.437       25.234       48.550       67.737       52.010     2357.148     4588.345     2705.047        0.707        0.483       62.090       51.841        0.697      337.603        9.689      875.651
01/15/2014  12:36:00       56.712      -85.515       -8.311       30.037       41.604       27.208      902.243     1730.919      740.275        0.699        0.169      102.611       15.267        0.022      337.332        9.236      875.643
01/15/2014  12:37:00       47.948      -14.471        1.370       30.175       19.921       21.797      910.557      396.851      475.096        0.215        0.089       50.084       17.302        0.119      337.366        9.292      875.637
01/15/2014  12:38:00       35.453      -57.755       21.089       43.715       63.132       30.036     1911.041     3985.681      902.163        0.592        0.340       67.769       38.019        0.315      337.631        9.736      875.619
01/15/2014  12:39:00       51.952      -66.227       -3.475       42.860       61.740       25.797     1836.951     3811.871      665.466        0.670        0.316       84.173       30.602        0.132      337.487        9.494      875.603
01/15/2014  12:40:00        8.108       11.937       38.906       21.418       34.091       18.763      458.751     1162.173      352.061        0.185        0.099       14.430       10.815        0.562      337.947       10.267      875.574
01/15/2014  12:41:00       47.712      -81.771        1.049       58.307       55.165       30.267     3399.698     3043.201      916.105        0.816        0.368       94.673       27.431        0.084      337.640        9.751      875.558
01/15/2014  12:42:00       29.725      -76.685        7.690       49.655       62.508       50.746     2465.659     3907.282     2575.185        0.788        0.447       82.245       47.918        0.339      337.777        9.979      875.539
01/15/2014  12:43:00        2.150       12.155       51.715       35.620       50.547       41.322     1268.762     2554.974     1707.531        0.418        0.277       12.344       40.915       10.986      337.825       10.061      875.525
01/15/2014  12:44:00       35.663      -47.048       20.579       51.047       65.846       34.135     2605.841     4335.741     1165.227        0.601        0.405       59.037       37.553        0.405      337.744        9.925      875.514
01/15/2014  12:45:00       28.267       69.558       69.027       42.330       34.045       23.995     1791.809     1159.062      575.765        0.696        0.176       75.082       11.331        0.023      337.652        9.771      875.496
01/15/2014  12:46:00       61.690       70.793       69.092       35.204       33.711       22.573     1239.315     1136.465      509.549        0.824        0.144       93.900       13.369        0.020      337.498        9.513      875.479
01/15/2014  12:47:00      110.072     -143.218      -11.496       88.728       87.172       48.552     7872.645     7599.002     2357.259        2.529        0.891      180.630       57.747        0.102      337.435        9.403      875.462
01/15/2014  12:48:00       36.779       68.119      119.194       59.166       65.905       50.555     3500.596     4343.468     2555.835        1.530        0.520       77.414       44.590        0.332      337.740        9.917      875.434
01/15/2014  12:49:00       81.712       37.295       62.784       82.513       99.648       65.647     6808.407     9929.719     4309.468        1.652        1.052       89.821       73.482        0.669      337.532        9.568      875.435
01/15/2014  12:50:00      116.696       78.630       36.793       53.677       32.447       33.504     2881.172     1052.819     1122.512        1.310        0.253      140.715       28.975        0.042      337.264        9.120      875.447
01/15/2014  12:51:00       90.374       26.072       18.013       46.552       52.758       32.279     2167.072     2783.458     1041.954        0.758        0.300       94.059       26.888        0.082      337.321        9.216      875.443
01/15/2014  12:52:00       32.546       32.871       45.239       28.459       34.199       23.988      809.926     1169.593      575.413        0.337        0.128       46.258       17.465        0.143      337.767        9.963      875.442
01/15/2014  12:53:00       54.951      -30.663       12.394       32.889       46.014       35.384     1081.690     2117.273     1252.028        0.428        0.223       62.927       29.194        0.215      337.721        9.887      875.436
01/15/2014  12:54:00       15.866       -4.616       28.553       38.474       32.173       19.028     1480.240     1035.084      362.054        0.198        0.144       16.524       17.987        1.185      338.034       10.412      875.423
01/15/2014  12:55:00       -0.938        8.791       25.249       33.723       47.586       26.295     1137.249     2264.385      691.414        0.240        0.205        8.841       26.578        9.036      337.787        9.996      875.412
01/15/2014  12:56:00        3.183       28.215       86.028       43.383       80.366       55.306     1882.057     6458.693     3058.750        0.980        0.570       28.394       58.621        4.262      337.933       10.241      875.389
01/15/2014  12:57:00       23.387       36.460       47.592       43.829       37.841       42.958     1921.018     1431.949     1845.349        0.467        0.260       43.316       33.324        0.592      337.803       10.024      875.375
01/15/2014  12:58:00       97.468       64.093       53.735       50.987       31.659       40.793     2599.676     1002.278     1664.048        1.088        0.263      116.653       35.924        0.095      337.643        9.755      875.344
01/15/2014  12:59:00       62.397       77.580        7.338       40.097       25.303       28.295     1607.737      640.257      800.616        0.651        0.152       99.559       22.123        0.049      337.435        9.406      875.326
01/15/2014  13:00:00       56.590       46.184       12.147       35.434       32.431       22.830     1255.551     1051.741      521.194        0.416        0.141       73.044       19.274        0.070      337.818       10.050      875.307
01/15/2014  13:01:00       48.621       40.112       27.722       41.384       33.992       33.917     1712.661     1155.430     1150.338        0.438        0.201       63.031       26.806        0.181      337.954       10.276      875.291
01/15/2014  13:02:00       35.676       49.820       65.947       35.800       35.462       25.876     1281.610     1257.558      669.542        0.566        0.160       61.277       18.463        0.091      338.054       10.446      875.268
01/15/2014  13:03:00      -11.257       35.405       78.187       19.378       46.020       30.068      375.502     2117.813      904.061        0.544        0.170       37.152       32.187        0.751      338.178       10.653      875.270
01/15/2014  13:04:00       25.317      -17.639       14.606       29.056       42.450       36.109      844.253     1802.042     1303.848        0.256        0.198       30.856       30.141        0.954      337.826       10.063      875.287
01/15/2014  13:05:00       15.376       26.106       16.434       26.893       34.320       32.596      723.244     1177.846     1062.481        0.208        0.148       30.298       26.652        0.774      337.852       10.106      875.277
01/15/2014  13:06:00       -2.308       -1.394        6.871       17.177        9.949       20.005      295.064       98.985      400.209        0.042        0.040        2.697        5.414        4.031      338.414       11.050      875.279
01/15/2014  13:07:00       14.575       24.529       12.381       24.734       25.312       21.672      611.757      640.703      469.690        0.134        0.086       28.533       17.086        0.359      338.246       10.769      875.277
01/15/2014  13:08:00       70.402       83.665       64.351       57.420       48.179       44.525     3297.072     2321.236     1982.493        1.185        0.380      109.345       34.229        0.098      337.950       10.271      875.264
01/15/2014  13:09:00       24.840       -6.328       35.072       36.311       49.914       38.057     1318.470     2491.450     1448.301        0.357        0.263       25.634       32.638        1.621      338.132       10.574      875.240
01/15/2014  13:10:00       30.365       62.935       76.550       41.531       42.653       27.320     1724.797     1819.258      746.399        0.752        0.215       69.877       17.642        0.064      338.081       10.491      875.210
01/15/2014  13:11:00      115.432       62.261       30.181       50.486       49.566       45.535     2548.808     2456.792     2073.468        1.259        0.354      131.153       32.057        0.060      337.753        9.940      875.207
01/15/2014  13:12:00       31.907       67.209       70.302       49.121       52.940       50.031     2412.893     2802.642     2503.054        0.910        0.386       74.398       40.058        0.290      338.069       10.470      875.192
01/15/2014  13:13:00       84.345       96.576       79.411       70.308       52.110       42.834     4943.184     2715.422     1834.792        1.612        0.475      128.223       38.746        0.091      337.838       10.083      875.167
01/15/2014  13:14:00       89.918       32.033       16.629       55.377       31.545       31.754     3066.638      995.071     1008.333        0.723        0.254       95.453       21.934        0.053      337.920       10.220      875.155
01/15/2014  13:15:00       61.288       73.360       75.267       78.213       54.910       60.789     6117.252     3015.067     3695.269        1.381        0.641       95.593       62.360        0.426      338.075       10.479      875.118
01/15/2014  13:16:00       63.210       32.797       69.535       42.886       41.115       37.453     1839.248     1690.446     1402.761        0.742        0.247       71.212       32.223        0.205      337.930       10.236      875.091
01/15/2014  13:17:00        5.040       31.818       17.359       33.807       52.598       35.594     1142.895     2766.540     1266.917        0.326        0.259       32.215       25.785        0.641      337.975       10.312      875.070
01/15/2014  13:18:00       81.695       49.442        1.781       42.969       31.245       30.104     1846.353      976.252      906.232        0.642        0.186       95.491       21.071        0.049      337.976       10.314      875.032
01/15/2014  13:19:00       82.219       53.817       24.050       59.606       47.232       26.738     3552.849     2230.848      714.927        0.837        0.325       98.266       16.214        0.027      338.082       10.491      874.992
01/15/2014  13:20:00       48.572       58.306       65.420       52.811       51.753       59.444     2788.960     2678.351     3533.645        0.952        0.450       75.887       40.651        0.287      338.043       10.427      874.967
01/15/2014  13:21:00       74.697      109.774       85.615       52.312       51.493       46.263     2736.513     2651.478     2140.291        1.624        0.376      132.778       31.290        0.056      338.077       10.483      874.949
01/15/2014  13:22:00       53.569       22.286       12.869       27.670       40.170       25.050      765.612     1613.633      627.498        0.327        0.150       58.020       17.527        0.091      337.858       10.116      874.928
01/15/2014  13:23:00       40.861       62.150       58.675       51.909       47.230       32.097     2694.532     2230.653     1030.231        0.746        0.298       74.379       34.072        0.210      338.243       10.762      874.892
01/15/2014  13:24:00       16.073       75.679       99.540       50.887       46.750       34.231     2589.458     2185.579     1171.789        1.092        0.297       77.367       22.505        0.085      338.399       11.025      874.869
01/15/2014  13:25:00        9.373       24.091       47.587       47.722       50.100       25.369     2277.432     2510.040      643.589        0.418        0.272       25.850       27.479        1.130      338.399       11.023      874.859
01/15/2014  13:26:00       49.597      -19.566       27.768       34.431       61.034       43.469     1185.523     3725.146     1889.563        0.521        0.340       53.317       41.809        0.615      338.237       10.751      874.839
01/15/2014  13:27:00        1.899       40.091       56.766       37.192       38.906       34.364     1383.218     1513.649     1180.864        0.445        0.204       40.135       31.995        0.635      338.507       11.205      874.821
01/15/2014  13:28:00       58.968       68.638       48.896       52.562       50.560       37.520     2762.774     2556.330     1407.726        0.865        0.336       90.490       20.765        0.053      338.379       10.991      874.811
01/15/2014  13:29:00       85.407      133.413      116.847       62.845       57.886       51.322     3949.537     3350.755     2633.903        2.434        0.497      158.409       36.859        0.054      338.026       10.396      874.808
01/15/2014  13:30:00       63.328       82.167       90.793       37.652       41.754       32.082     1417.700     1743.422     1029.247        1.160        0.210      103.739       30.721        0.088      337.993       10.341      874.800
01/15/2014  13:31:00      126.437      106.985       57.037       52.555       45.331       48.496     2761.994     2054.943     2351.815        1.893        0.358      165.627       37.981        0.053      337.907       10.197      874.791
01/15/2014  13:32:00       78.631       48.757       15.797       26.244       21.238       33.125      688.741      451.057     1097.234        0.552        0.112       92.521       18.721        0.041      337.945       10.262      874.810
01/15/2014  13:33:00       37.954       24.258       17.258       44.512       30.018       21.506     1981.355      901.099      462.517        0.284        0.167       45.044       25.147        0.312      338.362       10.962      874.813
01/15/2014  13:34:00       -4.990       32.742       43.455       28.381       31.142       35.856      805.508      969.840     1285.640        0.302        0.153       33.120       23.022        0.483      338.594       11.353      874.815
01/15/2014  13:35:00       38.889       28.323       19.455       35.050       25.138       27.569     1228.526      631.927      760.054        0.266        0.131       48.110       10.519        0.048      338.290       10.841      874.822
01/15/2014  13:36:00       52.699       62.390       16.409       47.500       51.017       49.050     2256.265     2602.740     2405.927        0.710        0.363       81.668       25.079        0.094      338.272       10.811      874.822
01/15/2014  13:37:00       87.850       73.242       15.175       50.146       34.107       36.886     2514.651     1163.259     1360.570        0.917        0.252      114.377       15.998        0.020      338.052       10.442      874.818
01/15/2014  13:38:00       15.130       77.933       56.265       42.421       37.401       40.776     1799.578     1398.805     1662.720        0.716        0.243       79.388       32.451        0.167      338.287       10.836      874.805
01/15/2014  13:39:00       56.541       69.743       67.165       66.510       56.372       50.901     4423.621     3177.796     2590.866        1.138        0.510       89.783       45.537        0.257      338.256       10.785      874.811
01/15/2014  13:40:00      125.330       85.346       44.156       93.473       47.422       39.629     8737.206     2248.829     1570.453        1.875        0.628      151.630       45.160        0.089      338.194       10.680      874.808
01/15/2014  13:41:00       33.797       50.473       78.085       54.707       70.565       43.273     2992.864     4979.381     1872.557        0.981        0.492       60.744       41.401        0.465      338.329       10.908      874.786
01/15/2014  13:42:00       79.889       75.187       78.333       46.740       54.930       34.764     2184.587     3017.262     1208.522        1.229        0.321      109.706       30.847        0.079      338.097       10.516      874.766
01/15/2014  13:43:00       42.688       49.046       46.553       48.743       44.220       34.077     2375.910     1955.384     1161.228        0.594        0.275       65.021       32.771        0.254      338.208       10.702      874.767
01/15/2014  13:44:00       71.229       52.408       31.254       55.646       47.569       40.977     3096.509     2262.824     1679.126        0.792        0.352       88.432       28.083        0.101      338.280       10.824      874.763
01/15/2014  13:45:00      120.007       81.728        7.429       73.828       61.703       43.664     5450.562     3807.199     1906.546        1.615        0.558      145.193       37.485        0.067      338.269       10.805      874.753
01/15/2014  13:46:00       82.176       80.755       12.044       53.847       39.409       38.899     2899.524     1553.046     1513.128        0.969        0.298      115.214       27.794        0.058      338.205       10.699      874.731
01/15/2014  13:47:00       27.738       50.894       67.601       55.837       55.345       42.602     3117.732     3063.055     1814.932        0.796        0.400       57.962       26.527        0.209      338.546       11.270      874.720
01/15/2014  13:48:00      111.599      100.406        4.118       54.257       50.855       52.568     2943.803     2586.242     2763.405        1.542        0.415      150.119       35.174        0.055      338.241       10.757      874.722
01/15/2014  13:49:00      141.817       98.243       12.530       45.737       34.424       27.342     2091.858     1184.988      747.588        1.697        0.201      172.522        3.607        0.000      338.036       10.414      874.724
01/15/2014  13:50:00      105.994       76.785        9.589       48.683       45.792       46.562     2370.024     2096.896     2168.034        1.193        0.332      130.884       27.603        0.044      338.147       10.600      874.702
01/15/2014  13:51:00       89.969       48.709       25.021       59.120       52.459       45.942     3495.131     2751.985     2110.639        0.972        0.418      102.308       35.831        0.123      338.425       11.066      874.689
01/15/2014  13:52:00       49.902       87.626       80.938       67.113       80.469       64.058     4504.115     6475.293     4103.424        1.590        0.754      100.839       42.293        0.176      338.615       11.387      874.677
01/15/2014  13:53:00       44.823       85.527      101.924       81.511       65.103       53.420     6644.114     4238.430     2853.690        1.672        0.687       96.561       51.271        0.282      338.482       11.162      874.670
01/15/2014  13:54:00       65.922       84.659       26.000       47.748       44.813       48.430     2279.892     2008.231     2345.465        0.941        0.332      107.298       35.912        0.112      338.485       11.169      874.662
01/15/2014  13:55:00       56.725       60.486       20.634       61.067       48.166       42.115     3729.143     2319.934     1773.692        0.756        0.391       82.923       30.591        0.136      338.585       11.336      874.640
01/15/2014  13:56:00       42.898       79.906       71.495       81.199       67.052       59.061     6593.344     4495.996     3488.245        1.395        0.729       90.693       49.157        0.294      338.649       11.443      874.618
01/15/2014  13:57:00      146.062      104.432       34.665       77.688       58.747       67.754     6035.485     3451.238     4590.639        2.376        0.704      179.555       44.080        0.060      338.415       11.049      874.601
01/15/2014  13:58:00       31.973       93.507       88.289       60.379       61.612       69.103     3645.655     3796.058     4775.287        1.489        0.611       98.823       55.941        0.320      338.617       11.391      874.579
01/15/2014  13:59:00       84.585       39.848       38.872       71.208       65.817       52.839     5070.551     4331.831     2791.921        1.122        0.610       93.501       39.291        0.177      338.476       11.153      874.571
01/15/2014  14:00:00       74.348       41.736       50.856       75.262       51.768       49.279     5664.346     2679.893     2428.437        1.031        0.539       85.261       34.062        0.160      338.566       11.305      874.541
01/15/2014  14:01:00      157.262      115.483       36.023       53.927       49.816       47.089     2908.100     2481.668     2217.388        2.348        0.380      195.109       16.428        0.007      338.533       11.247      874.527
01/15/2014  14:02:00      153.283       73.508       44.940       43.965       42.923       37.464     1932.917     1842.418     1403.562        1.805        0.259      169.997       18.460        0.012      338.507       11.205      874.518
01/15/2014  14:03:00       85.864       79.904      110.346       86.197       63.733       55.622     7429.906     4061.916     3093.778        2.026        0.729      117.291       57.621        0.241      338.584       11.334      874.510
01/15/2014  14:04:00       72.220       45.333       17.734       66.419       58.854       47.861     4411.508     3463.767     2290.695        0.887        0.508       85.269       34.085        0.160      338.747       11.607      874.516
01/15/2014  14:05:00      100.873       92.409       91.113       73.274       70.256       62.742     5369.140     4935.871     3936.522        2.063        0.712      136.802       52.895        0.149      338.754       11.619      874.511
01/15/2014  14:06:00      108.081      116.297       93.441       72.243       52.499       58.515     5219.058     2756.112     3423.956        2.267        0.570      158.765       57.122        0.129      338.557       11.288      874.511
01/15/2014  14:07:00      118.093       58.520       46.610       56.707       89.098       48.481     3215.662     7938.524     2350.410        1.652        0.675      131.798       44.488        0.114      338.519       11.225      874.513
01/15/2014  14:08:00      111.044       79.650       46.075       59.405       35.751       45.350     3529.006     1278.134     2056.622        1.383        0.343      136.656       37.416        0.075      338.647       11.442      874.517
01/15/2014  14:09:00      135.381       96.559       62.083       69.004       71.268       58.478     4761.606     5079.127     3419.627        2.238        0.663      166.287       47.955        0.083      338.594       11.349      874.511
01/15/2014  14:10:00       28.069       42.112       47.377       53.515       48.773       40.007     2863.897     2378.795     1600.572        0.582        0.342       50.609       36.071        0.508      338.982       12.003      874.524
01/15/2014  14:11:00       78.493       16.805       51.366       78.915       74.269       58.764     6227.649     5515.946     3453.196        1.214        0.760       80.272       54.545        0.462      338.940       11.934      874.530
01/15/2014  14:12:00       81.365       56.239      101.609       96.189       94.164       53.798     9252.282     8866.781     2894.199        2.056        1.051       98.910       55.318        0.313      338.889       11.846      874.527
01/15/2014  14:13:00       26.437       64.202       90.538       60.801       59.016       47.395     3696.776     3482.860     2246.316        1.122        0.471       69.432       47.347        0.465      338.974       11.989      874.542
01/15/2014  14:14:00       10.302       54.726       57.033       51.576       58.404       54.985     2660.049     3411.066     3023.315        0.772        0.455       55.687       44.326        0.634      339.148       12.282      874.556
01/15/2014  14:15:00      126.333       83.281       53.666       74.165       68.143       60.085     5500.487     4643.444     3610.197        1.976        0.688      151.314       52.346        0.120      338.677       11.490      874.571
01/15/2014  14:16:00      100.945      116.150       79.938       69.365       58.297       62.851     4811.474     3398.552     3950.281        2.111        0.608      153.885       53.234        0.120      338.735       11.586      874.568
01/15/2014  14:17:00       62.718       70.617       92.953       74.916       62.234       49.741     5612.381     3873.111     2474.123        1.476        0.598       94.447       51.254        0.294      338.907       11.877      874.558
01/15/2014  14:18:00       70.741       78.458       66.190       70.621       66.083       63.254     4987.276     4367.012     4001.042        1.445        0.668      105.641       55.881        0.280      338.951       11.951      874.553
01/15/2014  14:19:00       87.825       29.069       29.842       50.718       64.055       46.500     2572.326     4103.098     2162.270        0.914        0.442       92.511       40.213        0.189      339.089       12.184      874.546
01/15/2014  14:20:00      147.512      117.755       76.480       76.094       64.209       48.860     5790.257     4122.783     2387.345        2.689        0.615      188.749       39.731        0.044      338.879       11.828      874.535
01/15/2014  14:21:00      101.792      112.763      119.157       75.523       77.367       54.588     5703.665     5985.708     2979.805        2.597        0.733      151.912       55.245        0.132      338.867       11.808      874.528
01/15/2014  14:22:00       88.482       73.493      104.557       64.116       57.178       46.339     4110.812     3269.367     2147.317        1.684        0.476      115.023       36.868        0.103      338.798       11.691      874.519
01/15/2014  14:23:00       47.645       83.533       82.708       53.549       59.582       39.379     2867.547     3549.956     1550.719        1.203        0.398       96.165       29.870        0.096      338.994       12.024      874.504
01/15/2014  14:24:00       88.940      108.794       88.766       69.931       43.327       46.756     4890.283     1877.232     2186.137        1.829        0.448      140.522       42.275        0.091      338.906       11.876      874.493
01/15/2014  14:25:00       46.217       76.956       93.502       54.760       57.732       36.310     2998.626     3333.037     1318.428        1.222        0.383       89.768       35.941        0.160      338.977       11.994      874.482
01/15/2014  14:26:00       37.021       31.571       50.799       35.245       46.697       39.071     1242.243     2180.649     1526.556        0.495        0.247       48.655       37.491        0.594      339.004       12.042      874.471
01/15/2014  14:27:00       48.861      -23.280       27.878       53.129       29.852       25.095     2822.676      891.159      629.779        0.402        0.217       54.124       21.446        0.157      338.996       12.028      874.459
01/15/2014  14:28:00       60.080       66.889       32.079       33.666       34.923       36.016     1133.414     1219.616     1297.134        0.638        0.183       89.910       26.550        0.087      338.920       11.900      874.437
01/15/2014  14:29:00       31.298       25.236       -3.627       30.338       37.170       17.770      920.423     1381.611      315.780        0.212        0.131       40.205       10.403        0.067      339.112       12.222      874.432
01/15/2014  14:30:00       54.103      -68.102       -3.296       45.981       38.178       23.147     2114.256     1457.592      535.798        0.584        0.205       86.978       20.221        0.054      339.064       12.143      874.426
01/15/2014  14:31:00       79.842      -91.714        1.546       50.636       31.979       25.959     2563.993     1022.670      673.889        0.952        0.213      121.598       15.148        0.016      339.130       12.252      874.419
01/15/2014  14:32:00       21.531       -3.139       19.114       48.376       32.748       21.786     2340.285     1072.413      474.636        0.236        0.194       21.759       25.400        1.363      339.223       12.409      874.412
01/15/2014  14:33:00        5.867       -8.200       19.955       35.130       52.829       29.140     1234.122     2790.956      849.156        0.269        0.244       10.083       30.371        9.073      339.330       12.589      874.405
01/15/2014  14:34:00       46.535       63.359       49.604       52.751       43.687       41.185     2782.634     1908.560     1696.190        0.751        0.319       78.612       30.243        0.148      339.219       12.405      874.385
01/15/2014  14:35:00       63.571       69.884       85.832       63.229       60.976       50.351     3997.885     3718.071     2535.193        1.327        0.513       94.472       51.789        0.301      339.142       12.273      874.383
01/15/2014  14:36:00       91.759       70.368       58.178       56.961       44.127       40.078     3244.604     1947.203     1606.218        1.178        0.340      115.635       32.852        0.081      339.142       12.273      874.371
01/15/2014  14:37:00      189.786       97.444       49.897       62.160       38.479       48.307     3863.875     1480.634     2333.566        2.784        0.384      213.340       42.176        0.039      339.143       12.272      874.360
01/15/2014  14:38:00      137.269      133.152       70.643       66.343       38.833       51.670     4401.355     1508.037     2669.781        2.507        0.429      191.239       48.204        0.064      338.981       11.999      874.364
01/15/2014  14:39:00       39.372       79.954       97.247       59.706       43.020       24.111     3564.762     1850.752      581.322        1.170        0.300       89.122       23.889        0.072      339.156       12.295      874.373
01/15/2014  14:40:00      123.927       78.389       57.271       62.369       47.997       48.272     3889.924     2303.716     2330.186        1.665        0.426      146.638       43.092        0.086      339.049       12.117      874.375
01/15/2014  14:41:00       71.184       66.382       71.359       66.847       54.027       48.857     4468.548     2918.868     2387.050        1.217        0.489       97.333       45.859        0.222      339.063       12.139      874.375
01/15/2014  14:42:00       54.441      123.592      126.646       75.656       52.360       42.107     5723.759     2741.521     1773.037        2.226        0.512      135.051       40.844        0.091      339.067       12.146      874.360
01/15/2014  14:43:00       96.886       48.981       75.596       63.743       69.251       61.033     4063.208     4795.669     3725.047        1.504        0.629      108.563       60.850        0.314      339.019       12.068      874.362
01/15/2014  14:44:00       79.417       42.635       48.269       60.861       45.022       35.064     3704.120     2026.972     1229.463        0.871        0.348       90.138       28.065        0.097      339.139       12.267      874.359
01/15/2014  14:45:00       72.105       57.801       69.862       73.459       54.389       36.417     5396.275     2958.176     1326.183        1.155        0.484       92.413       30.607        0.110      339.109       12.218      874.346
01/15/2014  14:46:00       62.171       26.038       68.909       55.587       39.062       33.058     3089.884     1525.866     1092.859        0.750        0.285       67.403       26.143        0.150      339.193       12.359      874.345
01/15/2014  14:47:00       82.717       68.089       72.667       46.416       41.149       37.656     2154.449     1693.238     1417.983        1.101        0.263      107.136       26.199        0.060      339.154       12.295      874.335
01/15/2014  14:48:00       10.260        2.266       28.333       34.691       51.961       33.446     1203.469     2699.927     1118.665        0.297        0.251       10.507       34.671       10.889      339.420       12.743      874.323
01/15/2014  14:49:00       50.575      -30.235        9.744       33.273       68.566       33.016     1107.091     4701.282     1090.081        0.523        0.345       58.923       42.125        0.511      339.141       12.270      874.312
01/15/2014  14:50:00       16.716      -46.974       11.960       22.239       46.036       24.158      494.563     2119.343      583.617        0.291        0.160       49.860       22.536        0.204      339.314       12.560      874.303
01/15/2014  14:51:00       22.617      -13.219       18.371       28.064       46.551       23.897      787.562     2167.019      571.067        0.227        0.176       26.197       21.907        0.699      339.428       12.753      874.301
01/15/2014  14:52:00       53.669       60.163       54.743       72.390       45.203       43.494     5240.366     2043.305     1891.703        0.933        0.459       80.623       42.905        0.283      339.189       12.351      874.289
01/15/2014  14:53:00       86.617       40.346        7.635       30.127       54.949       27.914      907.612     3019.435      779.209        0.695        0.235       95.552       34.470        0.130      339.040       12.102      874.280
01/15/2014  14:54:00       31.193       20.845        1.185       22.096       28.016       17.525      488.247      784.893      307.124        0.149        0.079       37.517       11.545        0.095      339.127       12.247      874.270
01/15/2014  14:55:00       31.846        8.217       10.676       26.059       38.310       17.333      679.080     1467.636      300.435        0.182        0.122       32.889       12.911        0.154      339.301       12.540      874.251
01/15/2014  14:56:00       94.226     -132.528      -17.510       48.647       38.890       18.448     2366.483     1512.429      340.347        1.548        0.211      162.610       18.960        0.014      339.234       12.426      874.222
01/15/2014  14:57:00       35.429        2.270       44.187       38.146       55.391       44.820     1455.090     3068.124     2008.820        0.487        0.327       35.502       43.800        1.522      339.426       12.752      874.210
01/15/2014  14:58:00       71.268       73.911       53.350       32.247       31.233       30.142     1039.881      975.526      908.555        0.816        0.146      102.674        8.905        0.008      339.221       12.406      874.203
01/15/2014  14:59:00       -7.255       21.061       46.931       35.576       43.575       26.784     1265.667     1898.770      717.374        0.329        0.194       22.276       26.812        1.449      339.455       12.801      874.205
01/15/2014  15:00:00       70.877     -107.002       -3.925       39.204       59.641       24.522     1536.963     3557.003      601.321        1.109        0.285      128.347       22.557        0.031      339.231       12.423      874.200
01/15/2014  15:01:00       72.549      -81.614        3.887       43.724       56.683       30.629     1911.829     3212.936      938.150        0.900        0.303      109.198       39.813        0.133      339.282       12.509      874.181
01/15/2014  15:02:00       74.602      -75.813        8.699       46.553       69.697       35.396     2167.187     4857.707     1252.889        0.983        0.414      106.363       47.736        0.201      339.246       12.448      874.175
01/15/2014  15:03:00       36.228      -43.892       12.483       42.287       65.985       36.936     1788.192     4353.973     1364.243        0.545        0.375       56.912       35.266        0.384      339.375       12.666      874.165
01/15/2014  15:04:00       88.745     -119.695      -12.980       35.474       43.271       23.711     1258.406     1872.411      562.221        1.303        0.185      149.006       17.902        0.014      339.275       12.496      874.159
01/15/2014  15:05:00       48.633      -90.557       -7.150       42.751       39.856       21.585     1827.680     1588.480      465.905        0.725        0.194      102.790       18.714        0.033      339.170       12.320      874.162
01/15/2014  15:06:00       37.939      -30.851       32.415       37.766       49.122       31.830     1426.303     2412.985     1013.150        0.415        0.243       48.899       31.988        0.428      339.270       12.488      874.154
01/15/2014  15:07:00       49.740      -37.965       13.057       51.896       67.209       42.871     2693.193     4517.041     1837.888        0.657        0.452       62.573       45.943        0.539      339.230       12.421      874.146
01/15/2014  15:08:00       91.288      -71.080       -3.210       42.150       64.027       32.916     1776.597     4099.480     1083.462        1.018        0.348      115.697       37.088        0.103      339.146       12.280      874.132
01/15/2014  15:09:00       90.077     -114.541      -19.117       38.220       45.622       25.437     1460.805     2081.389      647.017        1.289        0.209      145.717       21.200        0.021      339.231       12.423      874.120
01/15/2014  15:10:00       71.458      -40.971       19.177       34.690       61.009       46.144     1203.412     3722.061     2129.311        0.710        0.353       82.371       45.645        0.307      339.318       12.569      874.114
01/15/2014  15:11:00       36.823       16.702       26.675       22.828       54.184       26.920      521.140     2935.892      724.693        0.326        0.209       40.434       33.309        0.679      339.239       12.435      874.112
01/15/2014  15:12:00       18.773      -28.504       29.278       36.492       74.387       45.615     1331.631     5533.438     2080.760        0.548        0.447       34.131       51.587        2.285      339.418       12.737      874.105
01/15/2014  15:13:00       33.422       34.106       48.540       37.140       33.681       33.795     1379.352     1134.440     1142.109        0.415        0.183       47.752       30.274        0.402      339.357       12.635      874.103
01/15/2014  15:14:00       67.810        2.231       -0.105       26.905       24.696       19.855      723.903      609.869      394.209        0.317        0.086       67.847       21.146        0.097      339.208       12.384      874.083
01/15/2014  15:15:00       68.464       27.600       23.782       34.146       23.884       23.951     1165.982      570.423      573.631        0.416        0.116       73.818       11.884        0.026      339.224       12.410      874.068
01/15/2014  15:16:00       55.732       36.866       10.092       23.806       19.530       20.797      566.725      381.428      432.524        0.297        0.069       66.822       12.768        0.037      339.242       12.440      874.052
01/15/2014  15:17:00        3.726        3.334       -5.380       23.300       34.429       12.223      542.884     1185.340      149.411        0.097        0.094        5.000        8.188        2.681      339.303       12.543      874.035
01/15/2014  15:18:00       74.311      -10.079       16.925       20.486       20.194       19.495      419.663      407.810      380.043        0.356        0.060       74.992       15.777        0.044      339.214       12.394      874.014
01/15/2014  15:19:00       57.739        4.035      -10.085       23.138       40.476       31.579      535.367     1638.302      997.263        0.331        0.159       57.880       24.247        0.175      339.312       12.559      873.998
01/15/2014  15:20:00       43.219        3.974        5.209       22.205       25.552       24.571      493.068      652.881      603.752        0.183        0.087       43.401       20.323        0.219      339.357       12.635      873.996
01/15/2014  15:21:00       34.217       62.347       54.253       36.404       43.733       49.553     1325.233     1912.616     2455.465        0.685        0.285       71.119       43.468        0.374      339.340       12.606      873.991
01/15/2014  15:22:00       99.797       83.364       83.609       60.145       57.023       42.303     3617.385     3251.662     1789.539        1.628        0.433      130.035       47.012        0.131      339.368       12.652      873.975
01/15/2014  15:23:00       31.940       89.301      104.390       47.531       49.761       38.766     2259.154     2476.149     1502.793        1.306        0.312       94.841       41.630        0.193      339.455       12.799      873.970
01/15/2014  15:24:00       47.682       52.203       75.607       34.679       54.091       27.206     1202.618     2925.867      740.189        0.779        0.243       70.701       33.756        0.228      339.439       12.773      873.980
01/15/2014  15:25:00       77.752        8.258       20.831       36.116       28.639       29.450     1304.337      820.215      867.309        0.477        0.150       78.189       26.589        0.116      339.321       12.574      873.987
01/15/2014  15:26:00       61.809       42.866       47.956       26.588       25.809       30.033      706.916      666.089      902.009        0.512        0.114       75.219       16.543        0.048      339.301       12.540      873.991
01/15/2014  15:27:00       62.575       39.608       19.082       19.596       14.653       20.345      384.009      214.708      413.905        0.343        0.051       74.057       12.942        0.031      339.247       12.449      873.990
01/15/2014  15:28:00       58.133       34.726       28.998       27.535       26.594       21.243      758.163      707.237      451.247        0.367        0.096       67.715        7.785        0.013      339.356       12.634      873.986
01/15/2014  15:29:00       78.944       52.317       17.943       34.569       31.685       19.796     1195.004     1003.917      391.865        0.594        0.130       94.706       14.181        0.022      339.383       12.679      873.983
01/15/2014  15:30:00       89.674       31.240       55.048       65.226       43.118       36.591     4254.373     1859.147     1338.885        0.975        0.373       94.960       25.160        0.070      339.384       12.680      873.978
01/15/2014  15:31:00       96.392       31.853       46.042       57.197       45.131       42.233     3271.523     2036.768     1783.607        0.976        0.355      101.519       31.447        0.096      339.363       12.644      873.979
01/15/2014  15:32:00       73.612       35.630       42.723       59.240       50.719       36.972     3509.360     2572.394     1366.924        0.798        0.372       81.782       38.017        0.216      339.378       12.671      873.981
01/15/2014  15:33:00       83.689       59.445       27.281       34.624       37.745       45.448     1198.798     1424.657     2065.491        0.798        0.234      102.653       20.375        0.039      339.462       12.811      873.983
01/15/2014  15:34:00       75.704       65.313       10.449       20.816       22.056       20.618      433.310      486.484      425.093        0.573        0.067       99.984       10.100        0.010      339.428       12.754      873.988
01/15/2014  15:35:00       11.363       35.445       -6.283       18.623       20.953       19.573      346.823      439.030      383.096        0.130        0.058       37.222       11.881        0.102      339.503       12.882      873.986
01/15/2014  15:36:00        6.839      -10.728        2.042       25.630       38.066       26.575      656.880     1448.991      706.228        0.149        0.141       12.722       17.777        1.953      339.604       13.051      873.991
01/15/2014  15:37:00        6.634      -27.130       15.067       37.659       49.255       27.411     1418.182     2426.018      751.361        0.280        0.230       27.929       23.028        0.680      339.602       13.048      873.985
01/15/2014  15:38:00       42.331        4.326       48.121       34.805       50.365       34.686     1211.354     2536.656     1203.123        0.454        0.248       42.551       28.350        0.444      339.530       12.926      873.990
01/15/2014  15:39:00       22.598       20.652       44.515       32.893       56.597       35.859     1081.951     3203.207     1285.890        0.424        0.279       30.613       35.946        1.379      339.629       13.094      873.996
01/15/2014  15:40:00       45.257       -2.509       28.058       44.558       75.982       31.802     1985.417     5773.239     1011.341        0.580        0.438       45.327       43.248        0.910      339.542       12.947      873.999
01/15/2014  15:41:00       38.639       13.194       34.340       62.678       34.734       21.855     3928.520     1206.454      477.647        0.423        0.281       40.829       17.280        0.179      339.600       13.045      874.004
01/15/2014  15:42:00       64.176      -90.394       -1.909       36.166       35.785       25.991     1308.009     1280.576      675.543        0.778        0.163      110.858       19.088        0.030      339.614       13.067      874.007
01/15/2014  15:43:00       51.056       43.717       37.996       32.522       37.287       25.663     1057.694     1390.305      658.574        0.453        0.155       67.215       18.035        0.072      339.501       12.877      874.006
01/15/2014  15:44:00        0.447       27.200       45.331       19.417       28.089       14.289      377.038      788.979      204.172        0.208        0.069       27.203       15.357        0.319      339.645       13.120      874.000
01/15/2014  15:45:00       34.741       54.335       57.754       34.882       26.411       20.458     1216.778      697.525      418.546        0.491        0.117       64.492        8.755        0.018      339.568       12.992      873.997
01/15/2014  15:46:00       19.983        1.213       21.655       29.410       48.030       26.687      864.974     2306.872      712.175        0.238        0.194       20.020       33.756        2.843      339.625       13.086      873.992
01/15/2014  15:47:00       70.192      -85.152      -12.928       36.960       30.192       19.545     1366.027      911.555      381.998        0.750        0.133      110.353        7.160        0.004      339.564       12.982      873.993
01/15/2014  15:48:00       66.122        9.729       25.239       42.757       50.346       29.263     1828.170     2534.766      856.338        0.516        0.261       66.834       28.627        0.183      339.460       12.808      873.990
01/15/2014  15:49:00       10.764       -0.788        1.438       27.457       24.758       21.911      753.873      612.940      480.084        0.098        0.092       10.793       17.796        2.719      339.683       13.183      873.986
01/15/2014  15:50:00       17.316      -37.234        5.036       21.076       21.439       18.887      444.180      459.616      356.717        0.149        0.063       41.064       10.199        0.062      339.692       13.199      873.984
01/15/2014  15:51:00       -4.523        6.497       25.003       19.418       27.908       22.989      377.063      778.849      528.503        0.119        0.084        7.916       23.817        9.051      339.723       13.253      873.979
01/15/2014  15:52:00       27.813      -80.974       -7.109       40.955       54.591       32.430     1677.299     2980.157     1051.697        0.654        0.285       85.618       34.935        0.166      339.636       13.105      873.971
01/15/2014  15:53:00      145.049     -135.153       -0.254       60.565       74.985       48.835     3668.100     5622.695     2384.889        2.549        0.584      198.256       52.539        0.070      339.458       12.802      873.957
01/15/2014  15:54:00       62.276       -8.524       51.682       51.599       59.097       41.584     2662.416     3492.462     1729.194        0.725        0.394       62.856       42.827        0.464      339.485       12.850      873.949
01/15/2014  15:55:00       67.047       24.461       71.199       61.670       86.586       54.096     3803.231     7497.163     2926.416        1.219        0.711       71.370       63.465        0.791      339.427       12.752      873.952
01/15/2014  15:56:00       48.318       14.729       53.344       53.373       71.996       44.142     2848.636     5183.360     1948.496        0.769        0.499       50.513       46.717        0.855      339.520       12.909      873.956
01/15/2014  15:57:00       55.641      -83.127       10.689       44.963       65.416       36.569     2021.688     4279.220     1337.274        0.888        0.382      100.030       35.944        0.129      339.533       12.931      873.972
01/15/2014  15:58:00       48.875     -102.986        5.015       34.931       62.263       26.900     1220.193     3876.699      723.596        0.942        0.291      113.995       20.376        0.032      339.477       12.838      873.971
01/15/2014  15:59:00       62.578      -79.515        4.077       46.388       35.564       23.436     2151.817     1264.771      549.253        0.711        0.198      101.186       27.302        0.073      339.489       12.857      873.974
01/15/2014  16:00:00       77.607      -38.895       10.981       64.005       47.466       26.331     4096.697     2253.007      693.298        0.735        0.352       86.808       33.878        0.152      339.504       12.882      873.971
01/15/2014  16:01:00       60.610      -49.263       17.637       66.868       79.730       48.906     4471.301     6356.799     2391.815        0.981        0.661       78.106       56.902        0.531      339.399       12.706      873.955
01/15/2014  16:02:00       28.178      -55.705       -4.071       43.131       59.422       43.954     1860.286     3530.982     1931.996        0.562        0.366       62.426       46.027        0.544      339.486       12.852      873.960
01/15/2014  16:03:00       21.057      -71.101        3.481       35.261       66.768       41.209     1243.357     4457.995     1698.159        0.645        0.370       74.153       41.788        0.318      339.454       12.798      873.957
01/15/2014  16:04:00       20.907      -85.067      -12.421       51.388       49.368       44.251     2640.710     2437.233     1958.118        0.743        0.352       87.598       30.092        0.118      339.369       12.654      873.953
01/15/2014  16:05:00       -7.843      -32.727      -14.534       26.763       41.741       29.737      716.238     1742.301      884.278        0.234        0.167       33.654       28.676        0.726      339.497       12.871      873.960
01/15/2014  16:06:00       36.978      -65.683       -2.003       55.227       55.777       29.700     3050.037     3111.093      882.075        0.636        0.352       75.377       37.323        0.245      339.391       12.691      873.966
01/15/2014  16:07:00       52.799      -78.624       -5.656       45.274       35.465       25.499     2049.694     1257.752      650.190        0.648        0.198       94.708        9.141        0.009      339.433       12.762      873.976
01/15/2014  16:08:00       68.486      -82.136      -16.084       39.132       60.875       36.746     1531.334     3705.737     1350.246        0.914        0.329      106.943       29.203        0.075      339.473       12.830      873.985
01/15/2014  16:09:00       57.700      -38.378       17.712       63.535       71.219       44.606     4036.669     5072.191     1989.682        0.810        0.555       69.297       57.927        0.699      339.387       12.686      873.990
01/15/2014  16:10:00      105.339      -87.929      -10.036       25.216       28.167       16.324      635.861      793.354      266.478        1.031        0.085      137.215       12.021        0.008      339.297       12.533      873.987
01/15/2014  16:11:00       61.101      -57.830       -6.030       35.732       38.767       28.823     1276.756     1502.898      830.770        0.536        0.181       84.129       20.273        0.058      339.361       12.643      873.979
01/15/2014  16:12:00       34.635      -19.777        1.636       28.280       47.012       32.020      799.749     2210.142     1025.250        0.281        0.202       39.884       34.113        0.732      339.333       12.593      873.979
01/15/2014  16:13:00       98.981     -118.545      -28.411       41.581       40.399       19.088     1728.979     1632.069      364.343        1.419        0.186      154.435       11.494        0.006      339.289       12.519      873.973
01/15/2014  16:14:00      104.559     -113.622      -20.021       39.071       41.933       20.767     1526.536     1758.363      431.256        1.398        0.186      154.410       19.775        0.016      339.300       12.538      873.958
01/15/2014  16:15:00       67.393      -46.394       -0.688       26.769       43.338       22.774      716.557     1878.175      518.674        0.490        0.156       81.818       26.826        0.108      339.305       12.548      873.949
01/15/2014  16:16:00       29.055      -42.750        2.284       30.841       26.858       22.499      951.140      721.339      506.212        0.243        0.109       51.689       21.518        0.173      339.402       12.711      873.931
01/15/2014  16:17:00       53.987      -70.892       -1.431       55.855       54.342       21.162     3119.747     2953.073      447.825        0.723        0.326       89.108       35.215        0.156      339.400       12.708      873.907
01/15/2014  16:18:00       65.351      -82.912       -8.169       35.510       41.578       20.912     1260.930     1728.771      437.317        0.732        0.171      105.570       20.235        0.037      339.371       12.658      873.894
01/15/2014  16:19:00       11.799       -7.615       14.770       18.333       27.873       22.267      336.103      776.902      495.826        0.101        0.080       14.043        6.034        0.185      339.328       12.587      873.879
01/15/2014  16:20:00       37.668      -40.373        8.484       38.631       56.532       30.976     1492.316     3195.847      959.531        0.438        0.282       55.216       41.173        0.556      339.301       12.540      873.868
01/15/2014  16:21:00       40.236      -59.431       -3.497       35.783       37.264       28.385     1280.403     1388.616      805.728        0.432        0.174       71.771       25.615        0.127      339.313       12.561      873.855
01/15/2014  16:22:00       23.490      -58.261        5.519       27.781       21.827       28.174      771.781      476.405      793.775        0.301        0.102       62.818       22.828        0.132      339.379       12.672      873.847
01/15/2014  16:23:00       19.225      -30.419        7.744       24.945       30.552       21.682      622.247      933.421      470.109        0.169        0.101       35.985       15.056        0.175      339.342       12.608      873.847
01/15/2014  16:24:00        2.725       23.786       44.378       22.099       27.109       17.045      488.369      734.912      290.549        0.203        0.076       23.941       17.649        0.543      339.214       12.393      873.849
01/15/2014  16:25:00       16.783       -9.398       23.313       31.983       45.155       20.667     1022.937     2038.952      427.135        0.220        0.174       19.235       27.789        2.087      339.281       12.507      873.862
01/15/2014  16:26:00       68.332      -38.259        3.282       32.626       33.353       20.984     1064.432     1112.450      440.344        0.438        0.131       78.314       18.076        0.053      339.256       12.465      873.864
01/15/2014  16:27:00       88.177      -79.567       -8.516       24.272       38.379       22.969      589.122     1472.962      527.568        0.838        0.129      118.769       19.438        0.027      339.268       12.484      873.857
01/15/2014  16:28:00       42.393      -32.428        3.968       27.052       31.596       18.233      731.786      998.284      332.426        0.246        0.103       53.374       20.999        0.155      339.223       12.408      873.852
01/15/2014  16:29:00       12.479      -15.645       13.853       18.006       37.502       18.913      324.234     1406.427      357.716        0.134        0.104       20.012       20.482        1.048      339.145       12.278      873.847
01/15/2014  16:30:00       -3.217      -20.643       30.519       17.014       35.865       25.025      289.471     1286.324      626.259        0.178        0.110       20.892       18.193        0.758      339.233       12.427      873.848
01/15/2014  16:31:00       30.371      -51.070        7.334       37.334       47.861       31.307     1393.821     2290.628      980.136        0.412        0.233       59.418       35.554        0.358      339.253       12.460      873.851
01/15/2014  16:32:00       11.733       12.849       51.263       25.803       61.109       32.885      665.789     3734.355     1081.416        0.421        0.274       17.400       43.437        6.232      339.247       12.450      873.859
01/15/2014  16:33:00       -5.925       31.662       51.291       23.523       38.034       32.085      553.330     1446.617     1029.422        0.335        0.151       32.211       30.932        0.922      339.207       12.382      873.848
01/15/2014  16:34:00        1.890       13.691       29.661       19.272       19.768       22.833      371.416      390.780      521.329        0.118        0.064       13.821       17.089        1.529      339.198       12.368      873.837
01/15/2014  16:35:00       20.332        5.302       21.117       33.995       30.471       26.030     1155.676      928.475      677.557        0.182        0.138       21.012       28.501        1.840      339.125       12.244      873.812
01/15/2014  16:36:00       13.765       13.009       26.145       23.476       18.587       18.314      551.129      345.465      335.391        0.114        0.062       18.939       18.208        0.924      339.084       12.175      873.788
01/15/2014  16:37:00       15.713       10.545       13.267       16.926       16.226       16.382      286.489      263.273      268.377        0.068        0.041       18.924       15.505        0.671      339.062       12.139      873.762
01/15/2014  16:38:00        5.982        7.730       14.615       13.415       16.139       10.654      179.965      260.454      113.503        0.043        0.028        9.775        7.206        0.543      339.015       12.059      873.752
01/15/2014  16:39:00       14.158        1.190       18.697       21.724       22.457       14.232      471.950      504.305      202.544        0.086        0.059       14.208       13.931        0.961      338.951       11.952      873.747
01/15/2014  16:40:00       38.714      -38.745        2.873       23.426       17.575       10.024      548.777      308.879      100.476        0.198        0.048       54.772       10.645        0.038      339.110       12.219      873.735
01/15/2014  16:41:00        7.141       10.640        9.789       10.202       13.204        9.990      104.087      174.336       99.809        0.032        0.019       12.814        8.249        0.414      338.870       11.817      873.729
01/15/2014  16:42:00       13.004       -7.551        2.612       15.090       20.275        9.603      227.703      411.079       92.216        0.048        0.037       15.037       10.876        0.523      338.920       11.897      873.730
01/15/2014  16:43:00       17.461        6.094        5.658       16.822       10.079        8.799      282.993      101.593       77.425        0.042        0.023       18.494        6.799        0.135      338.865       11.806      873.735
01/15/2014  16:44:00       31.181       17.207       18.737       20.622       14.923       12.639      425.276      222.697      159.746        0.121        0.040       35.614        7.794        0.048      338.935       11.923      873.737
01/15/2014  16:45:00       30.153       18.481       14.832       17.414        9.325       10.686      303.233       86.962      114.192        0.099        0.025       35.366        5.727        0.026      338.869       11.814      873.740
01/15/2014  16:46:00       12.231        6.656        9.599       14.023       11.125        7.985      196.635      123.757       63.760        0.034        0.019       13.925        6.395        0.211      338.837       11.760      873.741
01/15/2014  16:47:00       22.095       10.570        8.505       13.972       14.690       12.293      195.214      215.797      151.123        0.062        0.028       24.493        8.457        0.119      338.871       11.818      873.740
01/15/2014  16:48:00        0.981        8.541       11.262       15.339       10.118        8.136      235.291      102.382       66.189        0.030        0.020        8.597        6.665        0.601      338.812       11.717      873.731
01/15/2014  16:49:00        6.605       -9.815       -1.049       16.701       14.252       12.067      278.932      203.116      145.608        0.038        0.031       11.831       14.000        1.400      338.907       11.876      873.718
01/15/2014  16:50:00       -9.206      -11.569        0.331        7.784        7.545        5.407       60.596       56.933       29.236        0.018        0.007       14.784        4.481        0.092      338.908       11.878      873.710
01/15/2014  16:51:00      -26.083       -6.442       -6.252        7.865        5.541        4.213       61.863       30.702       17.749        0.044        0.006       26.867        3.726        0.019      338.843       11.770      873.692
01/15/2014  16:52:00      -55.276       -2.260      -10.067        7.467        6.771        5.624       55.762       45.848       31.625        0.165        0.007       55.322        3.933        0.005      338.577       11.323      873.696
01/15/2014  16:53:00      -59.419      -12.614      -10.051        8.513       10.154        6.430       72.473      103.107       41.350        0.200        0.011       60.743        4.913        0.007      338.436       11.086      873.692
01/15/2014  16:54:00      -48.374      -17.195       -5.451       12.863        9.389        7.390      165.457       88.159       54.605        0.149        0.015       51.339        6.404        0.016      338.452       11.112      873.701
01/15/2014  16:55:00      -55.612       -8.291      -12.687       11.068       14.561        5.897      122.504      212.018       34.775        0.185        0.018       56.226        4.061        0.005      338.483       11.165      873.705
01/15/2014  16:56:00      -57.165       -8.599      -10.091        8.205        9.309        5.400       67.328       86.654       29.157        0.181        0.009       57.808        4.180        0.005      338.372       10.978      873.711
01/15/2014  16:57:00      -71.709      -13.395      -10.182       12.719       12.885        7.007      161.763      166.031       49.099        0.290        0.019       72.949        4.446        0.004      338.130       10.572      873.707
01/15/2014  16:58:00      -82.459      -20.263      -11.890       18.851       19.871       11.338      355.369      394.842      128.548        0.411        0.044       84.912        8.562        0.010      337.979       10.319      873.707
01/15/2014  16:59:00      -49.534      -22.563       -1.713       29.667       30.030       17.757      880.107      901.795      315.307        0.253        0.105       54.431       16.614        0.093      337.943       10.259      873.709
01/15/2014  17:00:00      -70.611      -13.795      -16.484       35.684       24.305       20.214     1273.314      590.736      408.589        0.386        0.114       71.946       18.493        0.066      337.963       10.293      873.707
01/15/2014  17:01:00      -47.775        2.057      -10.479       36.072       21.831       16.285     1301.169      476.588      265.200        0.222        0.102       47.819       18.748        0.154      337.808       10.032      873.710
01/15/2014  17:02:00      -67.375        3.483       -8.974       26.287       18.318       14.024      691.007      335.559      196.661        0.293        0.061       67.465       12.304        0.033      337.729        9.898      873.711
01/15/2014  17:03:00      -90.736        2.136      -15.941       27.058       24.061       10.954      732.121      578.936      119.983        0.496        0.072       90.761       11.463        0.016      337.659        9.782      873.714
01/15/2014  17:04:00      -68.668       -3.667      -13.642       28.081       19.908       15.766      788.567      396.318      248.557        0.317        0.072       68.766        8.086        0.014      337.529        9.565      873.709
01/15/2014  17:05:00      -89.986       10.591      -18.577       19.853       13.421       11.755      394.137      180.119      138.171        0.463        0.036       90.607        2.942        0.001      337.454        9.438      873.706
01/15/2014  17:06:00      -65.106       17.076      -17.651       18.645       21.028       12.158      347.622      442.188      147.811        0.289        0.047       67.308       11.421        0.029      337.442        9.418      873.701
01/15/2014  17:07:00      -33.659        1.475       -3.811       23.183       22.086       14.510      537.469      487.797      210.537        0.119        0.062       33.691       11.650        0.120      337.393        9.337      873.708
01/15/2014  17:08:00      -50.236        1.898      -10.759       12.642       16.571       13.564      159.825      274.608      183.988        0.163        0.031       50.272        7.715        0.024      337.372        9.300      873.705
01/15/2014  17:09:00      -74.267       -0.991      -17.265       15.096       12.815       10.499      227.901      164.235      110.237        0.316        0.025       74.273        8.420        0.013      337.252        9.101      873.711
01/15/2014  17:10:00      -91.393        4.666      -21.547       12.977       11.141        9.906      168.410      124.119       98.123        0.461        0.020       91.512        7.689        0.007      337.138        8.910      873.719
01/15/2014  17:11:00      -86.595        0.243      -17.797       10.532        8.671        6.987      110.926       75.182       48.815        0.403        0.012       86.596        4.692        0.003      337.276        9.141      873.733
01/15/2014  17:12:00      -74.303       -6.417      -15.076        7.321        8.908        7.199       53.593       79.344       51.831        0.299        0.009       74.580        1.439        0.000      337.359        9.280      873.746
01/15/2014  17:13:00      -85.575       -8.306      -15.451       22.303       12.872       10.343      497.410      165.691      106.979        0.420        0.039       85.977        7.915        0.008      337.259        9.113      873.761
01/15/2014  17:14:00      -85.692       -5.647      -13.605       12.536       13.106       13.985      157.160      171.777      195.579        0.404        0.026       85.878        7.292        0.007      337.194        9.004      873.769
01/15/2014  17:15:00      -72.186       -5.819      -20.467        9.134       20.847        7.908       83.435      434.594       62.541        0.312        0.029       72.421        7.693        0.011      337.283        9.153      873.783
01/15/2014  17:16:00      -66.099      -21.513      -21.737       12.654       21.626       12.232      160.113      467.696      149.630        0.304        0.039       69.512        7.450        0.011      337.233        9.070      873.799
01/15/2014  17:17:00      -67.128      -19.525      -12.993       14.038       14.720       11.692      197.077      216.689      136.707        0.280        0.028       69.910        9.156        0.017      337.093        8.834      873.810
01/15/2014  17:18:00      -62.804       -8.793      -10.802       15.271       15.381       11.332      233.203      236.585      128.411        0.237        0.030       63.417       11.586        0.033      337.071        8.797      873.820
01/15/2014  17:19:00      -70.445      -24.197      -15.344       13.167       19.069        8.126      173.376      363.623       66.036        0.319        0.030       74.485        6.407        0.007      337.084        8.819      873.824
01/15/2014  17:20:00      -62.093      -33.513      -13.703       12.362       17.026       11.633      152.822      289.869      135.320        0.287        0.029       70.559        7.362        0.011      337.084        8.819      873.832
01/15/2014  17:21:00      -67.020      -30.950      -11.208       14.353       10.586        8.450      206.002      112.053       71.399        0.298        0.019       73.822        5.865        0.006      336.955        8.604      873.852
01/15/2014  17:22:00      -62.504      -48.065      -20.144       13.341       14.335       11.107      177.974      205.497      123.361        0.356        0.025       78.848        2.554        0.001      336.918        8.542      873.876
01/15/2014  17:23:00      -69.153      -27.306      -15.351       11.353       13.503        9.016      128.899      182.332       81.280        0.308        0.020       74.349        5.037        0.005      336.840        8.412      873.897
01/15/2014  17:24:00      -74.032      -29.558      -13.748       14.092       21.661       12.216      198.575      469.214      149.227        0.368        0.041       79.714        7.139        0.008      336.729        8.227      873.914
01/15/2014  17:25:00      -77.614      -28.805      -18.974       17.596       21.407       11.374      309.620      458.276      129.367        0.406        0.045       82.787        7.036        0.007      336.642        8.082      873.942
01/15/2014  17:26:00      -80.605      -19.093      -20.509       11.275       15.279        7.661      127.128      233.447       58.684        0.385        0.021       82.835        5.141        0.004      336.645        8.085      873.963
01/15/2014  17:27:00      -64.125      -23.942      -15.006       19.093       23.279       14.206      364.557      541.900      201.815        0.301        0.055       68.449        9.596        0.020      336.512        7.865      873.988
01/15/2014  17:28:00      -73.973      -31.604      -20.427       13.856       11.652       10.302      191.990      135.775      106.125        0.366        0.022       80.441        4.161        0.003      336.532        7.897      874.006
01/15/2014  17:29:00      -65.993      -22.942      -12.812       13.648       16.230       10.696      186.258      263.429      114.394        0.280        0.028       69.867        5.369        0.006      336.441        7.745      874.023
01/15/2014  17:30:00      -63.671      -18.953      -14.064       13.938       12.960        8.294      194.275      167.974       68.788        0.252        0.022       66.432        7.070        0.011      336.432        7.729      874.033
01/15/2014  17:31:00      -67.605      -26.227      -10.730       11.821       14.299       11.105      139.735      204.448      123.312        0.292        0.023       72.515        7.034        0.009      336.278        7.473      874.030
01/15/2014  17:32:00      -83.231      -32.073      -17.970       14.107       14.841       13.735      199.013      220.248      188.662        0.444        0.030       89.197        2.246        0.001      336.362        7.612      874.011
01/15/2014  17:33:00      -86.625      -44.583      -17.523       20.807       22.910       19.165      432.951      524.867      367.285        0.556        0.066       97.425       16.728        0.029      336.227        7.386      874.015
01/15/2014  17:34:00      -92.533      -38.696      -28.195       17.126       22.853        9.709      293.310      522.276       94.266        0.588        0.045      100.298        6.047        0.004      336.151        7.260      874.016
01/15/2014  17:35:00     -107.478      -36.906      -18.377       23.308       24.062       19.039      543.273      578.969      362.489        0.737        0.074      113.638       15.678        0.019      336.092        7.161      874.023
01/15/2014  17:36:00     -112.589      -29.761      -22.578       23.787       23.858       18.297      565.814      569.226      334.778        0.777        0.073      116.456       16.464        0.020      336.056        7.101      874.030
01/15/2014  17:37:00     -120.502      -40.409      -17.373       28.611       20.843       21.720      818.575      434.441      471.762        0.909        0.086      127.096       18.175        0.020      336.089        7.159      874.032
01/15/2014  17:38:00     -145.337       -7.452      -19.050       35.234       24.468       22.032     1241.402      598.682      485.398        1.193        0.116      145.528       18.891        0.017      336.126        7.217      874.042
01/15/2014  17:39:00     -129.217       -3.847      -17.205       46.729       35.322       24.880     2183.615     1247.615      618.999        1.053        0.203      129.274       24.271        0.035      336.014        7.032      874.047
01/15/2014  17:40:00     -154.597      -14.004      -21.985       31.285       24.976       19.214      978.776      623.816      369.178        1.328        0.099      155.230       10.620        0.005      335.995        7.000      874.060
01/15/2014  17:41:00     -142.140      -24.493      -14.789       47.165       33.787       27.223     2224.514     1141.564      741.069        1.256        0.205      144.235       24.559        0.029      336.014        7.031      874.077
01/15/2014  17:42:00      -96.076      -41.701      -16.438       20.244       24.486       16.735      409.814      599.573      280.076        0.626        0.064      104.735        6.221        0.004      336.034        7.066      874.095
01/15/2014  17:43:00     -117.950      -53.580      -25.288       17.948       28.317       14.830      322.129      801.853      219.923        0.938        0.067      129.550        9.244        0.005      336.084        7.148      874.111
01/15/2014  17:44:00      -89.270      -46.784       -7.376       29.376       28.387       24.170      862.962      805.835      584.165        0.623        0.113      100.786       18.527        0.034      336.056        7.100      874.129
01/15/2014  17:45:00      -99.555      -42.227      -15.592       31.639       35.292       24.532     1001.038     1245.531      601.830        0.739        0.142      108.140       21.940        0.041      336.050        7.091      874.137
01/15/2014  17:46:00     -114.607      -44.571      -11.448       23.306       25.521       17.666      543.148      651.303      312.084        0.838        0.075      122.969        5.649        0.002      336.027        7.052      874.143
01/15/2014  17:47:00     -104.314      -63.418      -18.678       33.648       28.419       20.749     1132.206      807.627      430.528        0.881        0.119      122.079       11.244        0.008      336.019        7.040      874.147
01/15/2014  17:48:00      -98.274      -51.801      -15.973       63.450       35.140       26.638     4025.846     1234.830      709.558        0.928        0.299      111.090       33.885        0.093      336.034        7.064      874.141
01/15/2014  17:49:00      -90.840      -56.162      -14.283       30.572       24.211       17.956      934.629      586.177      322.416        0.673        0.092      106.799       14.146        0.018      336.038        7.072      874.144
01/15/2014  17:50:00      -57.411      -40.399       -2.988       55.888       31.360       21.724     3123.418      983.424      471.949        0.476        0.229       70.201       24.164        0.118      335.979        6.972      874.152
01/15/2014  17:51:00      -82.691      -28.489      -14.536       34.145       26.146       17.354     1165.857      683.631      301.171        0.501        0.108       87.461       12.119        0.019      335.985        6.982      874.172
01/15/2014  17:52:00      -84.583      -19.150       -7.045       24.064       19.398       17.239      579.091      376.298      297.170        0.441        0.063       86.724        6.651        0.006      336.034        7.065      874.198
01/15/2014  17:53:00      -88.319      -22.931      -12.284       34.143       22.477       12.480     1165.758      505.222      155.760        0.515        0.091       91.248        6.531        0.005      335.943        6.914      874.215
01/15/2014  17:54:00      -73.166      -42.613      -14.843       30.070       22.386       14.458      904.202      501.150      209.044        0.450        0.081       84.671        9.286        0.012      335.962        6.943      874.226
01/15/2014  17:55:00      -97.563      -34.055       -7.673       18.303       17.962       15.139      334.995      322.623      229.179        0.581        0.044      103.335        7.707        0.006      335.966        6.951      874.223
01/15/2014  17:56:00      -56.869      -55.520       -4.421       31.465       37.907       22.487      990.047     1436.907      505.670        0.463        0.147       79.477       21.341        0.072      335.892        6.828      874.223
01/15/2014  17:57:00     -121.088      -15.100      -10.318       55.069       23.314       17.783     3032.595      543.553      316.239        0.944        0.195      122.026       19.509        0.026      335.913        6.864      874.225
01/15/2014  17:58:00     -127.302      -35.355      -14.654       34.251       34.500       18.887     1173.102     1190.260      356.708        1.019        0.136      132.120       16.595        0.016      335.858        6.771      874.215
01/15/2014  17:59:00     -102.166      -37.926       -3.444       34.658       35.829       21.357     1201.192     1283.750      456.110        0.741        0.147      108.978       16.987        0.024      335.860        6.774      874.211
01/15/2014  18:00:00      -77.785      -60.909       -7.833       43.932       30.867       27.367     1929.977      952.780      748.936        0.673        0.182       98.795       23.447        0.056      335.866        6.784      874.209
01/15/2014  18:01:00      -39.632      -37.924        0.456       39.088       30.520       28.495     1527.849      931.468      811.972        0.314        0.164       54.854       28.224        0.265      335.780        6.642      874.196
01/15/2014  18:02:00      -67.510      -30.538       -5.534       43.998       46.097       27.185     1935.866     2124.914      739.016        0.516        0.240       74.096       29.983        0.164      335.728        6.555      874.193
01/15/2014  18:03:00      -82.428      -37.559      -20.160       21.514       25.812       15.904      462.846      666.285      252.927        0.500        0.069       90.582       14.168        0.024      335.778        6.639      874.193
01/15/2014  18:04:00      -76.472      -46.158       -5.534       22.271       20.479       19.682      495.990      419.373      387.380        0.466        0.065       89.323        9.124        0.010      335.786        6.652      874.196
01/15/2014  18:05:00      -92.219      -34.469      -19.560       23.007       23.253       19.985      529.314      540.700      399.401        0.577        0.073       98.450       13.434        0.019      335.776        6.635      874.193
01/15/2014  18:06:00     -142.983       -7.333      -22.670       36.359       25.530       21.434     1321.968      651.759      459.432        1.172        0.122      143.171       17.138        0.014      335.795        6.667      874.196
01/15/2014  18:07:00     -126.220      -17.228      -17.300       34.360       29.090       20.265     1180.636      846.203      410.666        0.948        0.122      127.391       16.733        0.017      335.771        6.626      874.196
01/15/2014  18:08:00     -130.836      -10.432      -17.111       43.449       32.997       19.667     1887.858     1088.827      386.774        1.044        0.168      131.252       16.737        0.016      335.713        6.531      874.182
01/15/2014  18:09:00     -112.711      -30.158      -15.180       20.249       28.553       17.075      410.036      815.259      291.542        0.768        0.076      116.676       10.758        0.009      335.701        6.511      874.169
01/15/2014  18:10:00      -92.489      -40.970      -18.507       28.481       32.668       18.198      811.151     1067.215      331.153        0.639        0.110      101.157       18.183        0.032      335.743        6.581      874.164
01/15/2014  18:11:00      -85.264      -42.170      -15.560       25.681       32.255       23.725      659.518     1040.377      562.881        0.578        0.113       95.123       18.980        0.040      335.668        6.455      874.159
01/15/2014  18:12:00      -77.321      -45.730      -11.555       22.964       33.830       20.830      527.345     1144.471      433.877        0.515        0.105       89.832       12.015        0.018      335.627        6.387      874.155
01/15/2014  18:13:00      -84.299      -52.523      -23.702       25.456       28.117       16.551      648.007      790.552      273.935        0.607        0.086       99.322        8.953        0.008      335.637        6.404      874.156
01/15/2014  18:14:00     -118.624      -32.326      -13.373       22.224       27.038       19.436      493.913      731.029      377.768        0.845        0.080      122.949       17.421        0.020      335.598        6.340      874.152
01/15/2014  18:15:00     -107.136      -52.005      -21.923       17.285       28.359       16.383      298.754      804.258      268.388        0.802        0.069      119.091        9.484        0.006      335.560        6.275      874.135
01/15/2014  18:16:00     -104.274      -73.690      -18.079       48.754       32.645       24.247     2376.911     1065.686      587.897        1.033        0.202      127.684       16.336        0.016      335.567        6.286      874.118
01/15/2014  18:17:00     -165.057      -82.828      -24.202       27.513       21.007       15.335      756.953      441.291      235.166        1.806        0.072      184.674       10.927        0.004      335.656        6.434      874.110
01/15/2014  18:18:00     -151.895      -45.099      -20.210       16.749       16.307       13.874      280.534      265.917      192.494        1.313        0.037      158.449        7.953        0.003      335.610        6.360      874.095
01/15/2014  18:19:00     -125.557      -61.339      -13.166       30.102       19.467       15.820      906.121      378.978      250.271        1.062        0.077      139.739       10.261        0.005      335.615        6.368      874.095
01/15/2014  18:20:00     -154.814      -71.114      -14.716       27.736       19.928       16.037      769.278      397.123      257.195        1.533        0.071      170.366       14.437        0.007      335.634        6.400      874.091
01/15/2014  18:21:00     -118.100      -68.978       -7.245       29.954       19.488       18.978      897.264      379.775      360.169        1.020        0.082      136.769       17.679        0.017      335.575        6.302      874.097
01/15/2014  18:22:00     -117.477      -72.041       -2.186       29.571       21.185       17.031      874.421      448.824      290.047        1.030        0.081      137.807       14.319        0.011      335.506        6.186      874.104
01/15/2014  18:23:00      -95.762      -58.396       -7.163       38.668       27.018       24.199     1495.197      729.976      585.613        0.772        0.141      112.163       11.753        0.011      335.525        6.216      874.108
01/15/2014  18:24:00     -124.805      -75.830      -10.013       29.617       24.639       18.095      877.190      607.062      327.417        1.162        0.091      146.036        9.867        0.005      335.545        6.252      874.112
01/15/2014  18:25:00     -135.038      -50.575       -8.592       23.180       28.312       16.501      537.304      801.541      272.292        1.124        0.081      144.198       11.130        0.006      335.477        6.136      874.124
01/15/2014  18:26:00     -123.954      -41.706        0.291       33.426       27.598       17.929     1117.300      761.674      321.455        0.965        0.110      130.782       14.891        0.013      335.449        6.091      874.128
01/15/2014  18:27:00     -146.005      -66.649       -4.244       28.859       27.901       15.901      832.832      778.460      252.848        1.382        0.093      160.498       10.258        0.004      335.405        6.015      874.146
01/15/2014  18:28:00     -149.583      -84.274       -6.513       41.004       25.971       24.138     1681.306      674.518      582.659        1.623        0.147      171.689       23.497        0.019      335.394        5.997      874.153
01/15/2014  18:29:00     -126.708      -66.298       -1.611       46.893       29.791       28.486     2198.963      887.492      811.454        1.217        0.195      143.005       24.174        0.029      335.328        5.888      874.154
01/15/2014  18:30:00     -133.438      -67.964       -7.363       37.372       24.069       21.556     1396.634      579.298      464.664        1.246        0.122      149.749       20.077        0.018      335.306        5.851      874.139
01/15/2014  18:31:00     -146.676      -67.705       -6.451       28.550       32.834       22.356      815.112     1078.081      499.806        1.427        0.120      161.548       21.067        0.017      335.247        5.753      874.124
01/15/2014  18:32:00     -142.430      -43.145      -11.476       48.718       30.042       21.811     2373.460      902.542      475.724        1.301        0.188      148.821       24.132        0.026      335.169        5.625      874.109
01/15/2014  18:33:00     -145.969      -51.269      -18.129       24.609       33.851       19.114      605.590     1145.913      365.330        1.319        0.106      154.711       10.357        0.004      335.125        5.552      874.104
01/15/2014  18:34:00     -122.883      -46.424      -15.455       35.103       29.553       24.267     1232.221      873.358      588.886        1.009        0.135      131.360       19.713        0.023      335.093        5.500      874.100
01/15/2014  18:35:00     -129.859      -42.118       -9.901       26.052       28.402       20.927      678.727      806.650      437.922        1.033        0.096      136.518       17.270        0.016      335.089        5.492      874.107
01/15/2014  18:36:00     -116.467      -35.832      -19.687       42.417       35.430       22.118     1799.237     1255.253      489.214        0.939        0.177      121.854       23.122        0.036      335.132        5.563      874.105
01/15/2014  18:37:00      -98.595      -35.535       -8.641       40.560       27.800       21.264     1645.139      772.856      452.157        0.696        0.144      104.804       15.958        0.023      335.040        5.411      874.105
01/15/2014  18:38:00      -79.150      -38.387       -8.672       37.265       27.433       19.879     1388.667      752.570      395.187        0.517        0.127       87.968       18.105        0.042      335.012        5.364      874.096
01/15/2014  18:39:00     -112.248      -47.232      -10.946       25.307       25.343       19.849      640.462      642.284      393.982        0.831        0.084      121.780       13.233        0.012      335.008        5.358      874.089
01/15/2014  18:40:00     -159.727      -23.708      -17.800       41.039       41.407       25.287     1684.223     1714.557      639.425        1.521        0.202      161.477       16.911        0.011      334.990        5.328      874.079
01/15/2014  18:41:00     -149.454      -32.726      -11.468       57.715       43.383       32.173     3330.992     1882.124     1035.098        1.489        0.312      152.995       22.500        0.022      334.939        5.242      874.070
01/15/2014  18:42:00     -128.607      -42.580      -10.824       42.271       34.985       21.928     1786.878     1223.973      480.851        1.098        0.175      135.473       16.449        0.015      334.926        5.221      874.057
01/15/2014  18:43:00     -105.955      -34.513       -8.846       45.736       43.410       27.991     2091.752     1884.438      783.474        0.863        0.238      111.434       26.382        0.056      334.951        5.262      874.062
01/15/2014  18:44:00     -127.633      -28.121      -12.618       39.109       27.422       22.751     1529.499      751.945      517.610        1.002        0.140      130.695       10.866        0.007      334.924        5.218      874.057
01/15/2014  18:45:00     -119.006      -53.720      -26.583       44.348       37.359       23.643     1966.749     1395.722      558.972        1.084        0.196      130.570       21.920        0.028      334.937        5.239      874.066
01/15/2014  18:46:00     -136.468      -47.746      -32.191       42.675       36.871       24.491     1821.165     1359.491      599.787        1.286        0.189      144.580       16.684        0.013      334.976        5.304      874.068
01/15/2014  18:47:00     -139.805      -50.695      -28.747       36.926       35.602       21.033     1363.495     1267.485      442.371        1.301        0.154      148.712       15.222        0.010      334.943        5.248      874.077
01/15/2014  18:48:00     -139.982      -34.468      -18.124       53.839       33.177       21.138     2898.678     1100.746      446.814        1.278        0.222      144.163       20.579        0.020      334.895        5.169      874.074
01/15/2014  18:49:00     -136.000      -18.908      -14.974       36.645       31.643       17.972     1342.841     1001.255      322.975        1.087        0.133      137.309       11.532        0.007      334.880        5.144      874.087
01/15/2014  18:50:00      -59.094      -32.112       -5.413       30.908       26.258       22.138      955.276      689.493      490.075        0.334        0.107       67.256       15.129        0.051      334.958        5.275      874.076
01/15/2014  18:51:00      -41.746      -19.341        5.763       42.907       24.317       29.301     1840.979      591.307      858.540        0.272        0.165       46.009       21.398        0.216      334.889        5.161      874.080
01/15/2014  18:52:00      -64.218      -12.047       -8.550       37.716       28.107       20.521     1422.472      789.991      421.107        0.349        0.132       65.338       15.154        0.054      334.860        5.111      874.072
01/15/2014  18:53:00      -62.876      -17.861      -22.219       32.713       28.512       24.395     1070.172      812.940      595.137        0.362        0.124       65.363       13.556        0.043      334.829        5.060      874.076
01/15/2014  18:54:00      -97.484      -20.164      -10.216       29.404       32.829       22.022      864.616     1077.723      484.989        0.622        0.121       99.547       13.623        0.019      334.808        5.025      874.070
01/15/2014  18:55:00     -102.004      -21.232      -25.524       21.353       29.339       20.140      455.954      860.769      405.629        0.661        0.086      104.190        8.159        0.006      334.884        5.150      874.081
01/15/2014  18:56:00     -110.277      -34.921      -24.622       15.742       20.571       16.449      247.803      423.149      270.558        0.746        0.047      115.674       11.908        0.011      334.838        5.075      874.087
01/15/2014  18:57:00      -99.767      -46.291      -13.927       26.243       22.211       21.877      688.708      493.318      478.585        0.698        0.083      109.983       11.023        0.010      334.816        5.038      874.092
01/15/2014  18:58:00      -92.511      -55.045      -22.215       26.288       26.154       22.580      691.052      684.035      509.864        0.698        0.094      107.649       11.039        0.011      334.786        4.989      874.097
01/15/2014  18:59:00      -77.915      -32.301      -20.074       46.536       27.913       25.373     2165.615      779.114      643.776        0.555        0.179       84.345       15.403        0.033      334.779        4.977      874.101
01/15/2014  19:00:00     -110.990      -30.409      -20.185       39.594       33.393       30.817     1567.681     1115.095      949.668        0.864        0.182      115.081       11.579        0.010      334.789        4.993      874.097
01/15/2014  19:01:00      -95.696      -37.353      -14.317       63.345       42.393       32.537     4012.544     1797.184     1058.663        0.881        0.343      102.727       27.138        0.070      334.689        4.828      874.093
01/15/2014  19:02:00     -181.459      -60.528      -17.329       25.117       26.490       18.939      630.852      701.743      358.668        1.929        0.085      191.288        9.438        0.002      334.610        4.695      874.092
01/15/2014  19:03:00     -149.625      -54.116        0.281       46.347       36.154       24.501     2148.074     1307.126      600.284        1.469        0.203      159.110       25.858        0.026      334.637        4.741      874.092
01/15/2014  19:04:00     -142.814      -73.972       -0.216       34.985       36.689       23.719     1223.961     1346.103      562.582        1.450        0.157      160.834       18.321        0.013      334.619        4.709      874.095
01/15/2014  19:05:00     -147.817      -61.078       -1.003       47.471       41.235       19.281     2253.498     1700.335      371.740        1.495        0.216      159.939       18.368        0.013      334.632        4.732      874.099
01/15/2014  19:06:00     -179.174      -65.837       -8.625       31.082       32.177       22.349      966.064     1035.348      499.490        1.951        0.125      190.887       15.680        0.007      334.677        4.806      874.108
01/15/2014  19:07:00     -151.283      -58.281      -12.828       29.411       22.725       19.469      865.031      516.441      379.025        1.410        0.088      162.121       10.323        0.004      334.657        4.774      874.119
01/15/2014  19:08:00     -148.461      -64.651      -10.591       24.155       24.928       14.887      583.475      621.422      221.620        1.388        0.071      161.927       10.669        0.004      334.739        4.910      874.116
01/15/2014  19:09:00     -143.570      -80.024       -4.068       28.277       21.150       18.568      799.611      447.318      344.757        1.431        0.080      164.366       14.253        0.008      334.741        4.913      874.119
01/15/2014  19:10:00     -103.242      -67.129       -4.664       39.926       26.235       19.733     1594.099      688.259      389.407        0.893        0.134      123.147       16.496        0.018      334.649        4.761      874.118
01/15/2014  19:11:00      -79.993      -54.729       -6.451       51.001       28.686       21.016     2601.141      822.860      441.652        0.665        0.193       96.923       16.974        0.031      334.622        4.716      874.131
01/15/2014  19:12:00      -74.963      -48.834        4.022       65.295       37.130       27.557     4263.482     1378.654      759.389        0.721        0.320       89.466       31.623        0.125      334.580        4.645      874.130
01/15/2014  19:13:00      -94.058      -62.647       -1.492       37.935       29.898       24.564     1439.072      893.863      603.410        0.785        0.147      113.012       23.932        0.045      334.514        4.537      874.146
01/15/2014  19:14:00      -88.694      -64.978       -7.870       35.005       21.249       21.441     1225.376      451.515      459.712        0.714        0.107      109.949       20.681        0.035      334.535        4.571      874.147
01/15/2014  19:15:00     -114.879      -80.387      -15.504       18.531       24.603       18.555      343.397      605.326      344.292        1.060        0.065      140.212       12.115        0.007      334.501        4.514      874.156
01/15/2014  19:16:00     -119.632      -75.667      -16.984       19.895       24.148       15.988      395.816      583.107      255.603        1.078        0.062      141.553        3.175        0.001      334.517        4.542      874.171
01/15/2014  19:17:00     -127.621      -58.552      -17.846       19.445       17.581       11.575      378.100      309.081      133.986        1.043        0.041      140.411       10.537        0.006      334.467        4.460      874.165
01/15/2014  19:18:00     -133.387      -47.773      -13.961       18.225       27.532       16.749      332.155      757.988      280.521        1.082        0.069      141.684       13.316        0.009      334.496        4.507      874.170
01/15/2014  19:19:00     -157.654      -49.916      -17.576       18.131       18.580       14.798      328.746      345.233      218.995        1.427        0.045      165.368        9.363        0.003      334.421        4.383      874.172
01/15/2014  19:20:00     -155.956      -46.135      -22.419       19.091       22.169       12.755      364.447      491.475      162.683        1.399        0.051      162.637        5.701        0.001      334.424        4.388      874.170
01/15/2014  19:21:00     -147.418      -63.066      -21.436       14.752       18.222       14.143      217.633      332.050      200.021        1.346        0.037      160.341        5.345        0.001      334.404        4.354      874.183
01/15/2014  19:22:00     -146.538      -53.831      -19.949       17.446       15.482       12.514      304.356      239.702      156.593        1.273        0.035      156.113        6.450        0.002      334.407        4.359      874.182
01/15/2014  19:23:00     -152.508      -64.316      -16.602       21.922       17.451       15.685      480.590      304.529      246.030        1.435        0.052      165.515        8.693        0.003      334.402        4.350      874.194
01/15/2014  19:24:00     -157.328      -46.254      -21.081       15.244       19.911       12.012      232.369      396.457      144.286        1.405        0.039      163.986        8.573        0.003      334.386        4.325      874.202
01/15/2014  19:25:00     -143.990      -47.731       -8.922       21.171       24.908       12.412      448.191      620.389      154.047        1.216        0.061      151.695        9.319        0.004      334.473        4.469      874.198
01/15/2014  19:26:00     -141.195      -52.787      -18.831       21.161       19.284       14.108      447.784      371.872      199.045        1.205        0.051      150.740       11.387        0.006      334.402        4.350      874.215
01/15/2014  19:27:00     -139.797      -73.293      -10.802       23.768       20.830       15.010      564.915      433.870      225.289        1.313        0.061      157.845       10.757        0.005      334.454        4.438      874.226
01/15/2014  19:28:00     -137.248      -60.068       -6.746       32.624       19.209       18.358     1064.346      368.990      337.000        1.213        0.089      149.818       18.199        0.015      334.403        4.354      874.237
01/15/2014  19:29:00     -144.940      -57.226      -13.270       20.120       25.557       14.292      404.805      653.178      204.266        1.286        0.063      155.828       10.268        0.004      334.441        4.417      874.243
01/15/2014  19:30:00     -112.334      -57.728      -11.346       20.072       24.057       16.834      402.899      578.717      283.395        0.867        0.063      126.299       12.777        0.010      334.394        4.338      874.247
01/15/2014  19:31:00     -116.083      -60.641       -8.859       18.680       14.823       11.571      348.928      219.728      133.887        0.897        0.035      130.968        9.524        0.005      334.343        4.253      874.256
01/15/2014  19:32:00     -112.524      -66.096       -2.241       22.749       19.272       18.297      517.525      371.404      334.767        0.913        0.061      130.501       16.149        0.015      334.261        4.118      874.272
01/15/2014  19:33:00     -104.343      -57.058      -14.534       17.041       16.073       13.268      290.385      258.357      176.030        0.754        0.036      118.924        6.727        0.003      334.302        4.185      874.283
01/15/2014  19:34:00      -91.517      -45.234      -12.138       21.909       23.822       11.676      480.021      567.491      136.336        0.588        0.059      102.085        7.504        0.005      334.276        4.142      874.299
01/15/2014  19:35:00      -94.083      -31.499      -11.948       19.106       16.108       13.322      365.031      259.470      177.469        0.539        0.040       99.216        9.207        0.009      334.260        4.117      874.311
01/15/2014  19:36:00     -104.037      -39.128       -9.264       19.553       21.039       11.414      382.330      442.653      130.280        0.670        0.048      111.151       10.661        0.009      334.269        4.131      874.311
01/15/2014  19:37:00      -97.728      -65.940      -12.213       22.982       16.944       14.120      528.173      287.085      199.368        0.753        0.051      117.894        9.703        0.007      334.279        4.147      874.310
01/15/2014  19:38:00      -90.424      -59.301       -3.714       22.280       16.780       16.460      496.378      281.559      270.933        0.638        0.052      108.135       13.028        0.015      334.258        4.112      874.303
01/15/2014  19:39:00      -89.953      -63.659       -7.058       22.853       15.336       12.690      522.274      235.192      161.041        0.656        0.046      110.200       11.709        0.011      334.314        4.204      874.301
01/15/2014  19:40:00      -97.060      -61.419      -12.423       15.984       18.612       10.703      255.474      346.416      114.548        0.703        0.036      114.860        7.025        0.004      334.282        4.153      874.311
01/15/2014  19:41:00     -104.954      -55.716      -15.585       11.715       12.345       10.327      137.241      152.391      106.645        0.738        0.020      118.826        5.972        0.003      334.294        4.173      874.308
01/15/2014  19:42:00     -115.367      -35.807      -22.039        7.144        7.400        7.945       51.033       54.756       63.122        0.762        0.008      120.796        4.623        0.001      334.235        4.074      874.301
01/15/2014  19:43:00     -129.631      -36.862      -22.061       15.974        8.881        7.794      255.161       78.864       60.749        0.952        0.020      134.770        5.546        0.002      334.201        4.017      874.312
01/15/2014  19:44:00     -118.431      -19.694      -22.748       17.588       13.589       12.107      309.355      184.667      146.581        0.779        0.032      120.058        7.501        0.004      334.171        3.969      874.315
01/15/2014  19:45:00     -102.716      -46.719      -13.689       19.230       17.979       15.315      369.801      323.247      234.563        0.692        0.046      112.842        9.934        0.008      334.171        3.968      874.314
01/15/2014  19:46:00      -85.221      -50.564      -13.276       23.443       31.172       16.402      549.559      971.683      269.020        0.589        0.090       99.092       13.427        0.018      334.067        3.796      874.329
01/15/2014  19:47:00      -75.470      -54.898       -6.742       24.987       29.446       22.804      624.343      867.061      520.044        0.538        0.101       93.325       20.159        0.047      334.096        3.843      874.324
01/15/2014  19:48:00      -89.256      -38.913      -13.838       17.468       16.672       14.357      305.118      277.948      206.119        0.523        0.039       97.370        6.346        0.004      333.990        3.668      874.323
01/15/2014  19:49:00      -83.163      -35.693      -25.565       20.116       27.554       19.889      404.657      759.197      395.577        0.520        0.078       90.499       14.584        0.026      334.070        3.799      874.335
01/15/2014  19:50:00      -90.586      -42.473       -9.109       22.638       28.435       17.097      512.501      808.556      292.300        0.585        0.081      100.049       15.489        0.024      334.115        3.875      874.343
01/15/2014  19:51:00      -92.440      -37.095      -20.560       22.804       22.819       13.996      520.024      520.722      195.877        0.579        0.062       99.605       14.216        0.020      334.071        3.802      874.340
01/15/2014  19:52:00      -98.643      -24.455      -19.318       26.073       22.169       14.874      679.795      491.445      221.250        0.605        0.070      101.629       12.372        0.015      334.118        3.878      874.341
01/15/2014  19:53:00      -75.699      -37.523      -13.241       17.434       27.452       13.639      303.932      753.628      186.024        0.428        0.062       84.489       10.913        0.017      334.072        3.804      874.329
01/15/2014  19:54:00      -79.114      -37.165      -21.824       21.516       21.433       15.595      462.939      459.362      243.213        0.464        0.058       87.409       10.064        0.013      334.106        3.859      874.317
01/15/2014  19:55:00      -57.079      -57.995      -19.570       29.356       29.342       24.520      861.784      860.961      601.237        0.466        0.116       81.372       21.114        0.067      334.115        3.873      874.309
01/15/2014  19:56:00      -77.471      -21.594      -10.388       35.444       22.354       19.174     1256.306      499.721      367.652        0.435        0.106       80.424       22.714        0.080      334.124        3.889      874.291
01/15/2014  19:57:00      -81.403      -38.255      -17.886       22.869       26.720       17.474      522.980      713.978      305.340        0.498        0.077       89.944       10.444        0.013      334.186        3.992      874.278
01/15/2014  19:58:00      -91.155      -40.094      -17.524       20.041       20.137       18.611      401.637      405.508      346.372        0.569        0.058       99.583       10.921        0.012      334.081        3.819      874.281
01/15/2014  19:59:00     -109.915      -40.650      -17.828       13.858       18.543       12.054      192.056      343.856      145.300        0.737        0.034      117.191        8.555        0.005      334.011        3.704      874.278
01/15/2014  20:00:00     -126.744      -44.545      -17.725       21.695       18.129       14.218      470.687      328.659      202.153        0.968        0.050      134.344       10.811        0.006      334.004        3.690      874.277
01/15/2014  20:01:00     -136.202      -34.588      -17.397       15.482       11.252       12.853      239.693      126.612      165.195        1.029        0.027      140.525        6.088        0.002      333.998        3.679      874.283
01/15/2014  20:02:00     -129.581      -45.244      -21.981       16.592       14.705       12.054      275.287      216.236      145.304        0.998        0.032      137.253        5.239        0.001      333.996        3.678      874.286
01/15/2014  20:03:00     -127.904      -54.283      -15.779       10.880       16.415        8.990      118.374      269.437       80.826        1.001        0.023      138.946        4.291        0.001      334.003        3.689      874.283
01/15/2014  20:04:00     -118.172      -57.476      -14.548       11.003       12.474        8.758      121.056      155.608       76.703        0.892        0.018      131.408        5.317        0.002      334.010        3.701      874.282
01/15/2014  20:05:00     -112.140      -64.312      -15.119       14.308       13.863       11.792      204.705      192.188      139.060        0.874        0.027      129.273        6.133        0.002      333.966        3.628      874.275
01/15/2014  20:06:00     -120.017      -62.461      -12.349       15.299       20.068       14.413      234.045      402.706      207.731        0.965        0.042      135.298        7.190        0.003      333.870        3.468      874.263
01/15/2014  20:07:00     -134.711      -61.289      -15.281       17.947       13.282       10.767      322.099      176.421      115.939        1.138        0.031      147.998        7.453        0.003      333.815        3.377      874.243
01/15/2014  20:08:00     -129.688      -73.229      -15.968       11.949       10.826       12.708      142.767      117.205      161.503        1.143        0.021      148.935        6.660        0.002      333.784        3.326      874.236
01/15/2014  20:09:00     -136.086      -70.780      -19.000       17.770       12.770       12.097      315.764      163.063      146.339        1.226        0.031      153.392        3.850        0.001      333.756        3.280      874.214
01/15/2014  20:10:00     -149.868      -69.054      -18.895       11.556       14.202        8.692      133.550      201.701       75.549        1.400        0.021      165.011        4.327        0.001      333.803        3.358      874.200
01/15/2014  20:11:00     -154.828      -64.257      -16.867       10.911       11.932       10.241      119.040      142.369      104.887        1.438        0.018      167.632        5.002        0.001      333.827        3.397      874.194
01/15/2014  20:12:00     -133.088      -56.598      -12.070       17.302       17.198       13.058      299.355      295.769      170.516        1.091        0.038      144.623        8.403        0.003      333.787        3.330      874.183
01/15/2014  20:13:00     -132.828      -29.136      -12.180       22.172       23.495       16.541      491.579      552.019      273.610        0.998        0.066      135.986       14.217        0.011      333.749        3.268      874.166
01/15/2014  20:14:00     -153.306      -27.687      -12.164       24.420       26.309       18.424      596.323      692.151      339.446        1.302        0.081      155.786       13.618        0.008      333.745        3.261      874.150
01/15/2014  20:15:00     -145.518      -21.383       -6.910       38.625       28.893       21.036     1491.855      834.798      442.527        1.222        0.138      147.081       18.895        0.017      333.752        3.272      874.135
01/15/2014  20:16:00     -162.530      -43.858      -12.547       33.305       40.933       24.523     1109.216     1675.488      601.369        1.594        0.169      168.344       14.922        0.008      333.821        3.387      874.114
01/15/2014  20:17:00     -159.889      -25.069      -12.705       36.836       31.314       21.895     1356.863      980.573      479.383        1.458        0.141      161.842       19.446        0.014      333.765        3.294      874.094
01/15/2014  20:18:00     -143.456      -32.617      -16.965       26.318       34.524       21.381      692.638     1191.915      457.146        1.214        0.117      147.117       15.888        0.012      333.743        3.258      874.082
01/15/2014  20:19:00     -135.329      -40.388      -10.323       46.922       34.021       18.932     2201.653     1157.437      358.421        1.188        0.186      141.227       13.993        0.010      333.689        3.168      874.068
01/15/2014  20:20:00      -87.370      -41.228        0.982       44.289       38.567       22.779     1961.479     1487.385      518.870        0.665        0.198       96.609       19.920        0.043      333.642        3.091      874.057
01/15/2014  20:21:00     -153.465      -74.675       -6.421       35.435       26.186       21.277     1255.634      685.720      452.712        1.578        0.120      170.669       16.377        0.009      333.608        3.035      874.059
01/15/2014  20:22:00     -129.911      -73.648       -2.525       48.223       30.242       24.933     2325.438      914.599      621.656        1.308        0.193      149.335       25.468        0.029      333.553        2.943      874.056
01/15/2014  20:23:00     -101.350      -59.727       -1.722       45.761       33.714       24.039     2094.075     1136.638      577.856        0.882        0.190      117.640       15.658        0.018      333.525        2.896      874.050
01/15/2014  20:24:00     -120.293      -73.855       -8.249       46.298       25.636       22.600     2143.532      657.194      510.745        1.165        0.166      141.155       20.134        0.020      333.589        3.001      874.048
01/15/2014  20:25:00     -102.815      -86.189       -6.591       47.083       33.316       25.497     2216.850     1109.960      650.099        1.101        0.199      134.162       20.291        0.023      333.594        3.012      874.058
01/15/2014  20:26:00     -142.629      -98.139       -6.315       30.986       31.302       21.298      960.155      979.789      453.584        1.620        0.120      173.131       13.316        0.006      333.561        2.956      874.063
01/15/2014  20:27:00     -148.416      -83.575       -7.574       50.877       33.337       25.775     2588.449     1111.346      664.338        1.672        0.218      170.329       22.941        0.018      333.551        2.939      874.068
01/15/2014  20:28:00     -121.845      -87.176       -3.655       41.587       36.515       25.488     1729.478     1333.323      649.652        1.309        0.186      149.820       18.521        0.015      333.552        2.942      874.070
01/15/2014  20:29:00     -128.491      -80.283       -6.942       43.017       35.798       23.527     1850.485     1281.524      553.516        1.334        0.184      151.510       17.228        0.013      333.531        2.906      874.085
01/15/2014  20:30:00     -141.696      -77.695       -4.649       33.284       31.757       24.949     1107.807     1008.534      622.460        1.444        0.137      161.599       19.075        0.014      333.453        2.777      874.087
01/15/2014  20:31:00     -146.211      -68.436       -9.777       48.463       35.098       26.631     2348.650     1231.900      709.206        1.522        0.214      161.435       27.501        0.029      333.476        2.815      874.090
01/15/2014  20:32:00     -133.582      -70.709      -10.010       43.269       26.114       20.941     1872.183      681.933      438.510        1.297        0.150      151.141       22.037        0.021      333.464        2.794      874.103
01/15/2014  20:33:00     -140.109      -43.466       -6.466       30.640       33.031       19.431      938.826     1091.064      377.575        1.198        0.120      146.697       15.035        0.011      333.465        2.796      874.099
01/15/2014  20:34:00     -135.147      -46.621       -3.313       36.844       40.989       22.150     1357.461     1680.079      490.613        1.199        0.176      142.963       22.341        0.024      333.423        2.728      874.092
01/15/2014  20:35:00     -162.806      -40.645      -16.443       34.935       31.996       19.681     1220.477     1023.715      387.346        1.553        0.132      167.803       17.346        0.011      333.516        2.881      874.085
01/15/2014  20:36:00     -154.064      -33.062      -14.439       44.683       40.568       22.350     1996.576     1645.786      499.540        1.459        0.207      157.572       21.313        0.018      333.489        2.837      874.093
01/15/2014  20:37:00     -134.504      -31.836       -6.652       34.388       34.527       25.612     1182.509     1192.094      655.964        1.109        0.152      138.221       14.601        0.011      333.486        2.831      874.087
01/15/2014  20:38:00     -160.627      -23.737      -16.134       25.044       28.183       14.566      627.195      794.287      212.156        1.413        0.082      162.371       10.125        0.004      333.500        2.855      874.081
01/15/2014  20:39:00     -150.792      -39.842      -11.907       25.103       22.116       17.907      630.163      489.139      320.645        1.295        0.072      155.966       13.234        0.007      333.486        2.832      874.085
01/15/2014  20:40:00     -136.702      -57.517      -12.690       24.522       22.699       15.613      601.319      515.247      243.772        1.176        0.068      148.310       10.018        0.005      333.542        2.923      874.088
01/15/2014  20:41:00     -125.089      -35.765      -17.906       33.007       27.345       18.723     1089.438      747.737      350.558        0.972        0.109      130.101       16.890        0.017      333.513        2.876      874.095
01/15/2014  20:42:00     -146.288      -14.307      -12.317       37.638       26.162       24.225     1416.596      684.434      586.848        1.222        0.134      146.986       20.467        0.019      333.428        2.735      874.110
01/15/2014  20:43:00     -157.680       -6.369      -20.122       29.791       19.181       19.869      887.525      367.917      394.781        1.348        0.083      157.808       15.912        0.010      333.413        2.711      874.136
01/15/2014  20:44:00     -149.578       -8.061      -13.845       40.863       31.856       18.854     1669.764     1014.799      355.455        1.283        0.152      149.795       13.997        0.009      333.350        2.607      874.145
01/15/2014  20:45:00     -124.712      -12.635      -10.360       43.043       34.384       23.656     1852.697     1182.270      559.626        0.971        0.180      125.351       23.250        0.034      333.270        2.474      874.139
01/15/2014  20:46:00     -130.630      -19.709      -15.222       49.288       29.498       23.102     2429.346      870.148      533.692        1.076        0.192      132.108       26.854        0.041      333.213        2.379      874.129
01/15/2014  20:47:00     -118.985      -20.838      -15.491       44.785       31.923       25.830     2005.727     1019.085      667.200        0.926        0.185      120.796       26.129        0.047      333.228        2.405      874.128
01/15/2014  20:48:00     -123.655      -14.163       -9.754       42.971       35.697       25.911     1846.535     1274.249      671.385        0.969        0.190      124.463       24.556        0.039      333.224        2.398      874.139
01/15/2014  20:49:00     -105.681      -23.584       -4.453       53.357       38.895       18.836     2846.922     1512.853      354.799        0.823        0.236      108.280       22.597        0.044      333.232        2.413      874.153
01/15/2014  20:50:00     -137.006      -27.516      -12.462       35.652       32.679       22.964     1271.039     1067.948      527.367        1.127        0.143      139.742       18.077        0.017      333.247        2.436      874.161
01/15/2014  20:51:00     -114.506      -31.673       -4.346       46.861       33.626       25.792     2195.982     1130.686      665.208        0.906        0.200      118.806       28.190        0.056      333.187        2.337      874.177
01/15/2014  20:52:00      -47.932      -44.971       -1.847       50.410       32.154       20.011     2541.123     1033.868      400.447        0.415        0.199       65.726       13.018        0.039      333.220        2.391      874.194
01/15/2014  20:53:00      -69.918      -35.638       -9.518       26.686       25.072       18.081      712.132      628.620      326.909        0.396        0.083       78.477       16.750        0.046      333.204        2.364      874.205
01/15/2014  20:54:00      -26.228      -37.319        2.896       32.301       35.687       19.845     1043.362     1273.541      393.829        0.240        0.136       45.614       23.831        0.273      333.238        2.422      874.214
01/15/2014  20:55:00      -68.008      -38.329       -7.268       21.460       24.592       15.607      460.539      604.774      243.582        0.373        0.065       78.065       11.774        0.023      333.219        2.390      874.240
01/15/2014  20:56:00     -104.920      -26.558      -20.399       18.051       15.760       10.667      325.854      248.376      113.778        0.641        0.034      108.229        6.912        0.004      333.274        2.481      874.250
01/15/2014  20:57:00     -117.489      -55.785      -16.973       11.675       13.981       15.748      136.302      195.473      247.998        0.889        0.029      130.060        9.959        0.006      333.298        2.520      874.265
01/15/2014  20:58:00      -92.188      -62.458       -9.299       22.951       18.511       14.493      526.748      342.658      210.056        0.678        0.054      111.354       10.616        0.009      333.261        2.461      874.283
01/15/2014  20:59:00      -75.103      -25.070      -10.282       24.694       14.355       10.467      609.798      206.057      109.565        0.365        0.046       79.177        6.609        0.007      333.222        2.394      874.304
01/15/2014  21:00:00      -96.881      -14.417      -12.942       26.214       14.898       13.080      687.155      221.952      171.089        0.542        0.054       97.948       11.134        0.013      333.192        2.344      874.314
01/15/2014  21:01:00      -88.814      -23.996      -17.224       21.525       20.154       12.231      463.339      406.185      149.587        0.489        0.051       91.999        4.305        0.002      333.196        2.351      874.321
01/15/2014  21:02:00      -81.957      -51.163      -15.886       32.491       23.802       13.494     1055.689      566.528      182.086        0.570        0.090       96.616        9.735        0.010      333.105        2.202      874.350
01/15/2014  21:03:00     -112.737      -41.041      -16.840       22.299       21.624       11.766      497.237      467.576      138.440        0.789        0.055      119.975       10.533        0.008      333.109        2.209      874.360
01/15/2014  21:04:00     -122.737      -23.626      -18.629       16.255       10.394        9.084      264.215      108.044       82.524        0.821        0.023      124.990        5.911        0.002      333.077        2.156      874.370
01/15/2014  21:05:00      -97.358      -50.527      -16.636       11.599       14.707       11.259      134.539      216.301      126.775        0.639        0.024      109.688        4.761        0.002      333.083        2.166      874.382
01/15/2014  21:06:00     -100.185      -61.163      -16.811       23.557       20.044       14.330      554.935      401.762      205.345        0.761        0.058      117.380        7.463        0.004      333.047        2.106      874.401
01/15/2014  21:07:00      -51.390      -50.924        0.805       44.762       40.706       26.904     2003.659     1656.981      723.846        0.481        0.219       72.347       25.951        0.129      332.984        2.002      874.411
01/15/2014  21:08:00     -125.565      -74.332       -5.905       35.573       30.669       25.508     1265.434      940.585      650.666        1.209        0.143      145.917       21.926        0.023      333.079        2.158      874.421
01/15/2014  21:09:00     -136.226      -67.509       -5.155       26.202       22.790       21.050      686.542      519.384      443.093        1.239        0.082      152.036       15.153        0.010      332.963        1.968      874.436
01/15/2014  21:10:00     -110.792      -50.305       -7.710       20.515       22.649       15.491      420.882      512.999      239.964        0.802        0.059      121.677        7.201        0.004      333.017        2.056      874.452
01/15/2014  21:11:00      -98.424      -46.448       -9.984       14.675       17.388        9.532      215.345      302.345       90.860        0.628        0.030      108.834        4.181        0.001      332.983        2.001      874.459
01/15/2014  21:12:00     -103.198      -41.404      -11.192       10.129       17.090        7.619      102.600      292.082       58.057        0.647        0.023      111.194        6.060        0.003      332.961        1.964      874.469
01/15/2014  21:13:00      -89.484      -20.053      -11.751       13.008       10.938       10.392      169.220      119.647      107.998        0.447        0.020       91.704        5.429        0.004      332.944        1.936      874.484
01/15/2014  21:14:00     -109.655      -34.210      -16.188       12.793       11.106        9.645      163.651      123.352       93.035        0.692        0.019      114.867        4.461        0.002      333.006        2.039      874.500
01/15/2014  21:15:00     -116.236      -27.831      -13.918        8.193       11.613        9.986       67.131      134.872       99.721        0.739        0.015      119.521        2.753        0.001      332.965        1.971      874.515
01/15/2014  21:16:00      -99.645      -30.629      -10.786       10.146        9.822        9.259      102.936       96.466       85.737        0.563        0.014      104.246        4.688        0.002      333.020        2.059      874.529
01/15/2014  21:17:00      -95.855      -33.344       -9.242        7.310        7.765        5.187       53.440       60.300       26.905        0.526        0.007      101.489        3.806        0.001      332.984        2.001      874.548
01/15/2014  21:18:00      -98.774      -24.679      -12.529       10.265       10.223        8.508      105.365      104.509       72.388        0.540        0.014      101.810        6.254        0.004      333.015        2.052      874.567
01/15/2014  21:19:00      -86.346      -21.225       -9.212       20.671       12.061       11.385      427.277      145.462      129.617        0.435        0.035       88.916       12.738        0.021      333.025        2.070      874.569
01/15/2014  21:20:00      -86.568      -19.988      -12.605        7.836       11.233        7.651       61.409      126.173       58.540        0.415        0.012       88.846        4.671        0.003      332.985        2.002      874.574
01/15/2014  21:21:00      -91.855      -15.596      -14.323        6.984        8.352        6.049       48.782       69.749       36.596        0.452        0.008       93.170        2.994        0.001      333.021        2.061      874.589
01/15/2014  21:22:00      -83.795        0.982       -9.520       11.987        7.738        6.859      143.684       59.871       47.046        0.368        0.013       83.801        3.978        0.002      333.036        2.088      874.593
01/15/2014  21:23:00      -84.579        2.921      -14.443        8.311        7.883        6.705       69.066       62.149       44.953        0.377        0.009       84.630        1.923        0.001      332.993        2.017      874.591
01/15/2014  21:24:00      -54.641       -3.057      -11.334       10.252       13.918       10.414      105.096      193.711      108.441        0.177        0.020       54.727        4.133        0.006      332.955        1.954      874.582
01/15/2014  21:25:00      -48.359       -7.409       -7.816        8.725       10.690        9.055       76.126      114.277       81.984        0.136        0.014       48.924        6.138        0.016      332.952        1.950      874.567
01/15/2014  21:26:00      -43.018      -10.485      -13.873        4.910        6.427        3.641       24.106       41.307       13.259        0.112        0.004       44.278        2.030        0.002      332.901        1.865      874.556
01/15/2014  21:27:00      -28.485        6.543       -4.901       11.440       14.091        8.342      130.878      198.559       69.586        0.064        0.020       29.227        5.625        0.037      333.350        2.608      874.539
01/15/2014  21:28:00      -43.306        3.311       -4.633       10.365       13.862       10.529      107.433      192.143      110.863        0.116        0.021       43.432        5.058        0.014      333.204        2.366      874.521
01/15/2014  21:29:00      -36.919        0.460      -10.106       15.392        6.937        6.732      236.905       48.128       45.315        0.090        0.017       36.922        5.413        0.021      333.224        2.399      874.516
01/15/2014  21:30:00      -38.843       -2.620       -8.219       14.920        8.762        7.200      222.613       76.768       51.847        0.097        0.018       38.932        3.968        0.010      333.165        2.303      874.517
01/15/2014  21:31:00      -37.259      -17.555       -7.791       14.642       10.912        8.190      214.387      119.078       67.077        0.108        0.020       41.187        7.574        0.034      333.036        2.089      874.515
01/15/2014  21:32:00      -36.085      -26.174      -10.826       15.821       12.526       10.825      250.319      156.910      117.190        0.131        0.026       44.578        2.161        0.002      332.899        1.861      874.519
01/15/2014  21:33:00      -32.871      -19.472      -17.414       18.776       14.673       13.749      352.538      215.302      189.028        0.126        0.038       38.206        9.856        0.067      333.170        2.310      874.533
01/15/2014  21:34:00      -62.672      -31.416      -11.140       10.322       15.439        6.962      106.542      238.362       48.476        0.272        0.020       70.106        4.333        0.004      332.794        1.688      874.560
01/15/2014  21:35:00      -73.989       -4.602      -12.831       20.854       12.038       11.131      434.905      144.907      123.898        0.318        0.035       74.132        7.330        0.010      332.748        1.614      874.575
01/15/2014  21:36:00      -72.299        5.396      -22.756       12.025       11.969        6.917      144.600      143.264       47.848        0.305        0.017       72.500        5.127        0.005      332.825        1.742      874.582
01/15/2014  21:37:00      -52.015      -11.429      -17.067       14.244       11.692       11.092      202.901      136.698      123.031        0.179        0.023       53.256        8.851        0.028      332.701        1.535      874.580
01/15/2014  21:38:00      -52.681       -5.776       -8.558        9.088        7.502       11.565       82.591       56.287      133.751        0.158        0.014       52.996        6.915        0.017      332.695        1.525      874.580
01/15/2014  21:39:00      -49.441       -9.779      -10.213       15.426       17.712        8.608      237.974      313.710       74.089        0.163        0.031       50.399        6.251        0.015      332.771        1.651      874.590
01/15/2014  21:40:00      -90.118        8.988       -7.794       25.045       14.398       12.328      627.266      207.315      151.979        0.462        0.049       90.565        9.728        0.012      332.942        1.934      874.598
01/15/2014  21:41:00      -74.131        7.177      -12.040       19.652       10.039       10.627      386.210      100.788      112.937        0.315        0.030       74.478       10.875        0.021      332.989        2.009      874.600
01/15/2014  21:42:00      -56.853        2.894       -9.061       19.561       11.379        8.832      382.642      129.488       78.003        0.196        0.030       56.927        7.802        0.019      333.025        2.070      874.596
01/15/2014  21:43:00      -60.729        0.986      -10.621       17.275       11.399        8.678      298.417      129.930       75.305        0.215        0.025       60.737        8.113        0.018      333.194        2.350      874.595
01/15/2014  21:44:00      -54.165      -19.835      -10.805       11.343       13.724        8.378      128.674      188.343       70.194        0.192        0.019       57.683        9.001        0.024      332.994        2.021      874.594
01/15/2014  21:45:00      -65.087      -30.189      -11.747        7.438        5.626        6.253       55.328       31.646       39.095        0.271        0.006       71.748        2.501        0.001      332.786        1.677      874.590
01/15/2014  21:46:00      -81.361      -27.614      -14.303        8.635        8.385        8.639       74.560       70.300       74.638        0.390        0.011       85.919        3.861        0.002      332.765        1.641      874.583
01/15/2014  21:47:00      -99.459      -36.368      -11.775       11.538       13.109        6.961      133.115      171.839       48.456        0.585        0.018      105.899        4.336        0.002      332.611        1.388      874.573
01/15/2014  21:48:00     -129.908      -42.885      -12.908        8.056        8.334        8.019       64.904       69.459       64.304        0.954        0.010      136.804        3.408        0.001      332.692        1.520      874.563
01/15/2014  21:49:00     -107.537      -28.048      -11.273       23.899       12.949       14.229      571.183      167.672      202.460        0.671        0.047      111.135       12.059        0.012      332.699        1.532      874.561
01/15/2014  21:50:00     -119.020      -44.495       -9.008       12.607       14.334        9.204      158.929      205.471       84.709        0.834        0.022      127.065        5.330        0.002      332.588        1.348      874.571
01/15/2014  21:51:00     -106.338      -57.478       -8.724       14.763       16.374       11.756      217.950      268.123      138.195        0.766        0.031      120.878        7.463        0.004      332.497        1.196      874.568
01/15/2014  21:52:00     -103.577      -49.532      -14.021       10.651        9.422        9.239      113.454       88.775       85.364        0.683        0.014      114.811        6.704        0.003      332.418        1.066      874.554
01/15/2014  21:53:00      -99.203      -64.658       -2.999       26.751       18.363       17.744      715.596      337.198      314.851        0.770        0.068      118.414       13.954        0.014      332.494        1.191      874.545
01/15/2014  21:54:00      -90.580      -64.584        5.853       38.392       34.166       23.914     1473.913     1167.334      571.881        0.781        0.161      111.246       16.717        0.023      332.564        1.310      874.541
01/15/2014  21:55:00     -124.416      -60.600        1.502       39.964       28.856       21.146     1597.096      832.640      447.163        1.101        0.144      138.390       18.201        0.017      332.609        1.383      874.543
01/15/2014  21:56:00     -140.699      -63.334       -4.562       26.347       17.846       17.036      694.156      318.464      290.211        1.257        0.065      154.297        5.721        0.001      332.657        1.462      874.536
01/15/2014  21:57:00     -119.083      -50.632       -2.362       37.381       33.490       21.099     1397.303     1121.583      445.158        0.986        0.148      129.400       20.337        0.025      332.594        1.357      874.520
01/15/2014  21:58:00     -140.133      -41.626       -7.575       31.399       26.057       19.538      985.881      678.984      381.747        1.174        0.102      146.185       18.284        0.016      332.644        1.439      874.504
01/15/2014  21:59:00     -158.822      -64.267       -0.926       31.559       30.041       19.345      995.948      902.442      374.222        1.581        0.114      171.332       14.775        0.007      332.759        1.632      874.494
01/15/2014  22:00:00     -128.934      -45.285        0.348       59.507       32.425       20.051     3541.081     1051.398      402.038        1.183        0.250      136.655       26.341        0.037      332.715        1.557      874.492
01/15/2014  22:01:00     -153.391      -43.750       -3.650       30.200       26.261       22.451      912.036      689.615      504.049        1.378        0.105      159.508       16.252        0.010      332.545        1.277      874.484
01/15/2014  22:02:00     -166.741      -48.048      -15.531       26.198       20.088       15.177      686.340      403.544      230.345        1.584        0.066      173.526       12.224        0.005      332.424        1.078      874.480
01/15/2014  22:03:00     -164.726      -61.220      -11.370       25.823       23.563       18.799      666.820      555.229      353.400        1.629        0.079      175.734       15.050        0.007      332.269        0.822      874.478
01/15/2014  22:04:00     -135.845      -53.603       -9.118       22.398       18.809       16.956      501.678      353.764      287.522        1.128        0.057      146.038       10.883        0.006      332.252        0.795      874.477
01/15/2014  22:05:00     -115.580      -59.813       -7.108       32.525       38.903       16.694     1057.859     1513.431      278.677        0.992        0.142      130.139       11.141        0.007      332.280        0.841      874.468
01/15/2014  22:06:00     -125.024      -35.897       -0.792       63.961       45.872       31.521     4090.965     2104.210      993.586        1.205        0.359      130.075       35.448        0.074      332.378        1.001      874.456
01/15/2014  22:07:00      -92.664      -40.171       -0.158       53.435       43.131       23.011     2855.287     1860.306      529.521        0.772        0.262      100.996       26.270        0.068      332.349        0.954      874.441
01/15/2014  22:08:00     -121.505      -33.961       -1.521       42.385       45.069       20.680     1796.460     2031.205      427.681        1.009        0.213      126.162       22.057        0.031      332.302        0.876      874.446
01/15/2014  22:09:00     -139.328        5.100      -16.901       37.093       25.903       22.947     1375.900      670.951      526.573        1.115        0.129      139.421       19.733        0.020      332.352        0.957      874.457
01/15/2014  22:10:00     -144.952       31.385       -6.401       50.994       31.074       25.503     2600.345      965.566      650.411        1.313        0.211      148.311       27.697        0.035      332.432        1.090      874.462
01/15/2014  22:11:00     -170.010        9.919       -9.847       54.179       40.545       29.185     2935.331     1643.884      851.772        1.726        0.272      170.299       32.436        0.036      332.539        1.267      874.468
01/15/2014  22:12:00     -105.516       -5.543       -5.168       40.750       43.226       24.607     1660.556     1868.497      605.501        0.766        0.207      105.661       20.353        0.037      332.407        1.049      874.473
01/15/2014  22:13:00     -131.875       11.999      -14.333       36.565       34.538       20.561     1337.007     1192.852      422.752        1.035        0.148      132.420       13.245        0.010      332.485        1.178      874.487
01/15/2014  22:14:00     -133.445       17.443      -13.297       36.562       41.281       22.638     1336.749     1704.118      512.461        1.092        0.178      134.580       16.058        0.014      332.512        1.222      874.502
01/15/2014  22:15:00     -129.714        4.868      -12.906       44.045       31.286       24.640     1939.944      978.809      607.134        1.027        0.176      129.806       20.252        0.024      332.507        1.214      874.525
01/15/2014  22:16:00     -124.566        7.802      -15.258       35.815       26.990       23.462     1282.734      728.467      550.454        0.919        0.128      124.810       18.265        0.021      332.467        1.147      874.533
01/15/2014  22:17:00     -151.853      -13.532      -12.588       36.276       33.903       22.623     1315.939     1149.412      511.822        1.319        0.149      152.455       19.446        0.016      332.494        1.191      874.526
01/15/2014  22:18:00     -112.031      -43.253       -5.846       44.816       36.477       19.040     2008.489     1330.600      362.508        0.908        0.185      120.090       21.320        0.032      332.447        1.114      874.531
01/15/2014  22:19:00      -79.412      -43.682       -8.636       30.751       37.807       25.070      945.627     1429.383      628.499        0.565        0.150       90.633       18.648        0.042      332.420        1.072      874.531
01/15/2014  22:20:00     -127.648      -13.068      -17.247       42.003       41.683       29.194     1764.256     1737.464      852.302        1.056        0.218      128.315       27.849        0.047      332.544        1.275      874.522
01/15/2014  22:21:00      -78.504      -23.751       -0.543       49.918       38.211       23.824     2491.789     1460.044      567.603        0.562        0.226       82.018       24.468        0.089      332.480        1.169      874.518
01/15/2014  22:22:00     -115.485      -38.258       -8.569       43.194       32.903       23.904     1865.759     1082.617      571.389        0.920        0.176      121.657       19.779        0.026      332.430        1.087      874.529
01/15/2014  22:23:00      -96.043      -43.097      -13.865       40.614       32.753       27.189     1649.503     1072.735      739.225        0.737        0.173      105.269       16.414        0.024      332.382        1.008      874.527
01/15/2014  22:24:00     -101.308      -52.101       -2.021       40.024       40.551       22.210     1601.948     1644.363      493.293        0.836        0.187      113.920       14.597        0.016      332.276        0.833      874.515
01/15/2014  22:25:00      -90.377      -37.820       -1.300       51.538       31.806       19.375     2656.177     1011.603      375.392        0.682        0.202       97.971       14.843        0.023      332.222        0.745      874.504
01/15/2014  22:26:00     -119.775      -53.543       -6.367       30.941       33.947       24.877      957.323     1152.415      618.847        0.999        0.136      131.198       13.553        0.011      332.292        0.860      874.503
01/15/2014  22:27:00     -120.277      -31.089      -15.530       26.550       34.792       19.010      704.879     1210.501      361.381        0.898        0.114      124.230       12.744        0.011      332.324        0.914      874.503
01/15/2014  22:28:00     -107.010      -68.112       -6.628       40.530       39.776       22.287     1642.698     1582.093      496.712        0.993        0.186      126.848       17.173        0.018      332.258        0.804      874.499
01/15/2014  22:29:00     -106.809      -51.451       -2.373       37.084       43.530       24.428     1375.242     1894.881      596.732        0.896        0.193      118.556       13.905        0.014      332.228        0.754      874.510
01/15/2014  22:30:00      -24.598      -16.573       -3.034       54.849       35.821       22.680     3008.381     1283.164      514.376        0.285        0.240       29.661       25.814        0.757      332.203        0.714      874.520
01/15/2014  22:31:00      -46.708      -11.690       -0.846       50.442       25.116       23.066     2544.431      630.816      532.056        0.301        0.185       48.149       27.501        0.326      332.257        0.803      874.525
01/15/2014  22:32:00      -40.243      -31.277      -20.451       39.662       37.856       23.535     1573.111     1433.079      553.897        0.329        0.178       50.968       18.533        0.132      332.205        0.716      874.528
01/15/2014  22:33:00      -49.847      -40.377       -2.355       49.499       31.019       38.179     2450.186      962.172     1457.659        0.449        0.244       64.149       17.471        0.074      332.250        0.791      874.530
01/15/2014  22:34:00      -71.517      -37.326      -15.196       35.357       28.176       20.677     1250.121      793.888      427.533        0.460        0.124       80.672       17.177        0.045      332.237        0.770      874.542
01/15/2014  22:35:00      -98.805      -42.515      -17.556       27.572       32.544       22.280      760.230     1059.131      496.414        0.710        0.116      107.563       16.472        0.023      332.189        0.691      874.549
01/15/2014  22:36:00     -115.250      -22.953      -25.375       21.319       18.933       18.893      454.509      358.453      356.931        0.781        0.058      117.514       13.443        0.013      332.240        0.773      874.543
01/15/2014  22:37:00     -123.201      -17.564      -19.600       24.643       21.209       18.045      607.260      449.803      325.616        0.863        0.069      124.447       17.099        0.019      332.241        0.775      874.529
01/15/2014  22:38:00     -117.268      -22.496      -15.908       20.265       19.382       15.875      410.653      375.680      252.008        0.777        0.052      119.406       12.371        0.011      332.171        0.660      874.525
01/15/2014  22:39:00     -129.617      -21.444      -22.802       17.870       24.637       14.468      319.342      606.968      209.309        0.946        0.057      131.379       10.217        0.006      332.158        0.638      874.527
01/15/2014  22:40:00     -134.797      -29.487      -24.200       16.182       19.953       15.593      261.862      398.116      243.148        1.026        0.045      137.985        7.204        0.003      332.176        0.670      874.513
01/15/2014  22:41:00     -139.634      -33.900      -18.711       34.194       33.433       19.453     1169.210     1117.755      378.439        1.183        0.133      143.690       13.821        0.009      332.187        0.687      874.496
01/15/2014  22:42:00     -105.165      -31.601      -13.344       31.177       29.503       15.898      972.034      870.401      252.745        0.717        0.105      109.810        7.438        0.005      332.203        0.714      874.477
01/15/2014  22:43:00      -88.167      -35.075       -4.868       28.515       30.557       23.300      813.129      933.759      542.869        0.566        0.114       94.888       13.215        0.019      332.245        0.783      874.464
01/15/2014  22:44:00     -111.698      -38.650      -16.985       37.255       21.860       16.461     1387.947      477.873      270.952        0.820        0.107      118.196       13.693        0.013      332.267        0.819      874.450
01/15/2014  22:45:00     -127.872      -62.121      -16.835       29.117       23.862       18.211      847.816      569.400      331.647        1.112        0.087      142.162       12.201        0.007      332.236        0.769      874.434
01/15/2014  22:46:00     -136.286      -73.659       -9.625       32.174       28.238       13.724     1035.189      797.375      188.353        1.306        0.101      154.918        8.438        0.003      332.214        0.732      874.413
01/15/2014  22:47:00     -131.701      -79.431      -10.515       28.338       21.621       18.291      803.028      467.467      334.560        1.268        0.080      153.800        8.617        0.003      332.145        0.617      874.412
01/15/2014  22:48:00      -88.323      -64.721       -3.764       36.672       34.496       24.173     1344.854     1190.006      584.331        0.756        0.156      109.498       13.901        0.016      332.086        0.520      874.412
01/15/2014  22:49:00      -93.680      -77.029        1.618       40.322       33.994       22.107     1625.856     1155.609      488.705        0.899        0.164      121.283       21.906        0.033      332.176        0.668      874.403
01/15/2014  22:50:00      -64.796      -78.218        3.328       50.063       39.258       26.244     2506.275     1541.195      688.724        0.753        0.237      101.571       23.916        0.055      332.113        0.564      874.398
01/15/2014  22:51:00     -105.319      -99.471       -2.894       53.271       38.013       28.718     2837.755     1444.960      824.722        1.305        0.255      144.867       31.584        0.048      332.149        0.624      874.409
01/15/2014  22:52:00     -110.719      -66.612        0.705       47.768       34.250       26.914     2281.813     1173.074      724.385        1.044        0.209      129.212       29.526        0.052      332.126        0.586      874.407
01/15/2014  22:53:00     -120.624      -77.765       -2.589       45.339       39.853       26.500     2055.635     1588.291      702.250        1.247        0.217      143.519       26.053        0.033      332.097        0.538      874.400
01/15/2014  22:54:00      -99.802      -68.631        1.039       41.566       30.911       25.800     1727.748      955.488      665.646        0.901        0.167      121.123       22.062        0.033      332.107        0.554      874.412
01/15/2014  22:55:00     -104.223      -66.116       -0.305       56.002       28.918       21.747     3136.277      836.259      472.925        0.984        0.222      123.425       20.921        0.029      332.127        0.589      874.420
01/15/2014  22:56:00      -81.119      -57.167        3.229       41.468       32.542       20.666     1719.562     1058.957      427.083        0.653        0.160       99.238       21.097        0.045      332.098        0.541      874.422
01/15/2014  22:57:00     -110.403      -70.355       -0.202       46.626       40.640       26.429     2174.000     1651.618      698.505        1.083        0.226      130.915       22.056        0.028      332.093        0.531      874.425
01/15/2014  22:58:00     -102.499      -67.391        7.392       51.843       36.538       28.372     2687.657     1335.021      804.969        0.996        0.241      122.669       26.600        0.047      332.057        0.474      874.433
01/15/2014  22:59:00      -63.481      -38.328       13.925       44.434       29.520       24.205     1974.397      871.450      585.873        0.456        0.172       74.154       15.437        0.043      332.049        0.459      874.421
01/15/2014  23:00:00      -87.307      -46.202       -0.052       30.918       26.336       22.499      955.947      693.566      506.186        0.596        0.108       98.778       14.159        0.021      332.017        0.406      874.417
01/15/2014  23:01:00      -62.525      -53.188        6.099       40.641       36.882       21.267     1651.692     1360.265      452.303        0.512        0.173       82.087       18.251        0.049      332.038        0.441      874.416
01/15/2014  23:02:00      -91.297      -66.956        1.919       41.814       28.692       22.640     1748.412      823.204      512.592        0.795        0.154      113.218       20.199        0.032      332.155        0.634      874.409
01/15/2014  23:03:00      -83.967      -62.444        2.561       44.547       30.201       20.890     1984.465      912.096      436.412        0.714        0.167      104.641       13.341        0.016      332.119        0.576      874.403
01/15/2014  23:04:00      -64.449      -44.422        2.301       38.082       32.065       22.318     1450.203     1028.146      498.084        0.455        0.149       78.275       17.555        0.050      332.025        0.420      874.404
01/15/2014  23:05:00      -82.800      -44.864        2.101       41.044       30.775       21.376     1684.649      947.088      456.948        0.598        0.154       94.174       18.486        0.039      332.071        0.495      874.399
01/15/2014  23:06:00     -128.169      -64.547       -1.381       27.769       23.647       14.913      771.110      559.179      222.398        1.107        0.078      143.505       12.793        0.008      332.165        0.650      874.389
01/15/2014  23:07:00     -150.452      -49.503       -9.142       15.131       15.954       11.637      228.954      254.530      135.420        1.289        0.031      158.387        6.664        0.002      332.127        0.588      874.378
01/15/2014  23:08:00     -134.943      -43.797       -5.253       29.289       23.298       18.041      857.825      542.802      325.485        1.094        0.086      141.872       18.020        0.016      332.085        0.520      874.378
01/15/2014  23:09:00     -123.029      -30.302       -0.713       35.734       18.499       16.462     1276.911      342.229      270.987        0.897        0.095      126.705       17.992        0.020      331.977        0.340      874.380
01/15/2014  23:10:00     -119.783      -21.361       -3.466       28.585       19.825       16.943      817.084      393.049      287.056        0.816        0.075      121.673       12.904        0.011      331.960        0.313      874.373
01/15/2014  23:11:00     -125.285      -22.575      -10.230       17.204       16.572       13.423      295.970      274.626      180.178        0.853        0.038      127.303        7.892        0.004      331.931        0.265      874.367
01/15/2014  23:12:00     -131.534      -32.450      -16.867       12.423       13.242       10.363      154.331      175.347      107.382        0.954        0.022      135.477        0.971        0.000      331.852        0.134      874.369
01/15/2014  23:13:00     -145.440      -35.708      -12.597       16.153       17.561       10.918      260.911      308.405      119.199        1.164        0.034      149.760        5.922        0.002      331.952        0.299      874.362
01/15/2014  23:14:00     -119.738      -40.375       -4.434       31.220       18.894       13.588      974.665      356.967      184.643        0.875        0.076      126.362       13.882        0.012      331.923        0.251      874.354
01/15/2014  23:15:00     -121.989      -31.511       -5.313       26.027       19.628       15.123      677.390      385.243      228.714        0.860        0.065      125.994        8.677        0.005      331.917        0.240      874.350
01/15/2014  23:16:00     -134.848      -35.032       -5.688       18.716       15.389       15.617      350.274      236.811      243.884        1.014        0.042      139.325       11.362        0.007      331.951        0.297      874.348
01/15/2014  23:17:00     -124.049      -26.498       -9.415       23.878       13.752       12.149      570.151      189.122      147.597        0.854        0.045      126.848       12.964        0.010      331.963        0.318      874.344
01/15/2014  23:18:00     -145.826      -21.224      -16.217       18.813       14.605       10.744      353.923      213.315      115.435        1.133        0.034      147.363        8.293        0.003      332.035        0.435      874.341
01/15/2014  23:19:00     -148.916      -12.581      -13.130       20.642       15.825       14.192      426.088      250.417      201.411        1.169        0.044      149.447        9.764        0.004      332.016        0.405      874.332
01/15/2014  23:20:00     -135.929      -11.825      -14.717       36.989       22.481       15.850     1368.216      505.378      251.215        1.048        0.106      136.442       13.016        0.009      331.941        0.283      874.322
01/15/2014  23:21:00     -128.222      -15.936      -12.931       31.987       25.346       21.613     1023.169      642.440      467.129        0.950        0.107      129.208       19.261        0.022      331.835        0.106      874.313
01/15/2014  23:22:00     -127.003      -33.999      -17.900       22.105       21.854       16.272      488.627      477.588      264.785        0.942        0.062      131.475       10.375        0.006      331.761       -0.016      874.301
01/15/2014  23:23:00     -112.897      -29.229      -16.189       23.924       24.717       18.445      572.379      610.951      340.206        0.769        0.076      116.620       10.254        0.008      331.735       -0.058      874.291
01/15/2014  23:24:00     -119.743      -47.890      -21.006       14.104       17.775       13.038      198.933      315.934      169.983        0.888        0.034      128.964       10.985        0.007      331.727       -0.070      874.284
01/15/2014  23:25:00      -72.139      -29.678      -17.447       23.440       21.102       14.173      549.444      445.303      200.865        0.379        0.060       78.006       11.842        0.023      331.710       -0.099      874.285
01/15/2014  23:26:00      -86.229        3.490      -10.041       19.679       16.517       13.898      387.273      272.811      193.167        0.420        0.043       86.300        9.754        0.013      331.663       -0.176      874.289
01/15/2014  23:27:00      -74.935      -25.034      -15.705       20.696       21.658       12.889      428.325      469.076      166.117        0.378        0.053       79.005       12.613        0.025      331.710       -0.098      874.284
01/15/2014  23:28:00      -87.856      -18.206       -5.233       20.228       16.751       13.562      409.192      280.585      183.928        0.448        0.044       89.722       10.635        0.014      331.670       -0.163      874.272
01/15/2014  23:29:00     -103.480      -24.573      -18.877       14.618       20.349       11.503      213.688      414.096      132.320        0.621        0.038      106.358       10.343        0.009      331.608       -0.267      874.254
01/15/2014  23:30:00     -101.834      -36.754      -20.359       22.878       16.351       11.528      523.416      267.357      132.903        0.653        0.046      108.264        9.568        0.008      331.453       -0.523      874.249
01/15/2014  23:31:00     -122.167      -22.184      -15.479       20.180       13.849       13.890      407.235      191.788      192.942        0.822        0.040      124.165        9.978        0.006      331.380       -0.643      874.249
01/15/2014  23:32:00      -93.752      -43.190      -17.766       19.760       28.814       18.520      390.448      830.275      342.980        0.627        0.078      103.222       11.659        0.013      331.550       -0.362      874.252
01/15/2014  23:33:00      -99.128      -45.335      -16.263       19.546       23.954       16.085      382.053      573.811      258.741        0.668        0.061      109.003       11.145        0.010      331.552       -0.360      874.253
01/15/2014  23:34:00      -89.614      -31.134      -15.815       19.336       17.366       13.251      373.870      301.573      175.580        0.505        0.043       94.869        7.706        0.007      331.610       -0.264      874.258
01/15/2014  23:35:00     -120.927      -46.178      -14.734       24.321       18.399       12.286      591.502      338.510      150.951        0.903        0.054      129.444        9.362        0.005      331.597       -0.286      874.254
01/15/2014  23:36:00     -123.161      -49.240      -11.810       25.032       23.894       15.543      626.609      570.924      241.580        0.959        0.072      132.640        9.895        0.006      331.621       -0.245      874.235
01/15/2014  23:37:00      -92.514      -58.864        4.607       46.751       23.101       23.996     2185.683      533.653      575.787        0.767        0.165      109.653       22.028        0.040      331.596       -0.286      874.223
01/15/2014  23:38:00     -101.754      -71.395       -1.790       31.394       30.003       21.820      985.558      900.160      476.127        0.891        0.118      124.302       16.528        0.018      331.649       -0.199      874.221
01/15/2014  23:39:00      -93.359      -76.072       -3.583       32.223       33.036       20.011     1038.330     1091.361      400.427        0.852        0.127      120.427       11.435        0.009      331.645       -0.207      874.215
01/15/2014  23:40:00     -118.354      -78.595      -11.644       34.617       36.045       19.441     1198.368     1299.215      377.954        1.160        0.144      142.074       15.144        0.011      331.597       -0.285      874.217
01/15/2014  23:41:00     -145.940      -60.340       -5.101       36.637       25.328       21.370     1342.285      641.483      456.676        1.370        0.122      157.922       20.480        0.017      331.525       -0.404      874.213
01/15/2014  23:42:00     -132.705      -64.980       -5.369       21.574       20.835       15.140      465.433      434.110      229.220        1.150        0.056      147.760        6.694        0.002      331.496       -0.451      874.200
01/15/2014  23:43:00     -102.613      -27.884      -11.731       18.623       24.328       12.752      346.812      591.852      162.605        0.627        0.055      106.335        9.943        0.009      331.490       -0.461      874.192
01/15/2014  23:44:00     -108.061      -31.991       -1.745       23.174       25.826       14.663      537.041      666.961      214.993        0.706        0.071      112.697       13.698        0.015      331.509       -0.431      874.194
01/15/2014  23:45:00      -87.459      -49.053        3.063       35.358       28.616       18.773     1250.161      818.893      352.415        0.624        0.121      100.276       16.042        0.026      331.527       -0.401      874.199
01/15/2014  23:46:00      -72.444      -56.359        2.319       39.179       27.235       20.408     1534.990      741.769      416.492        0.556        0.135       91.785       17.661        0.037      331.504       -0.439      874.195
01/15/2014  23:47:00     -126.051      -42.511       -0.202       24.735       20.201       14.038      611.837      408.064      197.066        0.946        0.061      133.027       11.927        0.008      331.544       -0.372      874.184
01/15/2014  23:48:00     -128.397      -55.634       -0.031       23.020       18.033       14.179      529.934      325.206      201.037        1.032        0.053      139.932       12.142        0.008      331.543       -0.373      874.177
01/15/2014  23:49:00     -115.635      -51.215       -5.327       19.660       13.083       12.752      386.510      171.169      162.609        0.837        0.036      126.468        9.492        0.006      331.537       -0.386      874.180
01/15/2014  23:50:00     -119.307      -44.343       -5.724       25.307       22.910       15.397      640.426      524.875      237.053        0.882        0.070      127.281       12.403        0.009      331.582       -0.310      874.179
01/15/2014  23:51:00     -123.484      -47.620       -3.262       17.908       16.553        9.229      320.696      273.996       85.172        0.910        0.034      132.347        6.354        0.002      331.579       -0.316      874.179
01/15/2014  23:52:00     -109.775      -39.013       -4.618       21.989       17.042       14.687      483.506      290.444      215.714        0.729        0.049      116.501       14.421        0.015      331.567       -0.335      874.182
01/15/2014  23:53:00     -127.435      -36.458      -11.856       15.239       12.379       10.500      232.240      153.246      110.248        0.910        0.025      132.548        8.154        0.004      331.604       -0.274      874.174
01/15/2014  23:54:00     -120.101      -19.064      -15.447       21.558       17.898       15.682      464.736      320.337      245.920        0.803        0.052      121.604       14.733        0.015      331.563       -0.342      874.172
01/15/2014  23:55:00     -122.740      -24.488      -12.519       23.516       15.692       15.295      552.985      246.236      233.924        0.843        0.052      125.159       13.767        0.012      331.605       -0.272      874.166
01/15/2014  23:56:00     -113.657      -32.976      -16.829       18.632       17.741       11.436      347.158      314.748      130.778        0.754        0.040      118.344        7.219        0.004      331.563       -0.343      874.151
01/15/2014  23:57:00     -117.986      -44.289      -13.905       19.651       17.366       16.537      386.156      301.562      273.474        0.852        0.048      126.025       12.956        0.011      331.555       -0.354      874.140
01/15/2014  23:58:00      -99.556      -50.245       -6.883       19.887       21.540       15.630      395.484      463.954      244.304        0.679        0.055      111.517       15.135        0.018      331.567       -0.335      874.131
01/15/2014  23:59:00      -98.425      -44.353      -11.465       17.529       18.424       12.887      307.263      339.459      166.081        0.630        0.041      107.957        9.058        0.007      331.530       -0.396      874.132
